<?xml version="1.0" encoding="UTF-8" standalone="no" ?>
<gpx xmlns="http://www.topografix.com/GPX/1/1" xmlns:xsi="http://www.w3.org/2001/XMLSchema-instance" xsi:schemaLocation="http://www.topografix.com/GPX/1/1 http://www.topografix.com/GPX/1/1/gpx.xsd" version="1.1" creator="VisuGPX - https://www.visugpx.com">
  <metadata>
    <name>Azillanet vers Minerve</name>
    <desc><![CDATA[En partant de l'église d' Azillanet (parking à coté), prendre le GR77, monter à travers les cordonnières pour se situe r sur les hauteurs en face de Minerve. Au niveau de l'antenne, amorcer le retour vers les Fangosses, puis vers la station de pompage, puis Prat Quilleran. Prendre toute à gauche vers Fabrègues, et descendre par le Mourel vers Azillanet.]]></desc>
  </metadata>
  <trk>
    <name><![CDATA[2022-02-03 16:42:31]]></name>
    <trkseg>
      <trkpt lat="43.32484" lon="2.7376">
        <ele>35.23</ele>
        <time>2022-02-03T12:48:40Z</time>
      </trkpt>
      <trkpt lat="43.32486" lon="2.7376">
        <ele>35.23</ele>
        <time>2022-02-03T12:48:55Z</time>
      </trkpt>
      <trkpt lat="43.32493" lon="2.73778">
        <ele>35.23</ele>
        <time>2022-02-03T12:49:07Z</time>
      </trkpt>
      <trkpt lat="43.32494" lon="2.73788">
        <ele>35.23</ele>
        <time>2022-02-03T12:49:12Z</time>
      </trkpt>
      <trkpt lat="43.32493" lon="2.73803">
        <ele>35.23</ele>
        <time>2022-02-03T12:49:26Z</time>
      </trkpt>
      <trkpt lat="43.32484" lon="2.73815">
        <ele>32.82</ele>
        <time>2022-02-03T12:49:41Z</time>
      </trkpt>
      <trkpt lat="43.32482" lon="2.73817">
        <ele>32.82</ele>
        <time>2022-02-03T12:49:43Z</time>
      </trkpt>
      <trkpt lat="43.32474" lon="2.7382">
        <ele>32.34</ele>
        <time>2022-02-03T12:49:47Z</time>
      </trkpt>
      <trkpt lat="43.3247" lon="2.73821">
        <ele>31.38</ele>
        <time>2022-02-03T12:50:00Z</time>
      </trkpt>
      <trkpt lat="43.32473" lon="2.73826">
        <ele>34.74</ele>
        <time>2022-02-03T12:50:06Z</time>
      </trkpt>
      <trkpt lat="43.32474" lon="2.73845">
        <ele>36.67</ele>
        <time>2022-02-03T12:50:20Z</time>
      </trkpt>
      <trkpt lat="43.32472" lon="2.73851">
        <ele>36.67</ele>
        <time>2022-02-03T12:50:31Z</time>
      </trkpt>
      <trkpt lat="43.32465" lon="2.73857">
        <ele>36.67</ele>
        <time>2022-02-03T12:50:40Z</time>
      </trkpt>
      <trkpt lat="43.32463" lon="2.73859">
        <ele>36.19</ele>
        <time>2022-02-03T12:50:42Z</time>
      </trkpt>
      <trkpt lat="43.32459" lon="2.73867">
        <ele>35.71</ele>
        <time>2022-02-03T12:50:47Z</time>
      </trkpt>
      <trkpt lat="43.32458" lon="2.73872">
        <ele>35.71</ele>
        <time>2022-02-03T12:50:50Z</time>
      </trkpt>
      <trkpt lat="43.32456" lon="2.73886">
        <ele>35.71</ele>
        <time>2022-02-03T12:50:58Z</time>
      </trkpt>
      <trkpt lat="43.32454" lon="2.73897">
        <ele>35.71</ele>
        <time>2022-02-03T12:51:10Z</time>
      </trkpt>
      <trkpt lat="43.32453" lon="2.73901">
        <ele>35.71</ele>
        <time>2022-02-03T12:51:14Z</time>
      </trkpt>
      <trkpt lat="43.32448" lon="2.7392">
        <ele>37.63</ele>
        <time>2022-02-03T12:51:26Z</time>
      </trkpt>
      <trkpt lat="43.3244" lon="2.73938">
        <ele>39.55</ele>
        <time>2022-02-03T12:51:38Z</time>
      </trkpt>
      <trkpt lat="43.32438" lon="2.73945">
        <ele>40.03</ele>
        <time>2022-02-03T12:51:55Z</time>
      </trkpt>
      <trkpt lat="43.32437" lon="2.73953">
        <ele>40.51</ele>
        <time>2022-02-03T12:52:04Z</time>
      </trkpt>
      <trkpt lat="43.32435" lon="2.73967">
        <ele>40.99</ele>
        <time>2022-02-03T12:52:12Z</time>
      </trkpt>
      <trkpt lat="43.32426" lon="2.74007">
        <ele>41.47</ele>
        <time>2022-02-03T12:52:28Z</time>
      </trkpt>
      <trkpt lat="43.32418" lon="2.74032">
        <ele>40.99</ele>
        <time>2022-02-03T12:52:39Z</time>
      </trkpt>
      <trkpt lat="43.32406" lon="2.74044">
        <ele>40.99</ele>
        <time>2022-02-03T12:52:50Z</time>
      </trkpt>
      <trkpt lat="43.32391" lon="2.7406">
        <ele>41.95</ele>
        <time>2022-02-03T12:53:06Z</time>
      </trkpt>
      <trkpt lat="43.32374" lon="2.74074">
        <ele>42.44</ele>
        <time>2022-02-03T12:53:22Z</time>
      </trkpt>
      <trkpt lat="43.32371" lon="2.7408">
        <ele>42.44</ele>
        <time>2022-02-03T12:53:27Z</time>
      </trkpt>
      <trkpt lat="43.32362" lon="2.74088">
        <ele>42.92</ele>
        <time>2022-02-03T12:53:34Z</time>
      </trkpt>
      <trkpt lat="43.32359" lon="2.74092">
        <ele>43.88</ele>
        <time>2022-02-03T12:53:36Z</time>
      </trkpt>
      <trkpt lat="43.3235" lon="2.74106">
        <ele>44.36</ele>
        <time>2022-02-03T12:53:46Z</time>
      </trkpt>
      <trkpt lat="43.3234" lon="2.74124">
        <ele>45.32</ele>
        <time>2022-02-03T12:54:01Z</time>
      </trkpt>
      <trkpt lat="43.32328" lon="2.74151">
        <ele>45.8</ele>
        <time>2022-02-03T12:54:20Z</time>
      </trkpt>
      <trkpt lat="43.32328" lon="2.74155">
        <ele>44.36</ele>
        <time>2022-02-03T12:54:23Z</time>
      </trkpt>
      <trkpt lat="43.32327" lon="2.74157">
        <ele>44.36</ele>
        <time>2022-02-03T12:54:24Z</time>
      </trkpt>
      <trkpt lat="43.32326" lon="2.74158">
        <ele>44.84</ele>
        <time>2022-02-03T12:54:25Z</time>
      </trkpt>
      <trkpt lat="43.32323" lon="2.74162">
        <ele>44.36</ele>
        <time>2022-02-03T12:54:28Z</time>
      </trkpt>
      <trkpt lat="43.32322" lon="2.74164">
        <ele>44.36</ele>
        <time>2022-02-03T12:54:29Z</time>
      </trkpt>
      <trkpt lat="43.32319" lon="2.74167">
        <ele>43.88</ele>
        <time>2022-02-03T12:54:32Z</time>
      </trkpt>
      <trkpt lat="43.32319" lon="2.74169">
        <ele>43.88</ele>
        <time>2022-02-03T12:54:33Z</time>
      </trkpt>
      <trkpt lat="43.32318" lon="2.7417">
        <ele>43.88</ele>
        <time>2022-02-03T12:54:34Z</time>
      </trkpt>
      <trkpt lat="43.32317" lon="2.74173">
        <ele>43.88</ele>
        <time>2022-02-03T12:54:36Z</time>
      </trkpt>
      <trkpt lat="43.32311" lon="2.74188">
        <ele>43.88</ele>
        <time>2022-02-03T12:54:48Z</time>
      </trkpt>
      <trkpt lat="43.32295" lon="2.74206">
        <ele>43.88</ele>
        <time>2022-02-03T12:55:03Z</time>
      </trkpt>
      <trkpt lat="43.32278" lon="2.74221">
        <ele>44.36</ele>
        <time>2022-02-03T12:55:18Z</time>
      </trkpt>
      <trkpt lat="43.32273" lon="2.74223">
        <ele>42.92</ele>
        <time>2022-02-03T12:55:22Z</time>
      </trkpt>
      <trkpt lat="43.32255" lon="2.74236">
        <ele>41.47</ele>
        <time>2022-02-03T12:55:35Z</time>
      </trkpt>
      <trkpt lat="43.32245" lon="2.74262">
        <ele>39.55</ele>
        <time>2022-02-03T12:55:51Z</time>
      </trkpt>
      <trkpt lat="43.32231" lon="2.74303">
        <ele>38.11</ele>
        <time>2022-02-03T12:56:12Z</time>
      </trkpt>
      <trkpt lat="43.32218" lon="2.74337">
        <ele>37.63</ele>
        <time>2022-02-03T12:56:31Z</time>
      </trkpt>
      <trkpt lat="43.32211" lon="2.74354">
        <ele>38.59</ele>
        <time>2022-02-03T12:56:39Z</time>
      </trkpt>
      <trkpt lat="43.32208" lon="2.74363">
        <ele>37.15</ele>
        <time>2022-02-03T12:56:44Z</time>
      </trkpt>
      <trkpt lat="43.32202" lon="2.74372">
        <ele>38.59</ele>
        <time>2022-02-03T12:56:52Z</time>
      </trkpt>
      <trkpt lat="43.322" lon="2.74376">
        <ele>37.15</ele>
        <time>2022-02-03T12:56:55Z</time>
      </trkpt>
      <trkpt lat="43.32199" lon="2.74384">
        <ele>38.59</ele>
        <time>2022-02-03T12:57:00Z</time>
      </trkpt>
      <trkpt lat="43.3221" lon="2.74399">
        <ele>39.07</ele>
        <time>2022-02-03T12:57:10Z</time>
      </trkpt>
      <trkpt lat="43.32213" lon="2.74406">
        <ele>39.07</ele>
        <time>2022-02-03T12:57:18Z</time>
      </trkpt>
      <trkpt lat="43.32213" lon="2.74407">
        <ele>39.55</ele>
        <time>2022-02-03T12:57:19Z</time>
      </trkpt>
      <trkpt lat="43.32219" lon="2.74426">
        <ele>40.03</ele>
        <time>2022-02-03T12:57:34Z</time>
      </trkpt>
      <trkpt lat="43.32218" lon="2.74429">
        <ele>40.03</ele>
        <time>2022-02-03T12:57:37Z</time>
      </trkpt>
      <trkpt lat="43.32219" lon="2.74433">
        <ele>41.47</ele>
        <time>2022-02-03T12:57:39Z</time>
      </trkpt>
      <trkpt lat="43.32221" lon="2.74461">
        <ele>41.95</ele>
        <time>2022-02-03T12:57:56Z</time>
      </trkpt>
      <trkpt lat="43.32224" lon="2.74479">
        <ele>42.44</ele>
        <time>2022-02-03T12:58:07Z</time>
      </trkpt>
      <trkpt lat="43.32233" lon="2.74518">
        <ele>43.4</ele>
        <time>2022-02-03T12:58:26Z</time>
      </trkpt>
      <trkpt lat="43.32238" lon="2.74546">
        <ele>44.84</ele>
        <time>2022-02-03T12:58:40Z</time>
      </trkpt>
      <trkpt lat="43.32238" lon="2.74552">
        <ele>44.84</ele>
        <time>2022-02-03T12:58:47Z</time>
      </trkpt>
      <trkpt lat="43.32238" lon="2.74554">
        <ele>43.88</ele>
        <time>2022-02-03T12:58:48Z</time>
      </trkpt>
      <trkpt lat="43.32239" lon="2.74556">
        <ele>43.88</ele>
        <time>2022-02-03T12:58:49Z</time>
      </trkpt>
      <trkpt lat="43.32242" lon="2.74583">
        <ele>45.8</ele>
        <time>2022-02-03T12:59:03Z</time>
      </trkpt>
      <trkpt lat="43.32243" lon="2.74589">
        <ele>44.36</ele>
        <time>2022-02-03T12:59:06Z</time>
      </trkpt>
      <trkpt lat="43.32245" lon="2.74594">
        <ele>45.8</ele>
        <time>2022-02-03T12:59:08Z</time>
      </trkpt>
      <trkpt lat="43.32253" lon="2.74622">
        <ele>46.28</ele>
        <time>2022-02-03T12:59:22Z</time>
      </trkpt>
      <trkpt lat="43.32256" lon="2.7464">
        <ele>47.72</ele>
        <time>2022-02-03T12:59:34Z</time>
      </trkpt>
      <trkpt lat="43.32258" lon="2.74659">
        <ele>48.68</ele>
        <time>2022-02-03T12:59:48Z</time>
      </trkpt>
      <trkpt lat="43.32258" lon="2.7466">
        <ele>48.68</ele>
        <time>2022-02-03T12:59:49Z</time>
      </trkpt>
      <trkpt lat="43.32268" lon="2.74676">
        <ele>51.09</ele>
        <time>2022-02-03T12:59:59Z</time>
      </trkpt>
      <trkpt lat="43.32271" lon="2.7468">
        <ele>51.57</ele>
        <time>2022-02-03T13:00:03Z</time>
      </trkpt>
      <trkpt lat="43.32278" lon="2.74697">
        <ele>53.01</ele>
        <time>2022-02-03T13:00:16Z</time>
      </trkpt>
      <trkpt lat="43.3228" lon="2.74698">
        <ele>53.01</ele>
        <time>2022-02-03T13:00:18Z</time>
      </trkpt>
      <trkpt lat="43.32287" lon="2.74704">
        <ele>54.45</ele>
        <time>2022-02-03T13:00:27Z</time>
      </trkpt>
      <trkpt lat="43.32288" lon="2.74705">
        <ele>54.45</ele>
        <time>2022-02-03T13:00:28Z</time>
      </trkpt>
      <trkpt lat="43.32289" lon="2.74707">
        <ele>54.45</ele>
        <time>2022-02-03T13:00:29Z</time>
      </trkpt>
      <trkpt lat="43.32291" lon="2.74711">
        <ele>55.41</ele>
        <time>2022-02-03T13:00:36Z</time>
      </trkpt>
      <trkpt lat="43.32292" lon="2.74713">
        <ele>55.89</ele>
        <time>2022-02-03T13:00:37Z</time>
      </trkpt>
      <trkpt lat="43.32297" lon="2.74723">
        <ele>57.34</ele>
        <time>2022-02-03T13:00:47Z</time>
      </trkpt>
      <trkpt lat="43.32304" lon="2.74727">
        <ele>58.78</ele>
        <time>2022-02-03T13:00:54Z</time>
      </trkpt>
      <trkpt lat="43.32305" lon="2.74727">
        <ele>58.78</ele>
        <time>2022-02-03T13:00:55Z</time>
      </trkpt>
      <trkpt lat="43.32313" lon="2.74734">
        <ele>59.74</ele>
        <time>2022-02-03T13:01:06Z</time>
      </trkpt>
      <trkpt lat="43.32314" lon="2.74736">
        <ele>60.22</ele>
        <time>2022-02-03T13:01:07Z</time>
      </trkpt>
      <trkpt lat="43.32315" lon="2.74737">
        <ele>60.22</ele>
        <time>2022-02-03T13:01:08Z</time>
      </trkpt>
      <trkpt lat="43.32321" lon="2.74743">
        <ele>61.66</ele>
        <time>2022-02-03T13:01:15Z</time>
      </trkpt>
      <trkpt lat="43.32322" lon="2.74745">
        <ele>61.66</ele>
        <time>2022-02-03T13:01:16Z</time>
      </trkpt>
      <trkpt lat="43.32323" lon="2.74746">
        <ele>61.66</ele>
        <time>2022-02-03T13:01:17Z</time>
      </trkpt>
      <trkpt lat="43.32324" lon="2.74747">
        <ele>62.14</ele>
        <time>2022-02-03T13:01:18Z</time>
      </trkpt>
      <trkpt lat="43.3233" lon="2.74755">
        <ele>62.62</ele>
        <time>2022-02-03T13:01:27Z</time>
      </trkpt>
      <trkpt lat="43.32331" lon="2.74757">
        <ele>62.62</ele>
        <time>2022-02-03T13:01:28Z</time>
      </trkpt>
      <trkpt lat="43.32335" lon="2.74764">
        <ele>62.62</ele>
        <time>2022-02-03T13:01:33Z</time>
      </trkpt>
      <trkpt lat="43.32336" lon="2.74765">
        <ele>62.62</ele>
        <time>2022-02-03T13:01:34Z</time>
      </trkpt>
      <trkpt lat="43.32337" lon="2.74769">
        <ele>62.62</ele>
        <time>2022-02-03T13:01:39Z</time>
      </trkpt>
      <trkpt lat="43.32339" lon="2.74773">
        <ele>61.66</ele>
        <time>2022-02-03T13:01:42Z</time>
      </trkpt>
      <trkpt lat="43.3234" lon="2.74774">
        <ele>61.66</ele>
        <time>2022-02-03T13:01:43Z</time>
      </trkpt>
      <trkpt lat="43.32341" lon="2.74776">
        <ele>61.18</ele>
        <time>2022-02-03T13:01:44Z</time>
      </trkpt>
      <trkpt lat="43.32343" lon="2.74778">
        <ele>61.18</ele>
        <time>2022-02-03T13:01:45Z</time>
      </trkpt>
      <trkpt lat="43.32344" lon="2.74778">
        <ele>61.18</ele>
        <time>2022-02-03T13:01:46Z</time>
      </trkpt>
      <trkpt lat="43.32345" lon="2.74779">
        <ele>61.18</ele>
        <time>2022-02-03T13:01:47Z</time>
      </trkpt>
      <trkpt lat="43.32347" lon="2.7478">
        <ele>61.18</ele>
        <time>2022-02-03T13:01:48Z</time>
      </trkpt>
      <trkpt lat="43.32362" lon="2.74788">
        <ele>60.7</ele>
        <time>2022-02-03T13:02:04Z</time>
      </trkpt>
      <trkpt lat="43.32376" lon="2.74796">
        <ele>59.26</ele>
        <time>2022-02-03T13:02:20Z</time>
      </trkpt>
      <trkpt lat="43.32398" lon="2.74797">
        <ele>58.78</ele>
        <time>2022-02-03T13:02:37Z</time>
      </trkpt>
      <trkpt lat="43.324" lon="2.74797">
        <ele>58.78</ele>
        <time>2022-02-03T13:02:38Z</time>
      </trkpt>
      <trkpt lat="43.32401" lon="2.74796">
        <ele>58.78</ele>
        <time>2022-02-03T13:02:39Z</time>
      </trkpt>
      <trkpt lat="43.32403" lon="2.74795">
        <ele>58.78</ele>
        <time>2022-02-03T13:02:40Z</time>
      </trkpt>
      <trkpt lat="43.32404" lon="2.74794">
        <ele>58.78</ele>
        <time>2022-02-03T13:02:41Z</time>
      </trkpt>
      <trkpt lat="43.32405" lon="2.74793">
        <ele>58.78</ele>
        <time>2022-02-03T13:02:42Z</time>
      </trkpt>
      <trkpt lat="43.32416" lon="2.7477">
        <ele>60.22</ele>
        <time>2022-02-03T13:02:53Z</time>
      </trkpt>
      <trkpt lat="43.32418" lon="2.74769">
        <ele>60.22</ele>
        <time>2022-02-03T13:02:54Z</time>
      </trkpt>
      <trkpt lat="43.32421" lon="2.74765">
        <ele>61.18</ele>
        <time>2022-02-03T13:03:02Z</time>
      </trkpt>
      <trkpt lat="43.32422" lon="2.74763">
        <ele>61.66</ele>
        <time>2022-02-03T13:03:03Z</time>
      </trkpt>
      <trkpt lat="43.32421" lon="2.7476">
        <ele>61.66</ele>
        <time>2022-02-03T13:03:04Z</time>
      </trkpt>
      <trkpt lat="43.32421" lon="2.74758">
        <ele>61.66</ele>
        <time>2022-02-03T13:03:05Z</time>
      </trkpt>
      <trkpt lat="43.32421" lon="2.74756">
        <ele>61.66</ele>
        <time>2022-02-03T13:03:06Z</time>
      </trkpt>
      <trkpt lat="43.32421" lon="2.74755">
        <ele>62.14</ele>
        <time>2022-02-03T13:03:07Z</time>
      </trkpt>
      <trkpt lat="43.32422" lon="2.74754">
        <ele>62.14</ele>
        <time>2022-02-03T13:03:08Z</time>
      </trkpt>
      <trkpt lat="43.32429" lon="2.74755">
        <ele>62.14</ele>
        <time>2022-02-03T13:03:14Z</time>
      </trkpt>
      <trkpt lat="43.3243" lon="2.74756">
        <ele>62.62</ele>
        <time>2022-02-03T13:03:15Z</time>
      </trkpt>
      <trkpt lat="43.32443" lon="2.74782">
        <ele>61.18</ele>
        <time>2022-02-03T13:03:34Z</time>
      </trkpt>
      <trkpt lat="43.32464" lon="2.74818">
        <ele>61.18</ele>
        <time>2022-02-03T13:03:55Z</time>
      </trkpt>
      <trkpt lat="43.32478" lon="2.74844">
        <ele>60.22</ele>
        <time>2022-02-03T13:04:14Z</time>
      </trkpt>
      <trkpt lat="43.3248" lon="2.74848">
        <ele>62.14</ele>
        <time>2022-02-03T13:04:17Z</time>
      </trkpt>
      <trkpt lat="43.32494" lon="2.74874">
        <ele>62.14</ele>
        <time>2022-02-03T13:04:37Z</time>
      </trkpt>
      <trkpt lat="43.32495" lon="2.74876">
        <ele>62.14</ele>
        <time>2022-02-03T13:04:38Z</time>
      </trkpt>
      <trkpt lat="43.32515" lon="2.74905">
        <ele>64.07</ele>
        <time>2022-02-03T13:04:59Z</time>
      </trkpt>
      <trkpt lat="43.32528" lon="2.74927">
        <ele>64.07</ele>
        <time>2022-02-03T13:05:13Z</time>
      </trkpt>
      <trkpt lat="43.3253" lon="2.74935">
        <ele>65.51</ele>
        <time>2022-02-03T13:05:17Z</time>
      </trkpt>
      <trkpt lat="43.32529" lon="2.74948">
        <ele>67.43</ele>
        <time>2022-02-03T13:05:29Z</time>
      </trkpt>
      <trkpt lat="43.32529" lon="2.74948">
        <ele>67.43</ele>
        <time>2022-02-03T13:05:30Z</time>
      </trkpt>
      <trkpt lat="43.32536" lon="2.74928">
        <ele>68.39</ele>
        <time>2022-02-03T13:05:43Z</time>
      </trkpt>
      <trkpt lat="43.32537" lon="2.74926">
        <ele>68.39</ele>
        <time>2022-02-03T13:05:44Z</time>
      </trkpt>
      <trkpt lat="43.32543" lon="2.74908">
        <ele>70.79</ele>
        <time>2022-02-03T13:05:56Z</time>
      </trkpt>
      <trkpt lat="43.32548" lon="2.74906">
        <ele>71.76</ele>
        <time>2022-02-03T13:06:03Z</time>
      </trkpt>
      <trkpt lat="43.3255" lon="2.74905">
        <ele>71.76</ele>
        <time>2022-02-03T13:06:04Z</time>
      </trkpt>
      <trkpt lat="43.32556" lon="2.74904">
        <ele>72.24</ele>
        <time>2022-02-03T13:06:10Z</time>
      </trkpt>
      <trkpt lat="43.32557" lon="2.74904">
        <ele>72.24</ele>
        <time>2022-02-03T13:06:11Z</time>
      </trkpt>
      <trkpt lat="43.32561" lon="2.7491">
        <ele>73.2</ele>
        <time>2022-02-03T13:06:19Z</time>
      </trkpt>
      <trkpt lat="43.32561" lon="2.74912">
        <ele>73.2</ele>
        <time>2022-02-03T13:06:20Z</time>
      </trkpt>
      <trkpt lat="43.32562" lon="2.74917">
        <ele>73.68</ele>
        <time>2022-02-03T13:06:24Z</time>
      </trkpt>
      <trkpt lat="43.32562" lon="2.7492">
        <ele>73.68</ele>
        <time>2022-02-03T13:06:28Z</time>
      </trkpt>
      <trkpt lat="43.32562" lon="2.74923">
        <ele>74.16</ele>
        <time>2022-02-03T13:06:29Z</time>
      </trkpt>
      <trkpt lat="43.32559" lon="2.74938">
        <ele>75.12</ele>
        <time>2022-02-03T13:06:40Z</time>
      </trkpt>
      <trkpt lat="43.3256" lon="2.74942">
        <ele>76.08</ele>
        <time>2022-02-03T13:06:43Z</time>
      </trkpt>
      <trkpt lat="43.3256" lon="2.74943">
        <ele>76.08</ele>
        <time>2022-02-03T13:06:44Z</time>
      </trkpt>
      <trkpt lat="43.32561" lon="2.74945">
        <ele>76.56</ele>
        <time>2022-02-03T13:06:45Z</time>
      </trkpt>
      <trkpt lat="43.32563" lon="2.74951">
        <ele>77.04</ele>
        <time>2022-02-03T13:06:50Z</time>
      </trkpt>
      <trkpt lat="43.32565" lon="2.74952">
        <ele>77.04</ele>
        <time>2022-02-03T13:06:51Z</time>
      </trkpt>
      <trkpt lat="43.32566" lon="2.74953">
        <ele>77.04</ele>
        <time>2022-02-03T13:06:52Z</time>
      </trkpt>
      <trkpt lat="43.32568" lon="2.74954">
        <ele>77.04</ele>
        <time>2022-02-03T13:06:53Z</time>
      </trkpt>
      <trkpt lat="43.32569" lon="2.74956">
        <ele>77.04</ele>
        <time>2022-02-03T13:06:54Z</time>
      </trkpt>
      <trkpt lat="43.32572" lon="2.74959">
        <ele>77.04</ele>
        <time>2022-02-03T13:06:59Z</time>
      </trkpt>
      <trkpt lat="43.32573" lon="2.74959">
        <ele>77.04</ele>
        <time>2022-02-03T13:07:00Z</time>
      </trkpt>
      <trkpt lat="43.32575" lon="2.74962">
        <ele>78</ele>
        <time>2022-02-03T13:07:05Z</time>
      </trkpt>
      <trkpt lat="43.32576" lon="2.74962">
        <ele>78</ele>
        <time>2022-02-03T13:07:06Z</time>
      </trkpt>
      <trkpt lat="43.32579" lon="2.74964">
        <ele>78.48</ele>
        <time>2022-02-03T13:07:13Z</time>
      </trkpt>
      <trkpt lat="43.32582" lon="2.74969">
        <ele>78.97</ele>
        <time>2022-02-03T13:07:24Z</time>
      </trkpt>
      <trkpt lat="43.32583" lon="2.7497">
        <ele>78.97</ele>
        <time>2022-02-03T13:07:25Z</time>
      </trkpt>
      <trkpt lat="43.32584" lon="2.74972">
        <ele>78.97</ele>
        <time>2022-02-03T13:07:26Z</time>
      </trkpt>
      <trkpt lat="43.32588" lon="2.74975">
        <ele>77.52</ele>
        <time>2022-02-03T13:07:35Z</time>
      </trkpt>
      <trkpt lat="43.32589" lon="2.74976">
        <ele>77.52</ele>
        <time>2022-02-03T13:07:36Z</time>
      </trkpt>
      <trkpt lat="43.3259" lon="2.74977">
        <ele>77.04</ele>
        <time>2022-02-03T13:07:37Z</time>
      </trkpt>
      <trkpt lat="43.32591" lon="2.74978">
        <ele>77.04</ele>
        <time>2022-02-03T13:07:38Z</time>
      </trkpt>
      <trkpt lat="43.32604" lon="2.75003">
        <ele>76.08</ele>
        <time>2022-02-03T13:07:53Z</time>
      </trkpt>
      <trkpt lat="43.32602" lon="2.75023">
        <ele>75.12</ele>
        <time>2022-02-03T13:08:04Z</time>
      </trkpt>
      <trkpt lat="43.32604" lon="2.75026">
        <ele>75.12</ele>
        <time>2022-02-03T13:08:06Z</time>
      </trkpt>
      <trkpt lat="43.3261" lon="2.75037">
        <ele>75.6</ele>
        <time>2022-02-03T13:08:16Z</time>
      </trkpt>
      <trkpt lat="43.32617" lon="2.75042">
        <ele>77.04</ele>
        <time>2022-02-03T13:08:24Z</time>
      </trkpt>
      <trkpt lat="43.32618" lon="2.75042">
        <ele>77.04</ele>
        <time>2022-02-03T13:08:25Z</time>
      </trkpt>
      <trkpt lat="43.32619" lon="2.75041">
        <ele>77.04</ele>
        <time>2022-02-03T13:08:26Z</time>
      </trkpt>
      <trkpt lat="43.32621" lon="2.7504">
        <ele>77.52</ele>
        <time>2022-02-03T13:08:27Z</time>
      </trkpt>
      <trkpt lat="43.32622" lon="2.75039">
        <ele>77.52</ele>
        <time>2022-02-03T13:08:28Z</time>
      </trkpt>
      <trkpt lat="43.32623" lon="2.75039">
        <ele>78</ele>
        <time>2022-02-03T13:08:29Z</time>
      </trkpt>
      <trkpt lat="43.32627" lon="2.75039">
        <ele>79.45</ele>
        <time>2022-02-03T13:08:37Z</time>
      </trkpt>
      <trkpt lat="43.3264" lon="2.7504">
        <ele>80.41</ele>
        <time>2022-02-03T13:08:49Z</time>
      </trkpt>
      <trkpt lat="43.32642" lon="2.75041">
        <ele>80.41</ele>
        <time>2022-02-03T13:08:51Z</time>
      </trkpt>
      <trkpt lat="43.32644" lon="2.75043">
        <ele>81.37</ele>
        <time>2022-02-03T13:08:53Z</time>
      </trkpt>
      <trkpt lat="43.32645" lon="2.75044">
        <ele>81.37</ele>
        <time>2022-02-03T13:08:54Z</time>
      </trkpt>
      <trkpt lat="43.32659" lon="2.75052">
        <ele>81.37</ele>
        <time>2022-02-03T13:09:05Z</time>
      </trkpt>
      <trkpt lat="43.3267" lon="2.75061">
        <ele>82.33</ele>
        <time>2022-02-03T13:09:14Z</time>
      </trkpt>
      <trkpt lat="43.32684" lon="2.75072">
        <ele>83.77</ele>
        <time>2022-02-03T13:09:26Z</time>
      </trkpt>
      <trkpt lat="43.32693" lon="2.75083">
        <ele>85.69</ele>
        <time>2022-02-03T13:09:39Z</time>
      </trkpt>
      <trkpt lat="43.32694" lon="2.75085">
        <ele>85.69</ele>
        <time>2022-02-03T13:09:41Z</time>
      </trkpt>
      <trkpt lat="43.32694" lon="2.75087">
        <ele>85.69</ele>
        <time>2022-02-03T13:09:42Z</time>
      </trkpt>
      <trkpt lat="43.32694" lon="2.75095">
        <ele>86.66</ele>
        <time>2022-02-03T13:09:48Z</time>
      </trkpt>
      <trkpt lat="43.32693" lon="2.75096">
        <ele>87.14</ele>
        <time>2022-02-03T13:09:49Z</time>
      </trkpt>
      <trkpt lat="43.32692" lon="2.75098">
        <ele>87.14</ele>
        <time>2022-02-03T13:09:50Z</time>
      </trkpt>
      <trkpt lat="43.32687" lon="2.75115">
        <ele>87.62</ele>
        <time>2022-02-03T13:10:02Z</time>
      </trkpt>
      <trkpt lat="43.32682" lon="2.75134">
        <ele>88.1</ele>
        <time>2022-02-03T13:10:13Z</time>
      </trkpt>
      <trkpt lat="43.32678" lon="2.75149">
        <ele>88.58</ele>
        <time>2022-02-03T13:10:24Z</time>
      </trkpt>
      <trkpt lat="43.32675" lon="2.75158">
        <ele>88.58</ele>
        <time>2022-02-03T13:10:30Z</time>
      </trkpt>
      <trkpt lat="43.32675" lon="2.7516">
        <ele>88.58</ele>
        <time>2022-02-03T13:10:31Z</time>
      </trkpt>
      <trkpt lat="43.32674" lon="2.75162">
        <ele>88.58</ele>
        <time>2022-02-03T13:10:32Z</time>
      </trkpt>
      <trkpt lat="43.32673" lon="2.75164">
        <ele>88.58</ele>
        <time>2022-02-03T13:10:33Z</time>
      </trkpt>
      <trkpt lat="43.32673" lon="2.75167">
        <ele>88.58</ele>
        <time>2022-02-03T13:10:34Z</time>
      </trkpt>
      <trkpt lat="43.32672" lon="2.7517">
        <ele>87.62</ele>
        <time>2022-02-03T13:10:35Z</time>
      </trkpt>
      <trkpt lat="43.32672" lon="2.75172">
        <ele>87.62</ele>
        <time>2022-02-03T13:10:36Z</time>
      </trkpt>
      <trkpt lat="43.32671" lon="2.75174">
        <ele>87.62</ele>
        <time>2022-02-03T13:10:37Z</time>
      </trkpt>
      <trkpt lat="43.32671" lon="2.75176">
        <ele>87.62</ele>
        <time>2022-02-03T13:10:38Z</time>
      </trkpt>
      <trkpt lat="43.32675" lon="2.75194">
        <ele>88.1</ele>
        <time>2022-02-03T13:10:51Z</time>
      </trkpt>
      <trkpt lat="43.32675" lon="2.75195">
        <ele>88.1</ele>
        <time>2022-02-03T13:10:52Z</time>
      </trkpt>
      <trkpt lat="43.32676" lon="2.75197">
        <ele>88.1</ele>
        <time>2022-02-03T13:10:53Z</time>
      </trkpt>
      <trkpt lat="43.32684" lon="2.7521">
        <ele>89.54</ele>
        <time>2022-02-03T13:11:03Z</time>
      </trkpt>
      <trkpt lat="43.32693" lon="2.7522">
        <ele>90.98</ele>
        <time>2022-02-03T13:11:13Z</time>
      </trkpt>
      <trkpt lat="43.32695" lon="2.75221">
        <ele>90.98</ele>
        <time>2022-02-03T13:11:14Z</time>
      </trkpt>
      <trkpt lat="43.32696" lon="2.75222">
        <ele>90.98</ele>
        <time>2022-02-03T13:11:15Z</time>
      </trkpt>
      <trkpt lat="43.32701" lon="2.75227">
        <ele>92.42</ele>
        <time>2022-02-03T13:11:23Z</time>
      </trkpt>
      <trkpt lat="43.32703" lon="2.75227">
        <ele>92.42</ele>
        <time>2022-02-03T13:11:24Z</time>
      </trkpt>
      <trkpt lat="43.3271" lon="2.75223">
        <ele>93.39</ele>
        <time>2022-02-03T13:11:35Z</time>
      </trkpt>
      <trkpt lat="43.32711" lon="2.75221">
        <ele>93.39</ele>
        <time>2022-02-03T13:11:36Z</time>
      </trkpt>
      <trkpt lat="43.32712" lon="2.7522">
        <ele>93.39</ele>
        <time>2022-02-03T13:11:37Z</time>
      </trkpt>
      <trkpt lat="43.32713" lon="2.75219">
        <ele>93.87</ele>
        <time>2022-02-03T13:11:38Z</time>
      </trkpt>
      <trkpt lat="43.32716" lon="2.75217">
        <ele>93.87</ele>
        <time>2022-02-03T13:11:42Z</time>
      </trkpt>
      <trkpt lat="43.32718" lon="2.75216">
        <ele>94.35</ele>
        <time>2022-02-03T13:11:43Z</time>
      </trkpt>
      <trkpt lat="43.32719" lon="2.75214">
        <ele>94.83</ele>
        <time>2022-02-03T13:11:44Z</time>
      </trkpt>
      <trkpt lat="43.32727" lon="2.752">
        <ele>96.27</ele>
        <time>2022-02-03T13:11:56Z</time>
      </trkpt>
      <trkpt lat="43.32732" lon="2.75192">
        <ele>98.67</ele>
        <time>2022-02-03T13:12:02Z</time>
      </trkpt>
      <trkpt lat="43.32735" lon="2.75189">
        <ele>97.23</ele>
        <time>2022-02-03T13:12:04Z</time>
      </trkpt>
      <trkpt lat="43.32741" lon="2.75177">
        <ele>98.67</ele>
        <time>2022-02-03T13:12:11Z</time>
      </trkpt>
      <trkpt lat="43.32746" lon="2.75168">
        <ele>99.63</ele>
        <time>2022-02-03T13:12:21Z</time>
      </trkpt>
      <trkpt lat="43.32747" lon="2.75166">
        <ele>99.63</ele>
        <time>2022-02-03T13:12:22Z</time>
      </trkpt>
      <trkpt lat="43.32754" lon="2.75165">
        <ele>102.52</ele>
        <time>2022-02-03T13:12:37Z</time>
      </trkpt>
      <trkpt lat="43.32756" lon="2.75166">
        <ele>102.52</ele>
        <time>2022-02-03T13:12:39Z</time>
      </trkpt>
      <trkpt lat="43.32759" lon="2.75159">
        <ele>104.44</ele>
        <time>2022-02-03T13:12:47Z</time>
      </trkpt>
      <trkpt lat="43.32759" lon="2.75157">
        <ele>104.92</ele>
        <time>2022-02-03T13:12:48Z</time>
      </trkpt>
      <trkpt lat="43.32759" lon="2.75156">
        <ele>104.92</ele>
        <time>2022-02-03T13:12:49Z</time>
      </trkpt>
      <trkpt lat="43.3276" lon="2.75135">
        <ele>105.88</ele>
        <time>2022-02-03T13:13:04Z</time>
      </trkpt>
      <trkpt lat="43.32761" lon="2.75115">
        <ele>106.36</ele>
        <time>2022-02-03T13:13:17Z</time>
      </trkpt>
      <trkpt lat="43.32757" lon="2.75098">
        <ele>105.4</ele>
        <time>2022-02-03T13:13:27Z</time>
      </trkpt>
      <trkpt lat="43.3276" lon="2.75091">
        <ele>104.92</ele>
        <time>2022-02-03T13:13:33Z</time>
      </trkpt>
      <trkpt lat="43.32763" lon="2.75074">
        <ele>104.92</ele>
        <time>2022-02-03T13:13:45Z</time>
      </trkpt>
      <trkpt lat="43.32764" lon="2.75071">
        <ele>104.92</ele>
        <time>2022-02-03T13:13:48Z</time>
      </trkpt>
      <trkpt lat="43.32764" lon="2.75067">
        <ele>104.92</ele>
        <time>2022-02-03T13:13:50Z</time>
      </trkpt>
      <trkpt lat="43.32773" lon="2.75045">
        <ele>106.36</ele>
        <time>2022-02-03T13:14:04Z</time>
      </trkpt>
      <trkpt lat="43.32783" lon="2.75027">
        <ele>106.36</ele>
        <time>2022-02-03T13:14:16Z</time>
      </trkpt>
      <trkpt lat="43.32786" lon="2.75005">
        <ele>106.36</ele>
        <time>2022-02-03T13:14:28Z</time>
      </trkpt>
      <trkpt lat="43.32786" lon="2.75003">
        <ele>106.36</ele>
        <time>2022-02-03T13:14:30Z</time>
      </trkpt>
      <trkpt lat="43.32789" lon="2.7499">
        <ele>106.84</ele>
        <time>2022-02-03T13:14:40Z</time>
      </trkpt>
      <trkpt lat="43.32789" lon="2.74982">
        <ele>106.84</ele>
        <time>2022-02-03T13:14:44Z</time>
      </trkpt>
      <trkpt lat="43.3279" lon="2.74975">
        <ele>106.84</ele>
        <time>2022-02-03T13:14:48Z</time>
      </trkpt>
      <trkpt lat="43.32793" lon="2.74958">
        <ele>105.88</ele>
        <time>2022-02-03T13:14:56Z</time>
      </trkpt>
      <trkpt lat="43.32799" lon="2.74939">
        <ele>105.88</ele>
        <time>2022-02-03T13:15:09Z</time>
      </trkpt>
      <trkpt lat="43.328" lon="2.74935">
        <ele>105.88</ele>
        <time>2022-02-03T13:15:11Z</time>
      </trkpt>
      <trkpt lat="43.32803" lon="2.74934">
        <ele>107.81</ele>
        <time>2022-02-03T13:15:13Z</time>
      </trkpt>
      <trkpt lat="43.32819" lon="2.74934">
        <ele>108.77</ele>
        <time>2022-02-03T13:15:29Z</time>
      </trkpt>
      <trkpt lat="43.32837" lon="2.74939">
        <ele>108.77</ele>
        <time>2022-02-03T13:15:47Z</time>
      </trkpt>
      <trkpt lat="43.32848" lon="2.74932">
        <ele>110.69</ele>
        <time>2022-02-03T13:16:01Z</time>
      </trkpt>
      <trkpt lat="43.3285" lon="2.7493">
        <ele>110.69</ele>
        <time>2022-02-03T13:16:03Z</time>
      </trkpt>
      <trkpt lat="43.32857" lon="2.74926">
        <ele>111.17</ele>
        <time>2022-02-03T13:16:11Z</time>
      </trkpt>
      <trkpt lat="43.32867" lon="2.74926">
        <ele>112.13</ele>
        <time>2022-02-03T13:16:19Z</time>
      </trkpt>
      <trkpt lat="43.32882" lon="2.74932">
        <ele>113.57</ele>
        <time>2022-02-03T13:16:32Z</time>
      </trkpt>
      <trkpt lat="43.32883" lon="2.74933">
        <ele>113.57</ele>
        <time>2022-02-03T13:16:33Z</time>
      </trkpt>
      <trkpt lat="43.32901" lon="2.74936">
        <ele>114.05</ele>
        <time>2022-02-03T13:16:46Z</time>
      </trkpt>
      <trkpt lat="43.32903" lon="2.74936">
        <ele>114.05</ele>
        <time>2022-02-03T13:16:47Z</time>
      </trkpt>
      <trkpt lat="43.32904" lon="2.74935">
        <ele>114.53</ele>
        <time>2022-02-03T13:16:48Z</time>
      </trkpt>
      <trkpt lat="43.32906" lon="2.74934">
        <ele>115.01</ele>
        <time>2022-02-03T13:16:50Z</time>
      </trkpt>
      <trkpt lat="43.32907" lon="2.74933">
        <ele>115.01</ele>
        <time>2022-02-03T13:16:51Z</time>
      </trkpt>
      <trkpt lat="43.32909" lon="2.74931">
        <ele>115.01</ele>
        <time>2022-02-03T13:16:54Z</time>
      </trkpt>
      <trkpt lat="43.32911" lon="2.74931">
        <ele>115.01</ele>
        <time>2022-02-03T13:16:55Z</time>
      </trkpt>
      <trkpt lat="43.32925" lon="2.74926">
        <ele>115.5</ele>
        <time>2022-02-03T13:17:09Z</time>
      </trkpt>
      <trkpt lat="43.32938" lon="2.74923">
        <ele>115.98</ele>
        <time>2022-02-03T13:17:18Z</time>
      </trkpt>
      <trkpt lat="43.32939" lon="2.74922">
        <ele>116.46</ele>
        <time>2022-02-03T13:17:19Z</time>
      </trkpt>
      <trkpt lat="43.3294" lon="2.74921">
        <ele>116.46</ele>
        <time>2022-02-03T13:17:20Z</time>
      </trkpt>
      <trkpt lat="43.32941" lon="2.74919">
        <ele>116.46</ele>
        <time>2022-02-03T13:17:21Z</time>
      </trkpt>
      <trkpt lat="43.32943" lon="2.74918">
        <ele>116.94</ele>
        <time>2022-02-03T13:17:22Z</time>
      </trkpt>
      <trkpt lat="43.32946" lon="2.74916">
        <ele>117.42</ele>
        <time>2022-02-03T13:17:27Z</time>
      </trkpt>
      <trkpt lat="43.32947" lon="2.74915">
        <ele>117.42</ele>
        <time>2022-02-03T13:17:28Z</time>
      </trkpt>
      <trkpt lat="43.32951" lon="2.74915">
        <ele>117.9</ele>
        <time>2022-02-03T13:17:31Z</time>
      </trkpt>
      <trkpt lat="43.32952" lon="2.74916">
        <ele>117.9</ele>
        <time>2022-02-03T13:17:32Z</time>
      </trkpt>
      <trkpt lat="43.32957" lon="2.74919">
        <ele>118.86</ele>
        <time>2022-02-03T13:17:44Z</time>
      </trkpt>
      <trkpt lat="43.32959" lon="2.74924">
        <ele>119.82</ele>
        <time>2022-02-03T13:17:52Z</time>
      </trkpt>
      <trkpt lat="43.32959" lon="2.74928">
        <ele>119.82</ele>
        <time>2022-02-03T13:17:59Z</time>
      </trkpt>
      <trkpt lat="43.32959" lon="2.7493">
        <ele>119.82</ele>
        <time>2022-02-03T13:18:00Z</time>
      </trkpt>
      <trkpt lat="43.32961" lon="2.74947">
        <ele>121.26</ele>
        <time>2022-02-03T13:18:09Z</time>
      </trkpt>
      <trkpt lat="43.32961" lon="2.74949">
        <ele>121.74</ele>
        <time>2022-02-03T13:18:10Z</time>
      </trkpt>
      <trkpt lat="43.32962" lon="2.74951">
        <ele>121.74</ele>
        <time>2022-02-03T13:18:11Z</time>
      </trkpt>
      <trkpt lat="43.32964" lon="2.74963">
        <ele>123.67</ele>
        <time>2022-02-03T13:18:19Z</time>
      </trkpt>
      <trkpt lat="43.32965" lon="2.74979">
        <ele>125.59</ele>
        <time>2022-02-03T13:18:30Z</time>
      </trkpt>
      <trkpt lat="43.32966" lon="2.74981">
        <ele>125.59</ele>
        <time>2022-02-03T13:18:31Z</time>
      </trkpt>
      <trkpt lat="43.32967" lon="2.74984">
        <ele>126.07</ele>
        <time>2022-02-03T13:18:32Z</time>
      </trkpt>
      <trkpt lat="43.3297" lon="2.74999">
        <ele>127.51</ele>
        <time>2022-02-03T13:18:42Z</time>
      </trkpt>
      <trkpt lat="43.32971" lon="2.75001">
        <ele>127.99</ele>
        <time>2022-02-03T13:18:43Z</time>
      </trkpt>
      <trkpt lat="43.32971" lon="2.75003">
        <ele>127.99</ele>
        <time>2022-02-03T13:18:44Z</time>
      </trkpt>
      <trkpt lat="43.32974" lon="2.75017">
        <ele>129.92</ele>
        <time>2022-02-03T13:18:56Z</time>
      </trkpt>
      <trkpt lat="43.32979" lon="2.75038">
        <ele>132.32</ele>
        <time>2022-02-03T13:19:09Z</time>
      </trkpt>
      <trkpt lat="43.32982" lon="2.75054">
        <ele>133.76</ele>
        <time>2022-02-03T13:19:21Z</time>
      </trkpt>
      <trkpt lat="43.32993" lon="2.75084">
        <ele>135.68</ele>
        <time>2022-02-03T13:19:39Z</time>
      </trkpt>
      <trkpt lat="43.32997" lon="2.75093">
        <ele>136.64</ele>
        <time>2022-02-03T13:19:45Z</time>
      </trkpt>
      <trkpt lat="43.32997" lon="2.75094">
        <ele>136.64</ele>
        <time>2022-02-03T13:19:46Z</time>
      </trkpt>
      <trkpt lat="43.32998" lon="2.75097">
        <ele>136.64</ele>
        <time>2022-02-03T13:19:47Z</time>
      </trkpt>
      <trkpt lat="43.33005" lon="2.75116">
        <ele>139.05</ele>
        <time>2022-02-03T13:20:00Z</time>
      </trkpt>
      <trkpt lat="43.33006" lon="2.75125">
        <ele>140.01</ele>
        <time>2022-02-03T13:20:09Z</time>
      </trkpt>
      <trkpt lat="43.33007" lon="2.75127">
        <ele>140.01</ele>
        <time>2022-02-03T13:20:10Z</time>
      </trkpt>
      <trkpt lat="43.33014" lon="2.75148">
        <ele>141.93</ele>
        <time>2022-02-03T13:20:23Z</time>
      </trkpt>
      <trkpt lat="43.33021" lon="2.75171">
        <ele>143.37</ele>
        <time>2022-02-03T13:20:37Z</time>
      </trkpt>
      <trkpt lat="43.33023" lon="2.75185">
        <ele>143.85</ele>
        <time>2022-02-03T13:20:47Z</time>
      </trkpt>
      <trkpt lat="43.33024" lon="2.75187">
        <ele>143.85</ele>
        <time>2022-02-03T13:20:48Z</time>
      </trkpt>
      <trkpt lat="43.33024" lon="2.75188">
        <ele>144.82</ele>
        <time>2022-02-03T13:20:49Z</time>
      </trkpt>
      <trkpt lat="43.33025" lon="2.7519">
        <ele>144.82</ele>
        <time>2022-02-03T13:20:50Z</time>
      </trkpt>
      <trkpt lat="43.33025" lon="2.75192">
        <ele>144.82</ele>
        <time>2022-02-03T13:20:51Z</time>
      </trkpt>
      <trkpt lat="43.33032" lon="2.7521">
        <ele>145.78</ele>
        <time>2022-02-03T13:21:04Z</time>
      </trkpt>
      <trkpt lat="43.33041" lon="2.75234">
        <ele>148.66</ele>
        <time>2022-02-03T13:21:20Z</time>
      </trkpt>
      <trkpt lat="43.33044" lon="2.75249">
        <ele>150.1</ele>
        <time>2022-02-03T13:21:32Z</time>
      </trkpt>
      <trkpt lat="43.33045" lon="2.75251">
        <ele>150.58</ele>
        <time>2022-02-03T13:21:33Z</time>
      </trkpt>
      <trkpt lat="43.33048" lon="2.75259">
        <ele>151.06</ele>
        <time>2022-02-03T13:21:40Z</time>
      </trkpt>
      <trkpt lat="43.33049" lon="2.75261">
        <ele>151.54</ele>
        <time>2022-02-03T13:21:41Z</time>
      </trkpt>
      <trkpt lat="43.33054" lon="2.75279">
        <ele>152.99</ele>
        <time>2022-02-03T13:21:52Z</time>
      </trkpt>
      <trkpt lat="43.3306" lon="2.75293">
        <ele>154.43</ele>
        <time>2022-02-03T13:22:02Z</time>
      </trkpt>
      <trkpt lat="43.33065" lon="2.75307">
        <ele>155.87</ele>
        <time>2022-02-03T13:22:10Z</time>
      </trkpt>
      <trkpt lat="43.33068" lon="2.75321">
        <ele>158.27</ele>
        <time>2022-02-03T13:22:22Z</time>
      </trkpt>
      <trkpt lat="43.33072" lon="2.75336">
        <ele>160.2</ele>
        <time>2022-02-03T13:22:32Z</time>
      </trkpt>
      <trkpt lat="43.33072" lon="2.75339">
        <ele>160.68</ele>
        <time>2022-02-03T13:22:34Z</time>
      </trkpt>
      <trkpt lat="43.33072" lon="2.75341">
        <ele>160.68</ele>
        <time>2022-02-03T13:22:35Z</time>
      </trkpt>
      <trkpt lat="43.33072" lon="2.75343">
        <ele>160.68</ele>
        <time>2022-02-03T13:22:36Z</time>
      </trkpt>
      <trkpt lat="43.33075" lon="2.75351">
        <ele>162.12</ele>
        <time>2022-02-03T13:22:42Z</time>
      </trkpt>
      <trkpt lat="43.33076" lon="2.75353">
        <ele>162.12</ele>
        <time>2022-02-03T13:22:43Z</time>
      </trkpt>
      <trkpt lat="43.3308" lon="2.75364">
        <ele>163.56</ele>
        <time>2022-02-03T13:22:51Z</time>
      </trkpt>
      <trkpt lat="43.3308" lon="2.75366">
        <ele>164.04</ele>
        <time>2022-02-03T13:22:52Z</time>
      </trkpt>
      <trkpt lat="43.33081" lon="2.75368">
        <ele>164.04</ele>
        <time>2022-02-03T13:22:53Z</time>
      </trkpt>
      <trkpt lat="43.33084" lon="2.75383">
        <ele>165.48</ele>
        <time>2022-02-03T13:23:03Z</time>
      </trkpt>
      <trkpt lat="43.33084" lon="2.75393">
        <ele>166.45</ele>
        <time>2022-02-03T13:23:13Z</time>
      </trkpt>
      <trkpt lat="43.33088" lon="2.75412">
        <ele>168.37</ele>
        <time>2022-02-03T13:23:24Z</time>
      </trkpt>
      <trkpt lat="43.33092" lon="2.75422">
        <ele>169.81</ele>
        <time>2022-02-03T13:23:31Z</time>
      </trkpt>
      <trkpt lat="43.33093" lon="2.75423">
        <ele>169.81</ele>
        <time>2022-02-03T13:23:32Z</time>
      </trkpt>
      <trkpt lat="43.33094" lon="2.75426">
        <ele>169.81</ele>
        <time>2022-02-03T13:23:33Z</time>
      </trkpt>
      <trkpt lat="43.33095" lon="2.75428">
        <ele>170.29</ele>
        <time>2022-02-03T13:23:34Z</time>
      </trkpt>
      <trkpt lat="43.33096" lon="2.75431">
        <ele>170.29</ele>
        <time>2022-02-03T13:23:35Z</time>
      </trkpt>
      <trkpt lat="43.33096" lon="2.75433">
        <ele>170.29</ele>
        <time>2022-02-03T13:23:36Z</time>
      </trkpt>
      <trkpt lat="43.33097" lon="2.75436">
        <ele>170.77</ele>
        <time>2022-02-03T13:23:41Z</time>
      </trkpt>
      <trkpt lat="43.33098" lon="2.75438">
        <ele>171.25</ele>
        <time>2022-02-03T13:23:42Z</time>
      </trkpt>
      <trkpt lat="43.33099" lon="2.7544">
        <ele>171.25</ele>
        <time>2022-02-03T13:23:43Z</time>
      </trkpt>
      <trkpt lat="43.331" lon="2.75443">
        <ele>171.25</ele>
        <time>2022-02-03T13:23:44Z</time>
      </trkpt>
      <trkpt lat="43.331" lon="2.75445">
        <ele>171.25</ele>
        <time>2022-02-03T13:23:45Z</time>
      </trkpt>
      <trkpt lat="43.33104" lon="2.75462">
        <ele>173.17</ele>
        <time>2022-02-03T13:23:55Z</time>
      </trkpt>
      <trkpt lat="43.33104" lon="2.75464">
        <ele>173.17</ele>
        <time>2022-02-03T13:23:56Z</time>
      </trkpt>
      <trkpt lat="43.3311" lon="2.7547">
        <ele>174.14</ele>
        <time>2022-02-03T13:24:03Z</time>
      </trkpt>
      <trkpt lat="43.33112" lon="2.75472">
        <ele>174.14</ele>
        <time>2022-02-03T13:24:04Z</time>
      </trkpt>
      <trkpt lat="43.33113" lon="2.75473">
        <ele>174.14</ele>
        <time>2022-02-03T13:24:05Z</time>
      </trkpt>
      <trkpt lat="43.33115" lon="2.75475">
        <ele>174.62</ele>
        <time>2022-02-03T13:24:10Z</time>
      </trkpt>
      <trkpt lat="43.33117" lon="2.75475">
        <ele>175.1</ele>
        <time>2022-02-03T13:24:11Z</time>
      </trkpt>
      <trkpt lat="43.33118" lon="2.75475">
        <ele>175.58</ele>
        <time>2022-02-03T13:24:12Z</time>
      </trkpt>
      <trkpt lat="43.33119" lon="2.75474">
        <ele>175.58</ele>
        <time>2022-02-03T13:24:13Z</time>
      </trkpt>
      <trkpt lat="43.33122" lon="2.75473">
        <ele>176.06</ele>
        <time>2022-02-03T13:24:17Z</time>
      </trkpt>
      <trkpt lat="43.33123" lon="2.75472">
        <ele>176.06</ele>
        <time>2022-02-03T13:24:18Z</time>
      </trkpt>
      <trkpt lat="43.33131" lon="2.75457">
        <ele>177.98</ele>
        <time>2022-02-03T13:24:29Z</time>
      </trkpt>
      <trkpt lat="43.33137" lon="2.75443">
        <ele>179.42</ele>
        <time>2022-02-03T13:24:39Z</time>
      </trkpt>
      <trkpt lat="43.33143" lon="2.75432">
        <ele>180.87</ele>
        <time>2022-02-03T13:24:49Z</time>
      </trkpt>
      <trkpt lat="43.3315" lon="2.75416">
        <ele>182.79</ele>
        <time>2022-02-03T13:25:00Z</time>
      </trkpt>
      <trkpt lat="43.33154" lon="2.75405">
        <ele>183.27</ele>
        <time>2022-02-03T13:25:08Z</time>
      </trkpt>
      <trkpt lat="43.33155" lon="2.75402">
        <ele>183.27</ele>
        <time>2022-02-03T13:25:10Z</time>
      </trkpt>
      <trkpt lat="43.33156" lon="2.754">
        <ele>183.75</ele>
        <time>2022-02-03T13:25:11Z</time>
      </trkpt>
      <trkpt lat="43.3316" lon="2.75393">
        <ele>184.71</ele>
        <time>2022-02-03T13:25:19Z</time>
      </trkpt>
      <trkpt lat="43.33164" lon="2.75387">
        <ele>184.71</ele>
        <time>2022-02-03T13:25:25Z</time>
      </trkpt>
      <trkpt lat="43.33165" lon="2.75384">
        <ele>184.71</ele>
        <time>2022-02-03T13:25:26Z</time>
      </trkpt>
      <trkpt lat="43.33166" lon="2.75382">
        <ele>185.19</ele>
        <time>2022-02-03T13:25:27Z</time>
      </trkpt>
      <trkpt lat="43.33173" lon="2.75369">
        <ele>186.15</ele>
        <time>2022-02-03T13:25:37Z</time>
      </trkpt>
      <trkpt lat="43.33174" lon="2.75366">
        <ele>187.11</ele>
        <time>2022-02-03T13:25:41Z</time>
      </trkpt>
      <trkpt lat="43.33175" lon="2.75363">
        <ele>187.11</ele>
        <time>2022-02-03T13:25:42Z</time>
      </trkpt>
      <trkpt lat="43.33175" lon="2.75361">
        <ele>187.11</ele>
        <time>2022-02-03T13:25:43Z</time>
      </trkpt>
      <trkpt lat="43.33179" lon="2.75353">
        <ele>188.56</ele>
        <time>2022-02-03T13:25:50Z</time>
      </trkpt>
      <trkpt lat="43.3318" lon="2.75351">
        <ele>188.56</ele>
        <time>2022-02-03T13:25:51Z</time>
      </trkpt>
      <trkpt lat="43.33183" lon="2.75346">
        <ele>189.04</ele>
        <time>2022-02-03T13:25:56Z</time>
      </trkpt>
      <trkpt lat="43.33184" lon="2.75344">
        <ele>189.52</ele>
        <time>2022-02-03T13:25:57Z</time>
      </trkpt>
      <trkpt lat="43.33189" lon="2.7533">
        <ele>190.96</ele>
        <time>2022-02-03T13:26:07Z</time>
      </trkpt>
      <trkpt lat="43.33196" lon="2.7532">
        <ele>192.4</ele>
        <time>2022-02-03T13:26:18Z</time>
      </trkpt>
      <trkpt lat="43.33198" lon="2.75319">
        <ele>192.4</ele>
        <time>2022-02-03T13:26:19Z</time>
      </trkpt>
      <trkpt lat="43.33199" lon="2.75318">
        <ele>192.88</ele>
        <time>2022-02-03T13:26:20Z</time>
      </trkpt>
      <trkpt lat="43.33201" lon="2.75317">
        <ele>193.36</ele>
        <time>2022-02-03T13:26:24Z</time>
      </trkpt>
      <trkpt lat="43.33202" lon="2.75316">
        <ele>193.84</ele>
        <time>2022-02-03T13:26:25Z</time>
      </trkpt>
      <trkpt lat="43.33204" lon="2.75316">
        <ele>193.84</ele>
        <time>2022-02-03T13:26:26Z</time>
      </trkpt>
      <trkpt lat="43.33214" lon="2.75317">
        <ele>195.28</ele>
        <time>2022-02-03T13:26:36Z</time>
      </trkpt>
      <trkpt lat="43.33216" lon="2.75317">
        <ele>195.77</ele>
        <time>2022-02-03T13:26:39Z</time>
      </trkpt>
      <trkpt lat="43.33218" lon="2.75317">
        <ele>196.25</ele>
        <time>2022-02-03T13:26:40Z</time>
      </trkpt>
      <trkpt lat="43.33225" lon="2.75317">
        <ele>197.21</ele>
        <time>2022-02-03T13:26:47Z</time>
      </trkpt>
      <trkpt lat="43.33235" lon="2.75313">
        <ele>198.17</ele>
        <time>2022-02-03T13:26:56Z</time>
      </trkpt>
      <trkpt lat="43.33236" lon="2.75311">
        <ele>198.65</ele>
        <time>2022-02-03T13:26:57Z</time>
      </trkpt>
      <trkpt lat="43.33238" lon="2.7531">
        <ele>199.13</ele>
        <time>2022-02-03T13:26:58Z</time>
      </trkpt>
      <trkpt lat="43.33242" lon="2.75307">
        <ele>199.13</ele>
        <time>2022-02-03T13:27:03Z</time>
      </trkpt>
      <trkpt lat="43.33244" lon="2.75306">
        <ele>199.13</ele>
        <time>2022-02-03T13:27:04Z</time>
      </trkpt>
      <trkpt lat="43.33245" lon="2.75305">
        <ele>199.13</ele>
        <time>2022-02-03T13:27:05Z</time>
      </trkpt>
      <trkpt lat="43.33248" lon="2.75301">
        <ele>200.09</ele>
        <time>2022-02-03T13:27:10Z</time>
      </trkpt>
      <trkpt lat="43.3325" lon="2.753">
        <ele>200.09</ele>
        <time>2022-02-03T13:27:11Z</time>
      </trkpt>
      <trkpt lat="43.33259" lon="2.75291">
        <ele>201.53</ele>
        <time>2022-02-03T13:27:20Z</time>
      </trkpt>
      <trkpt lat="43.33265" lon="2.75286">
        <ele>202.49</ele>
        <time>2022-02-03T13:27:29Z</time>
      </trkpt>
      <trkpt lat="43.33266" lon="2.75285">
        <ele>202.49</ele>
        <time>2022-02-03T13:27:30Z</time>
      </trkpt>
      <trkpt lat="43.33268" lon="2.75283">
        <ele>202.49</ele>
        <time>2022-02-03T13:27:31Z</time>
      </trkpt>
      <trkpt lat="43.33269" lon="2.75282">
        <ele>202.98</ele>
        <time>2022-02-03T13:27:32Z</time>
      </trkpt>
      <trkpt lat="43.33272" lon="2.7528">
        <ele>202.98</ele>
        <time>2022-02-03T13:27:37Z</time>
      </trkpt>
      <trkpt lat="43.33273" lon="2.75279">
        <ele>202.98</ele>
        <time>2022-02-03T13:27:38Z</time>
      </trkpt>
      <trkpt lat="43.33285" lon="2.75271">
        <ele>203.94</ele>
        <time>2022-02-03T13:27:47Z</time>
      </trkpt>
      <trkpt lat="43.33293" lon="2.75265">
        <ele>205.38</ele>
        <time>2022-02-03T13:27:57Z</time>
      </trkpt>
      <trkpt lat="43.33306" lon="2.75255">
        <ele>206.34</ele>
        <time>2022-02-03T13:28:07Z</time>
      </trkpt>
      <trkpt lat="43.33311" lon="2.75251">
        <ele>206.82</ele>
        <time>2022-02-03T13:28:15Z</time>
      </trkpt>
      <trkpt lat="43.33313" lon="2.7525">
        <ele>206.82</ele>
        <time>2022-02-03T13:28:16Z</time>
      </trkpt>
      <trkpt lat="43.33315" lon="2.75248">
        <ele>207.78</ele>
        <time>2022-02-03T13:28:17Z</time>
      </trkpt>
      <trkpt lat="43.33316" lon="2.75247">
        <ele>207.78</ele>
        <time>2022-02-03T13:28:18Z</time>
      </trkpt>
      <trkpt lat="43.33318" lon="2.75246">
        <ele>207.78</ele>
        <time>2022-02-03T13:28:19Z</time>
      </trkpt>
      <trkpt lat="43.33328" lon="2.75239">
        <ele>208.26</ele>
        <time>2022-02-03T13:28:29Z</time>
      </trkpt>
      <trkpt lat="43.33331" lon="2.75238">
        <ele>209.22</ele>
        <time>2022-02-03T13:28:33Z</time>
      </trkpt>
      <trkpt lat="43.33332" lon="2.75237">
        <ele>209.22</ele>
        <time>2022-02-03T13:28:34Z</time>
      </trkpt>
      <trkpt lat="43.33341" lon="2.75233">
        <ele>209.7</ele>
        <time>2022-02-03T13:28:42Z</time>
      </trkpt>
      <trkpt lat="43.33342" lon="2.75231">
        <ele>209.7</ele>
        <time>2022-02-03T13:28:43Z</time>
      </trkpt>
      <trkpt lat="43.33355" lon="2.75222">
        <ele>211.15</ele>
        <time>2022-02-03T13:28:55Z</time>
      </trkpt>
      <trkpt lat="43.33364" lon="2.75216">
        <ele>211.63</ele>
        <time>2022-02-03T13:29:03Z</time>
      </trkpt>
      <trkpt lat="43.33372" lon="2.75208">
        <ele>212.59</ele>
        <time>2022-02-03T13:29:12Z</time>
      </trkpt>
      <trkpt lat="43.33384" lon="2.752">
        <ele>214.03</ele>
        <time>2022-02-03T13:29:22Z</time>
      </trkpt>
      <trkpt lat="43.33389" lon="2.75198">
        <ele>214.51</ele>
        <time>2022-02-03T13:29:28Z</time>
      </trkpt>
      <trkpt lat="43.33391" lon="2.75197">
        <ele>214.99</ele>
        <time>2022-02-03T13:29:29Z</time>
      </trkpt>
      <trkpt lat="43.33392" lon="2.75196">
        <ele>214.99</ele>
        <time>2022-02-03T13:29:30Z</time>
      </trkpt>
      <trkpt lat="43.33406" lon="2.75186">
        <ele>215.47</ele>
        <time>2022-02-03T13:29:42Z</time>
      </trkpt>
      <trkpt lat="43.33416" lon="2.75178">
        <ele>215.95</ele>
        <time>2022-02-03T13:29:52Z</time>
      </trkpt>
      <trkpt lat="43.33417" lon="2.75177">
        <ele>216.91</ele>
        <time>2022-02-03T13:29:55Z</time>
      </trkpt>
      <trkpt lat="43.33419" lon="2.75176">
        <ele>216.91</ele>
        <time>2022-02-03T13:29:56Z</time>
      </trkpt>
      <trkpt lat="43.33428" lon="2.7517">
        <ele>217.88</ele>
        <time>2022-02-03T13:30:05Z</time>
      </trkpt>
      <trkpt lat="43.3343" lon="2.75168">
        <ele>217.88</ele>
        <time>2022-02-03T13:30:06Z</time>
      </trkpt>
      <trkpt lat="43.33431" lon="2.75167">
        <ele>218.36</ele>
        <time>2022-02-03T13:30:07Z</time>
      </trkpt>
      <trkpt lat="43.33433" lon="2.75165">
        <ele>218.36</ele>
        <time>2022-02-03T13:30:08Z</time>
      </trkpt>
      <trkpt lat="43.33435" lon="2.75164">
        <ele>218.36</ele>
        <time>2022-02-03T13:30:09Z</time>
      </trkpt>
      <trkpt lat="43.33441" lon="2.7516">
        <ele>218.84</ele>
        <time>2022-02-03T13:30:18Z</time>
      </trkpt>
      <trkpt lat="43.33442" lon="2.75159">
        <ele>218.84</ele>
        <time>2022-02-03T13:30:19Z</time>
      </trkpt>
      <trkpt lat="43.33444" lon="2.75158">
        <ele>218.84</ele>
        <time>2022-02-03T13:30:20Z</time>
      </trkpt>
      <trkpt lat="43.33445" lon="2.75156">
        <ele>218.84</ele>
        <time>2022-02-03T13:30:21Z</time>
      </trkpt>
      <trkpt lat="43.33447" lon="2.75155">
        <ele>218.84</ele>
        <time>2022-02-03T13:30:22Z</time>
      </trkpt>
      <trkpt lat="43.33449" lon="2.75154">
        <ele>218.84</ele>
        <time>2022-02-03T13:30:23Z</time>
      </trkpt>
      <trkpt lat="43.33451" lon="2.75152">
        <ele>219.8</ele>
        <time>2022-02-03T13:30:24Z</time>
      </trkpt>
      <trkpt lat="43.3346" lon="2.75147">
        <ele>220.28</ele>
        <time>2022-02-03T13:30:36Z</time>
      </trkpt>
      <trkpt lat="43.33475" lon="2.75135">
        <ele>221.72</ele>
        <time>2022-02-03T13:30:47Z</time>
      </trkpt>
      <trkpt lat="43.3349" lon="2.75124">
        <ele>222.68</ele>
        <time>2022-02-03T13:30:59Z</time>
      </trkpt>
      <trkpt lat="43.33504" lon="2.75115">
        <ele>224.12</ele>
        <time>2022-02-03T13:31:07Z</time>
      </trkpt>
      <trkpt lat="43.33516" lon="2.75107">
        <ele>225.57</ele>
        <time>2022-02-03T13:31:20Z</time>
      </trkpt>
      <trkpt lat="43.33526" lon="2.75099">
        <ele>227.01</ele>
        <time>2022-02-03T13:31:30Z</time>
      </trkpt>
      <trkpt lat="43.33536" lon="2.75092">
        <ele>228.45</ele>
        <time>2022-02-03T13:31:40Z</time>
      </trkpt>
      <trkpt lat="43.33549" lon="2.75082">
        <ele>229.41</ele>
        <time>2022-02-03T13:31:50Z</time>
      </trkpt>
      <trkpt lat="43.3355" lon="2.75081">
        <ele>229.41</ele>
        <time>2022-02-03T13:31:51Z</time>
      </trkpt>
      <trkpt lat="43.33552" lon="2.7508">
        <ele>229.41</ele>
        <time>2022-02-03T13:31:52Z</time>
      </trkpt>
      <trkpt lat="43.33562" lon="2.75079">
        <ele>231.81</ele>
        <time>2022-02-03T13:32:02Z</time>
      </trkpt>
      <trkpt lat="43.33564" lon="2.7508">
        <ele>231.81</ele>
        <time>2022-02-03T13:32:03Z</time>
      </trkpt>
      <trkpt lat="43.33567" lon="2.7508">
        <ele>231.81</ele>
        <time>2022-02-03T13:32:04Z</time>
      </trkpt>
      <trkpt lat="43.33574" lon="2.7508">
        <ele>231.81</ele>
        <time>2022-02-03T13:32:09Z</time>
      </trkpt>
      <trkpt lat="43.33575" lon="2.7508">
        <ele>231.81</ele>
        <time>2022-02-03T13:32:10Z</time>
      </trkpt>
      <trkpt lat="43.33587" lon="2.75082">
        <ele>233.26</ele>
        <time>2022-02-03T13:32:23Z</time>
      </trkpt>
      <trkpt lat="43.336" lon="2.75087">
        <ele>234.22</ele>
        <time>2022-02-03T13:32:35Z</time>
      </trkpt>
      <trkpt lat="43.33602" lon="2.75087">
        <ele>234.22</ele>
        <time>2022-02-03T13:32:36Z</time>
      </trkpt>
      <trkpt lat="43.33603" lon="2.75088">
        <ele>234.22</ele>
        <time>2022-02-03T13:32:37Z</time>
      </trkpt>
      <trkpt lat="43.33604" lon="2.75088">
        <ele>234.7</ele>
        <time>2022-02-03T13:32:38Z</time>
      </trkpt>
      <trkpt lat="43.33606" lon="2.75088">
        <ele>235.18</ele>
        <time>2022-02-03T13:32:39Z</time>
      </trkpt>
      <trkpt lat="43.33608" lon="2.75089">
        <ele>235.18</ele>
        <time>2022-02-03T13:32:40Z</time>
      </trkpt>
      <trkpt lat="43.3361" lon="2.75089">
        <ele>235.18</ele>
        <time>2022-02-03T13:32:44Z</time>
      </trkpt>
      <trkpt lat="43.33616" lon="2.75089">
        <ele>235.66</ele>
        <time>2022-02-03T13:32:55Z</time>
      </trkpt>
      <trkpt lat="43.33607" lon="2.75093">
        <ele>235.66</ele>
        <time>2022-02-03T13:33:20Z</time>
      </trkpt>
      <trkpt lat="43.33607" lon="2.75093">
        <ele>237.1</ele>
        <time>2022-02-03T13:33:23Z</time>
      </trkpt>
      <trkpt lat="43.33614" lon="2.75095">
        <ele>236.14</ele>
        <time>2022-02-03T13:33:45Z</time>
      </trkpt>
      <trkpt lat="43.33615" lon="2.75089">
        <ele>236.14</ele>
        <time>2022-02-03T13:34:08Z</time>
      </trkpt>
      <trkpt lat="43.33618" lon="2.75087">
        <ele>236.14</ele>
        <time>2022-02-03T13:34:11Z</time>
      </trkpt>
      <trkpt lat="43.33623" lon="2.75085">
        <ele>236.14</ele>
        <time>2022-02-03T13:34:15Z</time>
      </trkpt>
      <trkpt lat="43.33624" lon="2.75083">
        <ele>237.58</ele>
        <time>2022-02-03T13:34:17Z</time>
      </trkpt>
      <trkpt lat="43.33637" lon="2.75076">
        <ele>237.58</ele>
        <time>2022-02-03T13:34:34Z</time>
      </trkpt>
      <trkpt lat="43.33667" lon="2.75061">
        <ele>239.02</ele>
        <time>2022-02-03T13:34:57Z</time>
      </trkpt>
      <trkpt lat="43.33687" lon="2.75041">
        <ele>239.02</ele>
        <time>2022-02-03T13:35:14Z</time>
      </trkpt>
      <trkpt lat="43.33712" lon="2.75017">
        <ele>239.02</ele>
        <time>2022-02-03T13:35:38Z</time>
      </trkpt>
      <trkpt lat="43.33739" lon="2.75005">
        <ele>241.43</ele>
        <time>2022-02-03T13:36:01Z</time>
      </trkpt>
      <trkpt lat="43.33746" lon="2.75003">
        <ele>241.91</ele>
        <time>2022-02-03T13:36:06Z</time>
      </trkpt>
      <trkpt lat="43.33749" lon="2.75003">
        <ele>240.47</ele>
        <time>2022-02-03T13:36:08Z</time>
      </trkpt>
      <trkpt lat="43.33755" lon="2.75004">
        <ele>241.91</ele>
        <time>2022-02-03T13:36:11Z</time>
      </trkpt>
      <trkpt lat="43.33768" lon="2.74999">
        <ele>244.31</ele>
        <time>2022-02-03T13:36:27Z</time>
      </trkpt>
      <trkpt lat="43.33778" lon="2.74991">
        <ele>242.87</ele>
        <time>2022-02-03T13:36:36Z</time>
      </trkpt>
      <trkpt lat="43.3378" lon="2.74989">
        <ele>244.79</ele>
        <time>2022-02-03T13:36:37Z</time>
      </trkpt>
      <trkpt lat="43.33796" lon="2.74982">
        <ele>245.75</ele>
        <time>2022-02-03T13:36:51Z</time>
      </trkpt>
      <trkpt lat="43.33823" lon="2.74969">
        <ele>246.23</ele>
        <time>2022-02-03T13:37:12Z</time>
      </trkpt>
      <trkpt lat="43.33835" lon="2.74965">
        <ele>245.27</ele>
        <time>2022-02-03T13:37:21Z</time>
      </trkpt>
      <trkpt lat="43.33838" lon="2.74961">
        <ele>246.72</ele>
        <time>2022-02-03T13:37:25Z</time>
      </trkpt>
      <trkpt lat="43.33847" lon="2.74954">
        <ele>246.72</ele>
        <time>2022-02-03T13:37:34Z</time>
      </trkpt>
      <trkpt lat="43.33851" lon="2.74953">
        <ele>246.72</ele>
        <time>2022-02-03T13:37:40Z</time>
      </trkpt>
      <trkpt lat="43.33857" lon="2.74948">
        <ele>245.27</ele>
        <time>2022-02-03T13:37:50Z</time>
      </trkpt>
      <trkpt lat="43.33859" lon="2.74948">
        <ele>245.27</ele>
        <time>2022-02-03T13:37:51Z</time>
      </trkpt>
      <trkpt lat="43.33869" lon="2.74941">
        <ele>247.2</ele>
        <time>2022-02-03T13:38:00Z</time>
      </trkpt>
      <trkpt lat="43.33871" lon="2.74941">
        <ele>245.75</ele>
        <time>2022-02-03T13:38:01Z</time>
      </trkpt>
      <trkpt lat="43.33872" lon="2.7494">
        <ele>245.75</ele>
        <time>2022-02-03T13:38:02Z</time>
      </trkpt>
      <trkpt lat="43.33873" lon="2.74939">
        <ele>245.75</ele>
        <time>2022-02-03T13:38:03Z</time>
      </trkpt>
      <trkpt lat="43.33875" lon="2.74938">
        <ele>246.23</ele>
        <time>2022-02-03T13:38:04Z</time>
      </trkpt>
      <trkpt lat="43.33878" lon="2.74937">
        <ele>246.23</ele>
        <time>2022-02-03T13:38:07Z</time>
      </trkpt>
      <trkpt lat="43.33892" lon="2.7493">
        <ele>245.75</ele>
        <time>2022-02-03T13:38:17Z</time>
      </trkpt>
      <trkpt lat="43.33906" lon="2.74924">
        <ele>245.75</ele>
        <time>2022-02-03T13:38:30Z</time>
      </trkpt>
      <trkpt lat="43.33908" lon="2.74923">
        <ele>245.75</ele>
        <time>2022-02-03T13:38:33Z</time>
      </trkpt>
      <trkpt lat="43.3391" lon="2.74922">
        <ele>245.75</ele>
        <time>2022-02-03T13:38:34Z</time>
      </trkpt>
      <trkpt lat="43.33931" lon="2.74912">
        <ele>245.75</ele>
        <time>2022-02-03T13:38:47Z</time>
      </trkpt>
      <trkpt lat="43.33933" lon="2.74912">
        <ele>246.23</ele>
        <time>2022-02-03T13:38:50Z</time>
      </trkpt>
      <trkpt lat="43.33945" lon="2.74911">
        <ele>246.23</ele>
        <time>2022-02-03T13:38:59Z</time>
      </trkpt>
      <trkpt lat="43.33957" lon="2.74915">
        <ele>246.23</ele>
        <time>2022-02-03T13:39:11Z</time>
      </trkpt>
      <trkpt lat="43.3397" lon="2.74926">
        <ele>246.23</ele>
        <time>2022-02-03T13:39:24Z</time>
      </trkpt>
      <trkpt lat="43.33984" lon="2.74944">
        <ele>248.16</ele>
        <time>2022-02-03T13:39:37Z</time>
      </trkpt>
      <trkpt lat="43.33994" lon="2.74958">
        <ele>249.6</ele>
        <time>2022-02-03T13:39:48Z</time>
      </trkpt>
      <trkpt lat="43.34002" lon="2.74973">
        <ele>251.04</ele>
        <time>2022-02-03T13:40:01Z</time>
      </trkpt>
      <trkpt lat="43.34017" lon="2.74997">
        <ele>252</ele>
        <time>2022-02-03T13:40:16Z</time>
      </trkpt>
      <trkpt lat="43.34027" lon="2.7501">
        <ele>252.48</ele>
        <time>2022-02-03T13:40:28Z</time>
      </trkpt>
      <trkpt lat="43.34029" lon="2.75013">
        <ele>252.48</ele>
        <time>2022-02-03T13:40:33Z</time>
      </trkpt>
      <trkpt lat="43.3403" lon="2.75015">
        <ele>252.96</ele>
        <time>2022-02-03T13:40:34Z</time>
      </trkpt>
      <trkpt lat="43.34031" lon="2.75017">
        <ele>252.96</ele>
        <time>2022-02-03T13:40:35Z</time>
      </trkpt>
      <trkpt lat="43.34042" lon="2.75034">
        <ele>253.93</ele>
        <time>2022-02-03T13:40:47Z</time>
      </trkpt>
      <trkpt lat="43.34055" lon="2.75053">
        <ele>253.93</ele>
        <time>2022-02-03T13:40:59Z</time>
      </trkpt>
      <trkpt lat="43.34066" lon="2.7507">
        <ele>254.41</ele>
        <time>2022-02-03T13:41:15Z</time>
      </trkpt>
      <trkpt lat="43.34075" lon="2.75082">
        <ele>254.89</ele>
        <time>2022-02-03T13:41:27Z</time>
      </trkpt>
      <trkpt lat="43.34087" lon="2.75095">
        <ele>254.89</ele>
        <time>2022-02-03T13:41:39Z</time>
      </trkpt>
      <trkpt lat="43.34099" lon="2.75112">
        <ele>254.89</ele>
        <time>2022-02-03T13:41:52Z</time>
      </trkpt>
      <trkpt lat="43.34116" lon="2.75133">
        <ele>254.89</ele>
        <time>2022-02-03T13:42:06Z</time>
      </trkpt>
      <trkpt lat="43.34122" lon="2.75142">
        <ele>255.85</ele>
        <time>2022-02-03T13:42:18Z</time>
      </trkpt>
      <trkpt lat="43.34137" lon="2.75165">
        <ele>255.85</ele>
        <time>2022-02-03T13:42:31Z</time>
      </trkpt>
      <trkpt lat="43.34141" lon="2.75168">
        <ele>255.85</ele>
        <time>2022-02-03T13:42:35Z</time>
      </trkpt>
      <trkpt lat="43.34142" lon="2.75167">
        <ele>255.85</ele>
        <time>2022-02-03T13:42:36Z</time>
      </trkpt>
      <trkpt lat="43.34143" lon="2.75167">
        <ele>255.85</ele>
        <time>2022-02-03T13:42:37Z</time>
      </trkpt>
      <trkpt lat="43.34145" lon="2.75162">
        <ele>256.81</ele>
        <time>2022-02-03T13:42:41Z</time>
      </trkpt>
      <trkpt lat="43.34146" lon="2.75161">
        <ele>256.81</ele>
        <time>2022-02-03T13:42:42Z</time>
      </trkpt>
      <trkpt lat="43.34147" lon="2.75159">
        <ele>256.81</ele>
        <time>2022-02-03T13:42:43Z</time>
      </trkpt>
      <trkpt lat="43.34148" lon="2.75157">
        <ele>256.81</ele>
        <time>2022-02-03T13:42:44Z</time>
      </trkpt>
      <trkpt lat="43.34149" lon="2.75155">
        <ele>256.81</ele>
        <time>2022-02-03T13:42:45Z</time>
      </trkpt>
      <trkpt lat="43.3415" lon="2.75153">
        <ele>256.81</ele>
        <time>2022-02-03T13:42:46Z</time>
      </trkpt>
      <trkpt lat="43.34151" lon="2.7515">
        <ele>256.81</ele>
        <time>2022-02-03T13:42:47Z</time>
      </trkpt>
      <trkpt lat="43.34155" lon="2.75136">
        <ele>256.81</ele>
        <time>2022-02-03T13:42:54Z</time>
      </trkpt>
      <trkpt lat="43.34155" lon="2.75133">
        <ele>256.81</ele>
        <time>2022-02-03T13:42:55Z</time>
      </trkpt>
      <trkpt lat="43.34155" lon="2.75132">
        <ele>256.81</ele>
        <time>2022-02-03T13:42:56Z</time>
      </trkpt>
      <trkpt lat="43.34154" lon="2.7513">
        <ele>256.81</ele>
        <time>2022-02-03T13:42:57Z</time>
      </trkpt>
      <trkpt lat="43.34154" lon="2.75129">
        <ele>255.85</ele>
        <time>2022-02-03T13:42:58Z</time>
      </trkpt>
      <trkpt lat="43.34154" lon="2.75125">
        <ele>255.85</ele>
        <time>2022-02-03T13:43:01Z</time>
      </trkpt>
      <trkpt lat="43.34147" lon="2.75106">
        <ele>257.29</ele>
        <time>2022-02-03T13:43:13Z</time>
      </trkpt>
      <trkpt lat="43.34147" lon="2.751">
        <ele>257.29</ele>
        <time>2022-02-03T13:43:20Z</time>
      </trkpt>
      <trkpt lat="43.34147" lon="2.75098">
        <ele>257.29</ele>
        <time>2022-02-03T13:43:21Z</time>
      </trkpt>
      <trkpt lat="43.34147" lon="2.75095">
        <ele>257.29</ele>
        <time>2022-02-03T13:43:22Z</time>
      </trkpt>
      <trkpt lat="43.34152" lon="2.75074">
        <ele>257.77</ele>
        <time>2022-02-03T13:43:35Z</time>
      </trkpt>
      <trkpt lat="43.34156" lon="2.75054">
        <ele>258.25</ele>
        <time>2022-02-03T13:43:47Z</time>
      </trkpt>
      <trkpt lat="43.34159" lon="2.75037">
        <ele>258.73</ele>
        <time>2022-02-03T13:43:58Z</time>
      </trkpt>
      <trkpt lat="43.34161" lon="2.75032">
        <ele>258.73</ele>
        <time>2022-02-03T13:44:03Z</time>
      </trkpt>
      <trkpt lat="43.34161" lon="2.7503">
        <ele>258.73</ele>
        <time>2022-02-03T13:44:04Z</time>
      </trkpt>
      <trkpt lat="43.34161" lon="2.75028">
        <ele>258.73</ele>
        <time>2022-02-03T13:44:05Z</time>
      </trkpt>
      <trkpt lat="43.34161" lon="2.75026">
        <ele>258.73</ele>
        <time>2022-02-03T13:44:06Z</time>
      </trkpt>
      <trkpt lat="43.34162" lon="2.75023">
        <ele>258.73</ele>
        <time>2022-02-03T13:44:07Z</time>
      </trkpt>
      <trkpt lat="43.34162" lon="2.75021">
        <ele>259.21</ele>
        <time>2022-02-03T13:44:08Z</time>
      </trkpt>
      <trkpt lat="43.34163" lon="2.75016">
        <ele>260.65</ele>
        <time>2022-02-03T13:44:11Z</time>
      </trkpt>
      <trkpt lat="43.34164" lon="2.75013">
        <ele>258.73</ele>
        <time>2022-02-03T13:44:13Z</time>
      </trkpt>
      <trkpt lat="43.34165" lon="2.7501">
        <ele>261.14</ele>
        <time>2022-02-03T13:44:15Z</time>
      </trkpt>
      <trkpt lat="43.34166" lon="2.75006">
        <ele>259.69</ele>
        <time>2022-02-03T13:44:18Z</time>
      </trkpt>
      <trkpt lat="43.34169" lon="2.74998">
        <ele>260.65</ele>
        <time>2022-02-03T13:44:23Z</time>
      </trkpt>
      <trkpt lat="43.34174" lon="2.74976">
        <ele>262.58</ele>
        <time>2022-02-03T13:44:37Z</time>
      </trkpt>
      <trkpt lat="43.34186" lon="2.74946">
        <ele>264.98</ele>
        <time>2022-02-03T13:44:59Z</time>
      </trkpt>
      <trkpt lat="43.3419" lon="2.74941">
        <ele>266.9</ele>
        <time>2022-02-03T13:45:03Z</time>
      </trkpt>
      <trkpt lat="43.34192" lon="2.74937">
        <ele>265.46</ele>
        <time>2022-02-03T13:45:06Z</time>
      </trkpt>
      <trkpt lat="43.34193" lon="2.74935">
        <ele>267.38</ele>
        <time>2022-02-03T13:45:08Z</time>
      </trkpt>
      <trkpt lat="43.34196" lon="2.74928">
        <ele>268.83</ele>
        <time>2022-02-03T13:45:13Z</time>
      </trkpt>
      <trkpt lat="43.34199" lon="2.74917">
        <ele>267.86</ele>
        <time>2022-02-03T13:45:19Z</time>
      </trkpt>
      <trkpt lat="43.34201" lon="2.74915">
        <ele>269.79</ele>
        <time>2022-02-03T13:45:21Z</time>
      </trkpt>
      <trkpt lat="43.34209" lon="2.74901">
        <ele>270.27</ele>
        <time>2022-02-03T13:45:31Z</time>
      </trkpt>
      <trkpt lat="43.34218" lon="2.74888">
        <ele>269.79</ele>
        <time>2022-02-03T13:45:44Z</time>
      </trkpt>
      <trkpt lat="43.34218" lon="2.74885">
        <ele>271.71</ele>
        <time>2022-02-03T13:45:46Z</time>
      </trkpt>
      <trkpt lat="43.34218" lon="2.74849">
        <ele>273.63</ele>
        <time>2022-02-03T13:46:06Z</time>
      </trkpt>
      <trkpt lat="43.34231" lon="2.74831">
        <ele>275.07</ele>
        <time>2022-02-03T13:46:23Z</time>
      </trkpt>
      <trkpt lat="43.34243" lon="2.74822">
        <ele>276.52</ele>
        <time>2022-02-03T13:46:35Z</time>
      </trkpt>
      <trkpt lat="43.34258" lon="2.74806">
        <ele>276.52</ele>
        <time>2022-02-03T13:46:51Z</time>
      </trkpt>
      <trkpt lat="43.34264" lon="2.748">
        <ele>277.96</ele>
        <time>2022-02-03T13:47:02Z</time>
      </trkpt>
      <trkpt lat="43.34279" lon="2.748">
        <ele>276.04</ele>
        <time>2022-02-03T13:47:15Z</time>
      </trkpt>
      <trkpt lat="43.34302" lon="2.74793">
        <ele>276.04</ele>
        <time>2022-02-03T13:47:35Z</time>
      </trkpt>
      <trkpt lat="43.34319" lon="2.74789">
        <ele>275.07</ele>
        <time>2022-02-03T13:47:48Z</time>
      </trkpt>
      <trkpt lat="43.34325" lon="2.74788">
        <ele>268.83</ele>
        <time>2022-02-03T13:47:53Z</time>
      </trkpt>
      <trkpt lat="43.34326" lon="2.74787">
        <ele>278.92</ele>
        <time>2022-02-03T13:47:54Z</time>
      </trkpt>
      <trkpt lat="43.34327" lon="2.74787">
        <ele>273.63</ele>
        <time>2022-02-03T13:47:55Z</time>
      </trkpt>
      <trkpt lat="43.34334" lon="2.74787">
        <ele>273.63</ele>
        <time>2022-02-03T13:48:01Z</time>
      </trkpt>
      <trkpt lat="43.34342" lon="2.74785">
        <ele>273.63</ele>
        <time>2022-02-03T13:48:08Z</time>
      </trkpt>
      <trkpt lat="43.34358" lon="2.74777">
        <ele>272.67</ele>
        <time>2022-02-03T13:48:21Z</time>
      </trkpt>
      <trkpt lat="43.34369" lon="2.74773">
        <ele>272.19</ele>
        <time>2022-02-03T13:48:32Z</time>
      </trkpt>
      <trkpt lat="43.34381" lon="2.74766">
        <ele>271.23</ele>
        <time>2022-02-03T13:48:43Z</time>
      </trkpt>
      <trkpt lat="43.34399" lon="2.74758">
        <ele>270.75</ele>
        <time>2022-02-03T13:48:55Z</time>
      </trkpt>
      <trkpt lat="43.344" lon="2.74757">
        <ele>271.23</ele>
        <time>2022-02-03T13:48:58Z</time>
      </trkpt>
      <trkpt lat="43.34402" lon="2.74757">
        <ele>270.27</ele>
        <time>2022-02-03T13:49:00Z</time>
      </trkpt>
      <trkpt lat="43.34403" lon="2.74756">
        <ele>270.27</ele>
        <time>2022-02-03T13:49:01Z</time>
      </trkpt>
      <trkpt lat="43.34417" lon="2.74749">
        <ele>268.83</ele>
        <time>2022-02-03T13:49:14Z</time>
      </trkpt>
      <trkpt lat="43.34424" lon="2.74746">
        <ele>267.86</ele>
        <time>2022-02-03T13:49:21Z</time>
      </trkpt>
      <trkpt lat="43.34426" lon="2.74746">
        <ele>267.86</ele>
        <time>2022-02-03T13:49:22Z</time>
      </trkpt>
      <trkpt lat="43.34427" lon="2.74745">
        <ele>267.38</ele>
        <time>2022-02-03T13:49:23Z</time>
      </trkpt>
      <trkpt lat="43.34438" lon="2.74742">
        <ele>267.38</ele>
        <time>2022-02-03T13:49:31Z</time>
      </trkpt>
      <trkpt lat="43.3444" lon="2.74741">
        <ele>267.38</ele>
        <time>2022-02-03T13:49:32Z</time>
      </trkpt>
      <trkpt lat="43.34441" lon="2.74741">
        <ele>267.38</ele>
        <time>2022-02-03T13:49:33Z</time>
      </trkpt>
      <trkpt lat="43.34455" lon="2.74737">
        <ele>266.42</ele>
        <time>2022-02-03T13:49:44Z</time>
      </trkpt>
      <trkpt lat="43.3447" lon="2.74733">
        <ele>266.42</ele>
        <time>2022-02-03T13:49:57Z</time>
      </trkpt>
      <trkpt lat="43.34485" lon="2.74731">
        <ele>265.94</ele>
        <time>2022-02-03T13:50:09Z</time>
      </trkpt>
      <trkpt lat="43.34502" lon="2.74726">
        <ele>265.46</ele>
        <time>2022-02-03T13:50:21Z</time>
      </trkpt>
      <trkpt lat="43.34519" lon="2.74723">
        <ele>265.94</ele>
        <time>2022-02-03T13:50:34Z</time>
      </trkpt>
      <trkpt lat="43.34535" lon="2.74718">
        <ele>265.94</ele>
        <time>2022-02-03T13:50:46Z</time>
      </trkpt>
      <trkpt lat="43.3455" lon="2.7471">
        <ele>265.94</ele>
        <time>2022-02-03T13:50:59Z</time>
      </trkpt>
      <trkpt lat="43.34556" lon="2.74708">
        <ele>265.94</ele>
        <time>2022-02-03T13:51:07Z</time>
      </trkpt>
      <trkpt lat="43.34557" lon="2.74708">
        <ele>265.94</ele>
        <time>2022-02-03T13:51:08Z</time>
      </trkpt>
      <trkpt lat="43.34559" lon="2.74708">
        <ele>265.94</ele>
        <time>2022-02-03T13:51:09Z</time>
      </trkpt>
      <trkpt lat="43.34564" lon="2.74705">
        <ele>265.94</ele>
        <time>2022-02-03T13:51:14Z</time>
      </trkpt>
      <trkpt lat="43.34565" lon="2.74704">
        <ele>265.94</ele>
        <time>2022-02-03T13:51:15Z</time>
      </trkpt>
      <trkpt lat="43.34567" lon="2.74703">
        <ele>267.38</ele>
        <time>2022-02-03T13:51:16Z</time>
      </trkpt>
      <trkpt lat="43.34569" lon="2.74703">
        <ele>267.38</ele>
        <time>2022-02-03T13:51:17Z</time>
      </trkpt>
      <trkpt lat="43.3457" lon="2.74702">
        <ele>267.38</ele>
        <time>2022-02-03T13:51:18Z</time>
      </trkpt>
      <trkpt lat="43.34572" lon="2.74701">
        <ele>267.38</ele>
        <time>2022-02-03T13:51:19Z</time>
      </trkpt>
      <trkpt lat="43.34574" lon="2.747">
        <ele>267.38</ele>
        <time>2022-02-03T13:51:20Z</time>
      </trkpt>
      <trkpt lat="43.34576" lon="2.74699">
        <ele>267.38</ele>
        <time>2022-02-03T13:51:21Z</time>
      </trkpt>
      <trkpt lat="43.34578" lon="2.74699">
        <ele>267.38</ele>
        <time>2022-02-03T13:51:22Z</time>
      </trkpt>
      <trkpt lat="43.34579" lon="2.74699">
        <ele>267.38</ele>
        <time>2022-02-03T13:51:23Z</time>
      </trkpt>
      <trkpt lat="43.34581" lon="2.74698">
        <ele>267.38</ele>
        <time>2022-02-03T13:51:24Z</time>
      </trkpt>
      <trkpt lat="43.34592" lon="2.74696">
        <ele>267.38</ele>
        <time>2022-02-03T13:51:37Z</time>
      </trkpt>
      <trkpt lat="43.34608" lon="2.74693">
        <ele>265.46</ele>
        <time>2022-02-03T13:51:47Z</time>
      </trkpt>
      <trkpt lat="43.34619" lon="2.74691">
        <ele>264.02</ele>
        <time>2022-02-03T13:51:56Z</time>
      </trkpt>
      <trkpt lat="43.3462" lon="2.74691">
        <ele>264.02</ele>
        <time>2022-02-03T13:51:57Z</time>
      </trkpt>
      <trkpt lat="43.3463" lon="2.74687">
        <ele>264.98</ele>
        <time>2022-02-03T13:52:04Z</time>
      </trkpt>
      <trkpt lat="43.34633" lon="2.74684">
        <ele>264.02</ele>
        <time>2022-02-03T13:52:08Z</time>
      </trkpt>
      <trkpt lat="43.34645" lon="2.74677">
        <ele>264.02</ele>
        <time>2022-02-03T13:52:19Z</time>
      </trkpt>
      <trkpt lat="43.34653" lon="2.74675">
        <ele>264.02</ele>
        <time>2022-02-03T13:52:30Z</time>
      </trkpt>
      <trkpt lat="43.34667" lon="2.74671">
        <ele>264.02</ele>
        <time>2022-02-03T13:52:39Z</time>
      </trkpt>
      <trkpt lat="43.34678" lon="2.74662">
        <ele>263.54</ele>
        <time>2022-02-03T13:52:51Z</time>
      </trkpt>
      <trkpt lat="43.34688" lon="2.74651">
        <ele>263.06</ele>
        <time>2022-02-03T13:53:02Z</time>
      </trkpt>
      <trkpt lat="43.34695" lon="2.74633">
        <ele>263.06</ele>
        <time>2022-02-03T13:53:12Z</time>
      </trkpt>
      <trkpt lat="43.34705" lon="2.74619">
        <ele>262.58</ele>
        <time>2022-02-03T13:53:25Z</time>
      </trkpt>
      <trkpt lat="43.34711" lon="2.74612">
        <ele>262.1</ele>
        <time>2022-02-03T13:53:32Z</time>
      </trkpt>
      <trkpt lat="43.34716" lon="2.74604">
        <ele>261.62</ele>
        <time>2022-02-03T13:53:41Z</time>
      </trkpt>
      <trkpt lat="43.34718" lon="2.74603">
        <ele>261.62</ele>
        <time>2022-02-03T13:53:42Z</time>
      </trkpt>
      <trkpt lat="43.34719" lon="2.74602">
        <ele>261.62</ele>
        <time>2022-02-03T13:53:43Z</time>
      </trkpt>
      <trkpt lat="43.34721" lon="2.746">
        <ele>261.62</ele>
        <time>2022-02-03T13:53:44Z</time>
      </trkpt>
      <trkpt lat="43.34723" lon="2.74598">
        <ele>261.62</ele>
        <time>2022-02-03T13:53:45Z</time>
      </trkpt>
      <trkpt lat="43.34725" lon="2.74597">
        <ele>261.62</ele>
        <time>2022-02-03T13:53:46Z</time>
      </trkpt>
      <trkpt lat="43.34727" lon="2.74596">
        <ele>261.62</ele>
        <time>2022-02-03T13:53:47Z</time>
      </trkpt>
      <trkpt lat="43.34728" lon="2.74596">
        <ele>261.62</ele>
        <time>2022-02-03T13:53:48Z</time>
      </trkpt>
      <trkpt lat="43.3473" lon="2.74595">
        <ele>261.62</ele>
        <time>2022-02-03T13:53:49Z</time>
      </trkpt>
      <trkpt lat="43.34731" lon="2.74594">
        <ele>261.14</ele>
        <time>2022-02-03T13:53:50Z</time>
      </trkpt>
      <trkpt lat="43.34734" lon="2.74593">
        <ele>261.62</ele>
        <time>2022-02-03T13:53:56Z</time>
      </trkpt>
      <trkpt lat="43.34736" lon="2.74593">
        <ele>261.62</ele>
        <time>2022-02-03T13:53:57Z</time>
      </trkpt>
      <trkpt lat="43.34738" lon="2.74592">
        <ele>260.65</ele>
        <time>2022-02-03T13:53:59Z</time>
      </trkpt>
      <trkpt lat="43.3474" lon="2.74592">
        <ele>260.65</ele>
        <time>2022-02-03T13:54:00Z</time>
      </trkpt>
      <trkpt lat="43.34741" lon="2.74591">
        <ele>260.65</ele>
        <time>2022-02-03T13:54:01Z</time>
      </trkpt>
      <trkpt lat="43.34743" lon="2.74591">
        <ele>260.65</ele>
        <time>2022-02-03T13:54:02Z</time>
      </trkpt>
      <trkpt lat="43.34745" lon="2.7459">
        <ele>260.65</ele>
        <time>2022-02-03T13:54:03Z</time>
      </trkpt>
      <trkpt lat="43.34749" lon="2.74589">
        <ele>260.17</ele>
        <time>2022-02-03T13:54:05Z</time>
      </trkpt>
      <trkpt lat="43.34751" lon="2.74589">
        <ele>260.17</ele>
        <time>2022-02-03T13:54:06Z</time>
      </trkpt>
      <trkpt lat="43.34752" lon="2.74589">
        <ele>259.69</ele>
        <time>2022-02-03T13:54:07Z</time>
      </trkpt>
      <trkpt lat="43.34755" lon="2.74589">
        <ele>259.69</ele>
        <time>2022-02-03T13:54:08Z</time>
      </trkpt>
      <trkpt lat="43.34756" lon="2.74588">
        <ele>259.69</ele>
        <time>2022-02-03T13:54:09Z</time>
      </trkpt>
      <trkpt lat="43.34757" lon="2.74587">
        <ele>259.69</ele>
        <time>2022-02-03T13:54:10Z</time>
      </trkpt>
      <trkpt lat="43.34759" lon="2.74587">
        <ele>259.21</ele>
        <time>2022-02-03T13:54:11Z</time>
      </trkpt>
      <trkpt lat="43.34768" lon="2.74587">
        <ele>257.77</ele>
        <time>2022-02-03T13:54:24Z</time>
      </trkpt>
      <trkpt lat="43.34786" lon="2.74583">
        <ele>256.33</ele>
        <time>2022-02-03T13:54:37Z</time>
      </trkpt>
      <trkpt lat="43.34804" lon="2.74582">
        <ele>254.41</ele>
        <time>2022-02-03T13:54:51Z</time>
      </trkpt>
      <trkpt lat="43.34818" lon="2.74588">
        <ele>252.96</ele>
        <time>2022-02-03T13:55:04Z</time>
      </trkpt>
      <trkpt lat="43.3482" lon="2.74588">
        <ele>252.48</ele>
        <time>2022-02-03T13:55:05Z</time>
      </trkpt>
      <trkpt lat="43.34821" lon="2.74588">
        <ele>252.48</ele>
        <time>2022-02-03T13:55:06Z</time>
      </trkpt>
      <trkpt lat="43.34824" lon="2.74588">
        <ele>252</ele>
        <time>2022-02-03T13:55:07Z</time>
      </trkpt>
      <trkpt lat="43.34826" lon="2.74587">
        <ele>252</ele>
        <time>2022-02-03T13:55:08Z</time>
      </trkpt>
      <trkpt lat="43.34828" lon="2.74586">
        <ele>251.52</ele>
        <time>2022-02-03T13:55:09Z</time>
      </trkpt>
      <trkpt lat="43.3483" lon="2.74586">
        <ele>251.52</ele>
        <time>2022-02-03T13:55:10Z</time>
      </trkpt>
      <trkpt lat="43.34832" lon="2.74586">
        <ele>251.52</ele>
        <time>2022-02-03T13:55:11Z</time>
      </trkpt>
      <trkpt lat="43.34844" lon="2.74581">
        <ele>250.56</ele>
        <time>2022-02-03T13:55:24Z</time>
      </trkpt>
      <trkpt lat="43.34853" lon="2.74575">
        <ele>250.56</ele>
        <time>2022-02-03T13:55:29Z</time>
      </trkpt>
      <trkpt lat="43.34855" lon="2.74574">
        <ele>250.56</ele>
        <time>2022-02-03T13:55:30Z</time>
      </trkpt>
      <trkpt lat="43.34866" lon="2.74572">
        <ele>249.6</ele>
        <time>2022-02-03T13:55:42Z</time>
      </trkpt>
      <trkpt lat="43.34867" lon="2.74571">
        <ele>249.6</ele>
        <time>2022-02-03T13:55:43Z</time>
      </trkpt>
      <trkpt lat="43.34869" lon="2.74571">
        <ele>249.12</ele>
        <time>2022-02-03T13:55:44Z</time>
      </trkpt>
      <trkpt lat="43.34871" lon="2.7457">
        <ele>249.12</ele>
        <time>2022-02-03T13:55:45Z</time>
      </trkpt>
      <trkpt lat="43.34885" lon="2.74564">
        <ele>248.64</ele>
        <time>2022-02-03T13:55:53Z</time>
      </trkpt>
      <trkpt lat="43.34896" lon="2.74563">
        <ele>247.68</ele>
        <time>2022-02-03T13:56:06Z</time>
      </trkpt>
      <trkpt lat="43.34916" lon="2.74561">
        <ele>247.2</ele>
        <time>2022-02-03T13:56:18Z</time>
      </trkpt>
      <trkpt lat="43.34932" lon="2.74555">
        <ele>246.72</ele>
        <time>2022-02-03T13:56:32Z</time>
      </trkpt>
      <trkpt lat="43.34944" lon="2.7455">
        <ele>246.23</ele>
        <time>2022-02-03T13:56:42Z</time>
      </trkpt>
      <trkpt lat="43.34952" lon="2.74546">
        <ele>246.23</ele>
        <time>2022-02-03T13:56:53Z</time>
      </trkpt>
      <trkpt lat="43.34973" lon="2.74542">
        <ele>244.79</ele>
        <time>2022-02-03T13:57:06Z</time>
      </trkpt>
      <trkpt lat="43.34993" lon="2.74539">
        <ele>244.79</ele>
        <time>2022-02-03T13:57:22Z</time>
      </trkpt>
      <trkpt lat="43.34995" lon="2.74541">
        <ele>245.27</ele>
        <time>2022-02-03T13:57:35Z</time>
      </trkpt>
      <trkpt lat="43.34996" lon="2.74539">
        <ele>244.31</ele>
        <time>2022-02-03T13:57:46Z</time>
      </trkpt>
      <trkpt lat="43.34996" lon="2.74538">
        <ele>244.31</ele>
        <time>2022-02-03T13:57:49Z</time>
      </trkpt>
      <trkpt lat="43.34998" lon="2.74537">
        <ele>244.31</ele>
        <time>2022-02-03T13:57:50Z</time>
      </trkpt>
      <trkpt lat="43.35001" lon="2.74535">
        <ele>245.75</ele>
        <time>2022-02-03T13:57:55Z</time>
      </trkpt>
      <trkpt lat="43.3501" lon="2.74523">
        <ele>247.68</ele>
        <time>2022-02-03T13:58:06Z</time>
      </trkpt>
      <trkpt lat="43.35018" lon="2.74509">
        <ele>249.6</ele>
        <time>2022-02-03T13:58:17Z</time>
      </trkpt>
      <trkpt lat="43.35018" lon="2.74508">
        <ele>249.6</ele>
        <time>2022-02-03T13:58:18Z</time>
      </trkpt>
      <trkpt lat="43.35029" lon="2.74493">
        <ele>251.52</ele>
        <time>2022-02-03T13:58:29Z</time>
      </trkpt>
      <trkpt lat="43.3503" lon="2.74491">
        <ele>252</ele>
        <time>2022-02-03T13:58:32Z</time>
      </trkpt>
      <trkpt lat="43.35032" lon="2.74489">
        <ele>252.48</ele>
        <time>2022-02-03T13:58:34Z</time>
      </trkpt>
      <trkpt lat="43.35033" lon="2.74486">
        <ele>252.48</ele>
        <time>2022-02-03T13:58:35Z</time>
      </trkpt>
      <trkpt lat="43.35044" lon="2.74467">
        <ele>253.93</ele>
        <time>2022-02-03T13:58:48Z</time>
      </trkpt>
      <trkpt lat="43.3505" lon="2.74457">
        <ele>254.89</ele>
        <time>2022-02-03T13:58:58Z</time>
      </trkpt>
      <trkpt lat="43.35059" lon="2.7444">
        <ele>255.37</ele>
        <time>2022-02-03T13:59:08Z</time>
      </trkpt>
      <trkpt lat="43.35067" lon="2.74424">
        <ele>256.33</ele>
        <time>2022-02-03T13:59:19Z</time>
      </trkpt>
      <trkpt lat="43.35079" lon="2.74407">
        <ele>257.29</ele>
        <time>2022-02-03T13:59:33Z</time>
      </trkpt>
      <trkpt lat="43.35083" lon="2.74406">
        <ele>256.81</ele>
        <time>2022-02-03T13:59:44Z</time>
      </trkpt>
      <trkpt lat="43.35091" lon="2.74413">
        <ele>256.81</ele>
        <time>2022-02-03T13:59:56Z</time>
      </trkpt>
      <trkpt lat="43.35096" lon="2.74424">
        <ele>254.89</ele>
        <time>2022-02-03T14:00:05Z</time>
      </trkpt>
      <trkpt lat="43.35097" lon="2.74426">
        <ele>257.29</ele>
        <time>2022-02-03T14:00:07Z</time>
      </trkpt>
      <trkpt lat="43.35104" lon="2.7443">
        <ele>255.85</ele>
        <time>2022-02-03T14:00:19Z</time>
      </trkpt>
      <trkpt lat="43.35105" lon="2.7443">
        <ele>256.33</ele>
        <time>2022-02-03T14:00:34Z</time>
      </trkpt>
      <trkpt lat="43.35105" lon="2.74431">
        <ele>255.85</ele>
        <time>2022-02-03T14:00:51Z</time>
      </trkpt>
      <trkpt lat="43.351" lon="2.7443">
        <ele>256.81</ele>
        <time>2022-02-03T14:01:02Z</time>
      </trkpt>
      <trkpt lat="43.35094" lon="2.74424">
        <ele>257.29</ele>
        <time>2022-02-03T14:01:19Z</time>
      </trkpt>
      <trkpt lat="43.35094" lon="2.74421">
        <ele>256.33</ele>
        <time>2022-02-03T14:01:44Z</time>
      </trkpt>
      <trkpt lat="43.35094" lon="2.74422">
        <ele>250.08</ele>
        <time>2022-02-03T14:01:46Z</time>
      </trkpt>
      <trkpt lat="43.35094" lon="2.74422">
        <ele>256.81</ele>
        <time>2022-02-03T14:01:47Z</time>
      </trkpt>
      <trkpt lat="43.35094" lon="2.74423">
        <ele>263.06</ele>
        <time>2022-02-03T14:01:48Z</time>
      </trkpt>
      <trkpt lat="43.35095" lon="2.74423">
        <ele>258.25</ele>
        <time>2022-02-03T14:01:49Z</time>
      </trkpt>
      <trkpt lat="43.35094" lon="2.74422">
        <ele>257.29</ele>
        <time>2022-02-03T14:01:51Z</time>
      </trkpt>
      <trkpt lat="43.35086" lon="2.74407">
        <ele>258.25</ele>
        <time>2022-02-03T14:02:09Z</time>
      </trkpt>
      <trkpt lat="43.35085" lon="2.74405">
        <ele>258.25</ele>
        <time>2022-02-03T14:02:10Z</time>
      </trkpt>
      <trkpt lat="43.35078" lon="2.74391">
        <ele>258.25</ele>
        <time>2022-02-03T14:02:19Z</time>
      </trkpt>
      <trkpt lat="43.35072" lon="2.7438">
        <ele>258.25</ele>
        <time>2022-02-03T14:02:30Z</time>
      </trkpt>
      <trkpt lat="43.35071" lon="2.74377">
        <ele>259.69</ele>
        <time>2022-02-03T14:02:32Z</time>
      </trkpt>
      <trkpt lat="43.35057" lon="2.74353">
        <ele>260.17</ele>
        <time>2022-02-03T14:02:54Z</time>
      </trkpt>
      <trkpt lat="43.35055" lon="2.74353">
        <ele>258.73</ele>
        <time>2022-02-03T14:03:03Z</time>
      </trkpt>
      <trkpt lat="43.35055" lon="2.74352">
        <ele>260.17</ele>
        <time>2022-02-03T14:03:07Z</time>
      </trkpt>
      <trkpt lat="43.35053" lon="2.74349">
        <ele>258.73</ele>
        <time>2022-02-03T14:03:10Z</time>
      </trkpt>
      <trkpt lat="43.3503" lon="2.74324">
        <ele>257.29</ele>
        <time>2022-02-03T14:03:32Z</time>
      </trkpt>
      <trkpt lat="43.35018" lon="2.74316">
        <ele>256.81</ele>
        <time>2022-02-03T14:03:43Z</time>
      </trkpt>
      <trkpt lat="43.34987" lon="2.74311">
        <ele>254.41</ele>
        <time>2022-02-03T14:04:05Z</time>
      </trkpt>
      <trkpt lat="43.34984" lon="2.74309">
        <ele>256.33</ele>
        <time>2022-02-03T14:04:07Z</time>
      </trkpt>
      <trkpt lat="43.34964" lon="2.74294">
        <ele>254.89</ele>
        <time>2022-02-03T14:04:21Z</time>
      </trkpt>
      <trkpt lat="43.34947" lon="2.74283">
        <ele>255.37</ele>
        <time>2022-02-03T14:04:36Z</time>
      </trkpt>
      <trkpt lat="43.34937" lon="2.74276">
        <ele>254.89</ele>
        <time>2022-02-03T14:04:49Z</time>
      </trkpt>
      <trkpt lat="43.34936" lon="2.74275">
        <ele>254.89</ele>
        <time>2022-02-03T14:04:50Z</time>
      </trkpt>
      <trkpt lat="43.34934" lon="2.74275">
        <ele>254.89</ele>
        <time>2022-02-03T14:04:51Z</time>
      </trkpt>
      <trkpt lat="43.34921" lon="2.74267">
        <ele>254.89</ele>
        <time>2022-02-03T14:05:02Z</time>
      </trkpt>
      <trkpt lat="43.3492" lon="2.74268">
        <ele>254.89</ele>
        <time>2022-02-03T14:05:03Z</time>
      </trkpt>
      <trkpt lat="43.34919" lon="2.74269">
        <ele>254.89</ele>
        <time>2022-02-03T14:05:04Z</time>
      </trkpt>
      <trkpt lat="43.3492" lon="2.74273">
        <ele>255.85</ele>
        <time>2022-02-03T14:05:17Z</time>
      </trkpt>
      <trkpt lat="43.3492" lon="2.74271">
        <ele>256.33</ele>
        <time>2022-02-03T14:05:45Z</time>
      </trkpt>
      <trkpt lat="43.34919" lon="2.74269">
        <ele>256.33</ele>
        <time>2022-02-03T14:05:46Z</time>
      </trkpt>
      <trkpt lat="43.34911" lon="2.74264">
        <ele>256.33</ele>
        <time>2022-02-03T14:05:51Z</time>
      </trkpt>
      <trkpt lat="43.34909" lon="2.74263">
        <ele>256.33</ele>
        <time>2022-02-03T14:05:52Z</time>
      </trkpt>
      <trkpt lat="43.34907" lon="2.74261">
        <ele>256.33</ele>
        <time>2022-02-03T14:05:53Z</time>
      </trkpt>
      <trkpt lat="43.34904" lon="2.7426">
        <ele>256.33</ele>
        <time>2022-02-03T14:05:54Z</time>
      </trkpt>
      <trkpt lat="43.34901" lon="2.74259">
        <ele>256.33</ele>
        <time>2022-02-03T14:05:55Z</time>
      </trkpt>
      <trkpt lat="43.34898" lon="2.74258">
        <ele>256.33</ele>
        <time>2022-02-03T14:05:56Z</time>
      </trkpt>
      <trkpt lat="43.34883" lon="2.7425">
        <ele>254.89</ele>
        <time>2022-02-03T14:06:02Z</time>
      </trkpt>
      <trkpt lat="43.34871" lon="2.74244">
        <ele>252</ele>
        <time>2022-02-03T14:06:07Z</time>
      </trkpt>
      <trkpt lat="43.34868" lon="2.7424">
        <ele>252.96</ele>
        <time>2022-02-03T14:06:09Z</time>
      </trkpt>
      <trkpt lat="43.34858" lon="2.74233">
        <ele>249.6</ele>
        <time>2022-02-03T14:06:14Z</time>
      </trkpt>
      <trkpt lat="43.34841" lon="2.74219">
        <ele>248.64</ele>
        <time>2022-02-03T14:06:22Z</time>
      </trkpt>
      <trkpt lat="43.34826" lon="2.74213">
        <ele>246.72</ele>
        <time>2022-02-03T14:06:34Z</time>
      </trkpt>
      <trkpt lat="43.34824" lon="2.74212">
        <ele>246.23</ele>
        <time>2022-02-03T14:06:37Z</time>
      </trkpt>
      <trkpt lat="43.34822" lon="2.74211">
        <ele>246.23</ele>
        <time>2022-02-03T14:06:38Z</time>
      </trkpt>
      <trkpt lat="43.34821" lon="2.74211">
        <ele>246.23</ele>
        <time>2022-02-03T14:06:39Z</time>
      </trkpt>
      <trkpt lat="43.3482" lon="2.7421">
        <ele>246.23</ele>
        <time>2022-02-03T14:06:40Z</time>
      </trkpt>
      <trkpt lat="43.34818" lon="2.7421">
        <ele>246.23</ele>
        <time>2022-02-03T14:06:41Z</time>
      </trkpt>
      <trkpt lat="43.34816" lon="2.74209">
        <ele>246.23</ele>
        <time>2022-02-03T14:06:42Z</time>
      </trkpt>
      <trkpt lat="43.34789" lon="2.74201">
        <ele>245.75</ele>
        <time>2022-02-03T14:06:55Z</time>
      </trkpt>
      <trkpt lat="43.3478" lon="2.742">
        <ele>245.75</ele>
        <time>2022-02-03T14:07:04Z</time>
      </trkpt>
      <trkpt lat="43.34779" lon="2.742">
        <ele>245.75</ele>
        <time>2022-02-03T14:07:05Z</time>
      </trkpt>
      <trkpt lat="43.34777" lon="2.74199">
        <ele>245.75</ele>
        <time>2022-02-03T14:07:06Z</time>
      </trkpt>
      <trkpt lat="43.34775" lon="2.74199">
        <ele>245.75</ele>
        <time>2022-02-03T14:07:07Z</time>
      </trkpt>
      <trkpt lat="43.34773" lon="2.74199">
        <ele>245.27</ele>
        <time>2022-02-03T14:07:08Z</time>
      </trkpt>
      <trkpt lat="43.34752" lon="2.74204">
        <ele>244.31</ele>
        <time>2022-02-03T14:07:21Z</time>
      </trkpt>
      <trkpt lat="43.34729" lon="2.74205">
        <ele>241.91</ele>
        <time>2022-02-03T14:07:34Z</time>
      </trkpt>
      <trkpt lat="43.34728" lon="2.74203">
        <ele>241.91</ele>
        <time>2022-02-03T14:07:36Z</time>
      </trkpt>
      <trkpt lat="43.34726" lon="2.74202">
        <ele>241.43</ele>
        <time>2022-02-03T14:07:37Z</time>
      </trkpt>
      <trkpt lat="43.34725" lon="2.742">
        <ele>241.43</ele>
        <time>2022-02-03T14:07:38Z</time>
      </trkpt>
      <trkpt lat="43.34723" lon="2.74198">
        <ele>241.43</ele>
        <time>2022-02-03T14:07:39Z</time>
      </trkpt>
      <trkpt lat="43.34722" lon="2.74197">
        <ele>241.43</ele>
        <time>2022-02-03T14:07:40Z</time>
      </trkpt>
      <trkpt lat="43.34721" lon="2.74196">
        <ele>241.43</ele>
        <time>2022-02-03T14:07:41Z</time>
      </trkpt>
      <trkpt lat="43.3472" lon="2.74195">
        <ele>240.95</ele>
        <time>2022-02-03T14:07:42Z</time>
      </trkpt>
      <trkpt lat="43.34706" lon="2.74179">
        <ele>239.99</ele>
        <time>2022-02-03T14:07:53Z</time>
      </trkpt>
      <trkpt lat="43.34695" lon="2.74161">
        <ele>238.54</ele>
        <time>2022-02-03T14:08:05Z</time>
      </trkpt>
      <trkpt lat="43.3469" lon="2.74149">
        <ele>236.14</ele>
        <time>2022-02-03T14:08:20Z</time>
      </trkpt>
      <trkpt lat="43.34688" lon="2.74145">
        <ele>235.66</ele>
        <time>2022-02-03T14:08:27Z</time>
      </trkpt>
      <trkpt lat="43.34687" lon="2.74146">
        <ele>235.66</ele>
        <time>2022-02-03T14:08:28Z</time>
      </trkpt>
      <trkpt lat="43.34686" lon="2.74148">
        <ele>235.66</ele>
        <time>2022-02-03T14:08:29Z</time>
      </trkpt>
      <trkpt lat="43.34686" lon="2.7415">
        <ele>235.66</ele>
        <time>2022-02-03T14:08:30Z</time>
      </trkpt>
      <trkpt lat="43.34685" lon="2.74152">
        <ele>235.66</ele>
        <time>2022-02-03T14:08:31Z</time>
      </trkpt>
      <trkpt lat="43.34684" lon="2.74155">
        <ele>235.66</ele>
        <time>2022-02-03T14:08:35Z</time>
      </trkpt>
      <trkpt lat="43.34688" lon="2.74165">
        <ele>239.02</ele>
        <time>2022-02-03T14:08:41Z</time>
      </trkpt>
      <trkpt lat="43.34689" lon="2.74168">
        <ele>239.51</ele>
        <time>2022-02-03T14:08:44Z</time>
      </trkpt>
      <trkpt lat="43.34689" lon="2.7417">
        <ele>239.51</ele>
        <time>2022-02-03T14:08:45Z</time>
      </trkpt>
      <trkpt lat="43.3469" lon="2.74172">
        <ele>239.51</ele>
        <time>2022-02-03T14:08:46Z</time>
      </trkpt>
      <trkpt lat="43.34692" lon="2.74174">
        <ele>240.47</ele>
        <time>2022-02-03T14:08:47Z</time>
      </trkpt>
      <trkpt lat="43.34692" lon="2.74177">
        <ele>240.47</ele>
        <time>2022-02-03T14:08:48Z</time>
      </trkpt>
      <trkpt lat="43.34698" lon="2.7419">
        <ele>242.39</ele>
        <time>2022-02-03T14:09:01Z</time>
      </trkpt>
      <trkpt lat="43.34701" lon="2.74195">
        <ele>243.35</ele>
        <time>2022-02-03T14:09:09Z</time>
      </trkpt>
      <trkpt lat="43.34702" lon="2.74199">
        <ele>242.87</ele>
        <time>2022-02-03T14:09:11Z</time>
      </trkpt>
      <trkpt lat="43.34705" lon="2.74216">
        <ele>247.2</ele>
        <time>2022-02-03T14:09:20Z</time>
      </trkpt>
      <trkpt lat="43.34703" lon="2.74228">
        <ele>247.2</ele>
        <time>2022-02-03T14:09:29Z</time>
      </trkpt>
      <trkpt lat="43.3471" lon="2.74252">
        <ele>249.12</ele>
        <time>2022-02-03T14:09:45Z</time>
      </trkpt>
      <trkpt lat="43.34718" lon="2.74269">
        <ele>251.04</ele>
        <time>2022-02-03T14:09:58Z</time>
      </trkpt>
      <trkpt lat="43.34719" lon="2.74271">
        <ele>252.96</ele>
        <time>2022-02-03T14:10:00Z</time>
      </trkpt>
      <trkpt lat="43.34723" lon="2.74295">
        <ele>252.96</ele>
        <time>2022-02-03T14:10:12Z</time>
      </trkpt>
      <trkpt lat="43.3472" lon="2.74298">
        <ele>253.93</ele>
        <time>2022-02-03T14:10:18Z</time>
      </trkpt>
      <trkpt lat="43.34719" lon="2.74298">
        <ele>253.93</ele>
        <time>2022-02-03T14:10:19Z</time>
      </trkpt>
      <trkpt lat="43.34717" lon="2.74297">
        <ele>253.93</ele>
        <time>2022-02-03T14:10:21Z</time>
      </trkpt>
      <trkpt lat="43.34701" lon="2.7429">
        <ele>254.89</ele>
        <time>2022-02-03T14:10:37Z</time>
      </trkpt>
      <trkpt lat="43.34701" lon="2.74291">
        <ele>254.89</ele>
        <time>2022-02-03T14:10:39Z</time>
      </trkpt>
      <trkpt lat="43.34704" lon="2.74291">
        <ele>254.89</ele>
        <time>2022-02-03T14:10:41Z</time>
      </trkpt>
      <trkpt lat="43.34705" lon="2.7429">
        <ele>254.89</ele>
        <time>2022-02-03T14:10:43Z</time>
      </trkpt>
      <trkpt lat="43.34712" lon="2.74293">
        <ele>254.89</ele>
        <time>2022-02-03T14:10:48Z</time>
      </trkpt>
      <trkpt lat="43.34712" lon="2.74297">
        <ele>255.37</ele>
        <time>2022-02-03T14:10:51Z</time>
      </trkpt>
      <trkpt lat="43.34713" lon="2.74302">
        <ele>255.37</ele>
        <time>2022-02-03T14:10:58Z</time>
      </trkpt>
      <trkpt lat="43.34725" lon="2.74294">
        <ele>254.41</ele>
        <time>2022-02-03T14:11:09Z</time>
      </trkpt>
      <trkpt lat="43.34728" lon="2.74295">
        <ele>254.41</ele>
        <time>2022-02-03T14:11:18Z</time>
      </trkpt>
      <trkpt lat="43.34731" lon="2.74298">
        <ele>254.41</ele>
        <time>2022-02-03T14:11:25Z</time>
      </trkpt>
      <trkpt lat="43.34732" lon="2.74299">
        <ele>254.41</ele>
        <time>2022-02-03T14:11:26Z</time>
      </trkpt>
      <trkpt lat="43.34734" lon="2.743">
        <ele>254.41</ele>
        <time>2022-02-03T14:11:27Z</time>
      </trkpt>
      <trkpt lat="43.34734" lon="2.74302">
        <ele>254.41</ele>
        <time>2022-02-03T14:11:28Z</time>
      </trkpt>
      <trkpt lat="43.34735" lon="2.74303">
        <ele>254.41</ele>
        <time>2022-02-03T14:11:29Z</time>
      </trkpt>
      <trkpt lat="43.34737" lon="2.74315">
        <ele>256.33</ele>
        <time>2022-02-03T14:11:39Z</time>
      </trkpt>
      <trkpt lat="43.34737" lon="2.7432">
        <ele>257.77</ele>
        <time>2022-02-03T14:11:45Z</time>
      </trkpt>
      <trkpt lat="43.34738" lon="2.74322">
        <ele>257.77</ele>
        <time>2022-02-03T14:11:46Z</time>
      </trkpt>
      <trkpt lat="43.34738" lon="2.74324">
        <ele>257.77</ele>
        <time>2022-02-03T14:11:47Z</time>
      </trkpt>
      <trkpt lat="43.34741" lon="2.7434">
        <ele>259.69</ele>
        <time>2022-02-03T14:11:58Z</time>
      </trkpt>
      <trkpt lat="43.34743" lon="2.74344">
        <ele>261.14</ele>
        <time>2022-02-03T14:12:02Z</time>
      </trkpt>
      <trkpt lat="43.34743" lon="2.74347">
        <ele>261.14</ele>
        <time>2022-02-03T14:12:03Z</time>
      </trkpt>
      <trkpt lat="43.34743" lon="2.74349">
        <ele>261.62</ele>
        <time>2022-02-03T14:12:04Z</time>
      </trkpt>
      <trkpt lat="43.34743" lon="2.7435">
        <ele>261.62</ele>
        <time>2022-02-03T14:12:05Z</time>
      </trkpt>
      <trkpt lat="43.34739" lon="2.74365">
        <ele>263.06</ele>
        <time>2022-02-03T14:12:16Z</time>
      </trkpt>
      <trkpt lat="43.34737" lon="2.74367">
        <ele>264.5</ele>
        <time>2022-02-03T14:12:19Z</time>
      </trkpt>
      <trkpt lat="43.34726" lon="2.74381">
        <ele>266.42</ele>
        <time>2022-02-03T14:12:35Z</time>
      </trkpt>
      <trkpt lat="43.34724" lon="2.74382">
        <ele>264.98</ele>
        <time>2022-02-03T14:12:37Z</time>
      </trkpt>
      <trkpt lat="43.34723" lon="2.74383">
        <ele>268.83</ele>
        <time>2022-02-03T14:12:39Z</time>
      </trkpt>
      <trkpt lat="43.34723" lon="2.74383">
        <ele>266.42</ele>
        <time>2022-02-03T14:12:40Z</time>
      </trkpt>
      <trkpt lat="43.34723" lon="2.74383">
        <ele>265.94</ele>
        <time>2022-02-03T14:12:42Z</time>
      </trkpt>
      <trkpt lat="43.3472" lon="2.74388">
        <ele>267.86</ele>
        <time>2022-02-03T14:12:55Z</time>
      </trkpt>
      <trkpt lat="43.34719" lon="2.7439">
        <ele>266.42</ele>
        <time>2022-02-03T14:13:00Z</time>
      </trkpt>
      <trkpt lat="43.34708" lon="2.74398">
        <ele>268.83</ele>
        <time>2022-02-03T14:13:16Z</time>
      </trkpt>
      <trkpt lat="43.34706" lon="2.744">
        <ele>268.83</ele>
        <time>2022-02-03T14:13:18Z</time>
      </trkpt>
      <trkpt lat="43.3469" lon="2.74413">
        <ele>269.79</ele>
        <time>2022-02-03T14:13:34Z</time>
      </trkpt>
      <trkpt lat="43.34678" lon="2.74424">
        <ele>269.79</ele>
        <time>2022-02-03T14:13:44Z</time>
      </trkpt>
      <trkpt lat="43.34677" lon="2.74425">
        <ele>269.79</ele>
        <time>2022-02-03T14:13:45Z</time>
      </trkpt>
      <trkpt lat="43.34676" lon="2.74426">
        <ele>269.79</ele>
        <time>2022-02-03T14:13:46Z</time>
      </trkpt>
      <trkpt lat="43.34675" lon="2.74427">
        <ele>269.79</ele>
        <time>2022-02-03T14:13:47Z</time>
      </trkpt>
      <trkpt lat="43.34674" lon="2.74427">
        <ele>269.79</ele>
        <time>2022-02-03T14:13:48Z</time>
      </trkpt>
      <trkpt lat="43.34672" lon="2.74428">
        <ele>269.79</ele>
        <time>2022-02-03T14:13:49Z</time>
      </trkpt>
      <trkpt lat="43.34671" lon="2.74428">
        <ele>269.79</ele>
        <time>2022-02-03T14:13:50Z</time>
      </trkpt>
      <trkpt lat="43.34657" lon="2.74432">
        <ele>268.83</ele>
        <time>2022-02-03T14:14:01Z</time>
      </trkpt>
      <trkpt lat="43.34646" lon="2.74432">
        <ele>268.83</ele>
        <time>2022-02-03T14:14:11Z</time>
      </trkpt>
      <trkpt lat="43.34636" lon="2.74426">
        <ele>270.27</ele>
        <time>2022-02-03T14:14:20Z</time>
      </trkpt>
      <trkpt lat="43.34626" lon="2.74415">
        <ele>270.75</ele>
        <time>2022-02-03T14:14:32Z</time>
      </trkpt>
      <trkpt lat="43.34625" lon="2.74413">
        <ele>270.75</ele>
        <time>2022-02-03T14:14:34Z</time>
      </trkpt>
      <trkpt lat="43.34623" lon="2.74413">
        <ele>270.75</ele>
        <time>2022-02-03T14:14:35Z</time>
      </trkpt>
      <trkpt lat="43.34622" lon="2.74411">
        <ele>270.75</ele>
        <time>2022-02-03T14:14:36Z</time>
      </trkpt>
      <trkpt lat="43.34608" lon="2.74406">
        <ele>270.75</ele>
        <time>2022-02-03T14:14:47Z</time>
      </trkpt>
      <trkpt lat="43.34598" lon="2.74403">
        <ele>269.31</ele>
        <time>2022-02-03T14:14:55Z</time>
      </trkpt>
      <trkpt lat="43.34597" lon="2.74402">
        <ele>269.31</ele>
        <time>2022-02-03T14:14:56Z</time>
      </trkpt>
      <trkpt lat="43.34588" lon="2.74392">
        <ele>267.86</ele>
        <time>2022-02-03T14:15:06Z</time>
      </trkpt>
      <trkpt lat="43.34579" lon="2.74388">
        <ele>266.42</ele>
        <time>2022-02-03T14:15:17Z</time>
      </trkpt>
      <trkpt lat="43.34577" lon="2.74387">
        <ele>266.9</ele>
        <time>2022-02-03T14:15:19Z</time>
      </trkpt>
      <trkpt lat="43.34568" lon="2.74387">
        <ele>266.9</ele>
        <time>2022-02-03T14:15:32Z</time>
      </trkpt>
      <trkpt lat="43.34567" lon="2.74388">
        <ele>267.86</ele>
        <time>2022-02-03T14:15:34Z</time>
      </trkpt>
      <trkpt lat="43.34569" lon="2.74385">
        <ele>267.86</ele>
        <time>2022-02-03T14:15:46Z</time>
      </trkpt>
      <trkpt lat="43.34571" lon="2.74384">
        <ele>266.9</ele>
        <time>2022-02-03T14:15:48Z</time>
      </trkpt>
      <trkpt lat="43.34569" lon="2.74379">
        <ele>266.9</ele>
        <time>2022-02-03T14:15:59Z</time>
      </trkpt>
      <trkpt lat="43.34572" lon="2.74382">
        <ele>266.9</ele>
        <time>2022-02-03T14:16:11Z</time>
      </trkpt>
      <trkpt lat="43.34572" lon="2.74382">
        <ele>266.9</ele>
        <time>2022-02-03T14:16:14Z</time>
      </trkpt>
      <trkpt lat="43.34574" lon="2.74385">
        <ele>266.9</ele>
        <time>2022-02-03T14:16:19Z</time>
      </trkpt>
      <trkpt lat="43.34576" lon="2.74384">
        <ele>266.9</ele>
        <time>2022-02-03T14:16:38Z</time>
      </trkpt>
      <trkpt lat="43.34582" lon="2.74388">
        <ele>268.35</ele>
        <time>2022-02-03T14:16:48Z</time>
      </trkpt>
      <trkpt lat="43.34587" lon="2.7439">
        <ele>268.83</ele>
        <time>2022-02-03T14:17:05Z</time>
      </trkpt>
      <trkpt lat="43.34593" lon="2.74398">
        <ele>269.79</ele>
        <time>2022-02-03T14:17:21Z</time>
      </trkpt>
      <trkpt lat="43.346" lon="2.74405">
        <ele>270.75</ele>
        <time>2022-02-03T14:17:28Z</time>
      </trkpt>
      <trkpt lat="43.34612" lon="2.74407">
        <ele>271.71</ele>
        <time>2022-02-03T14:17:41Z</time>
      </trkpt>
      <trkpt lat="43.34629" lon="2.7442">
        <ele>271.71</ele>
        <time>2022-02-03T14:17:58Z</time>
      </trkpt>
      <trkpt lat="43.34633" lon="2.74426">
        <ele>271.71</ele>
        <time>2022-02-03T14:18:02Z</time>
      </trkpt>
      <trkpt lat="43.34635" lon="2.74429">
        <ele>271.23</ele>
        <time>2022-02-03T14:18:05Z</time>
      </trkpt>
      <trkpt lat="43.34641" lon="2.74432">
        <ele>270.75</ele>
        <time>2022-02-03T14:18:09Z</time>
      </trkpt>
      <trkpt lat="43.34642" lon="2.74433">
        <ele>270.75</ele>
        <time>2022-02-03T14:18:10Z</time>
      </trkpt>
      <trkpt lat="43.34653" lon="2.74434">
        <ele>271.23</ele>
        <time>2022-02-03T14:18:21Z</time>
      </trkpt>
      <trkpt lat="43.34667" lon="2.74428">
        <ele>270.75</ele>
        <time>2022-02-03T14:18:36Z</time>
      </trkpt>
      <trkpt lat="43.34679" lon="2.7442">
        <ele>271.71</ele>
        <time>2022-02-03T14:18:46Z</time>
      </trkpt>
      <trkpt lat="43.34698" lon="2.74406">
        <ele>271.71</ele>
        <time>2022-02-03T14:19:06Z</time>
      </trkpt>
      <trkpt lat="43.34707" lon="2.74399">
        <ele>270.75</ele>
        <time>2022-02-03T14:19:14Z</time>
      </trkpt>
      <trkpt lat="43.34708" lon="2.74399">
        <ele>270.75</ele>
        <time>2022-02-03T14:19:15Z</time>
      </trkpt>
      <trkpt lat="43.34709" lon="2.74399">
        <ele>270.75</ele>
        <time>2022-02-03T14:19:16Z</time>
      </trkpt>
      <trkpt lat="43.34711" lon="2.74398">
        <ele>270.27</ele>
        <time>2022-02-03T14:19:17Z</time>
      </trkpt>
      <trkpt lat="43.34713" lon="2.74397">
        <ele>270.27</ele>
        <time>2022-02-03T14:19:18Z</time>
      </trkpt>
      <trkpt lat="43.34722" lon="2.74387">
        <ele>269.31</ele>
        <time>2022-02-03T14:19:28Z</time>
      </trkpt>
      <trkpt lat="43.34725" lon="2.74384">
        <ele>268.83</ele>
        <time>2022-02-03T14:19:34Z</time>
      </trkpt>
      <trkpt lat="43.34726" lon="2.74383">
        <ele>268.35</ele>
        <time>2022-02-03T14:19:35Z</time>
      </trkpt>
      <trkpt lat="43.34727" lon="2.74381">
        <ele>268.35</ele>
        <time>2022-02-03T14:19:36Z</time>
      </trkpt>
      <trkpt lat="43.34729" lon="2.74379">
        <ele>268.35</ele>
        <time>2022-02-03T14:19:37Z</time>
      </trkpt>
      <trkpt lat="43.3473" lon="2.74378">
        <ele>267.38</ele>
        <time>2022-02-03T14:19:38Z</time>
      </trkpt>
      <trkpt lat="43.34731" lon="2.74377">
        <ele>267.38</ele>
        <time>2022-02-03T14:19:39Z</time>
      </trkpt>
      <trkpt lat="43.34732" lon="2.74376">
        <ele>267.38</ele>
        <time>2022-02-03T14:19:40Z</time>
      </trkpt>
      <trkpt lat="43.3474" lon="2.74368">
        <ele>266.42</ele>
        <time>2022-02-03T14:19:50Z</time>
      </trkpt>
      <trkpt lat="43.34742" lon="2.74363">
        <ele>265.94</ele>
        <time>2022-02-03T14:19:55Z</time>
      </trkpt>
      <trkpt lat="43.34743" lon="2.74361">
        <ele>265.94</ele>
        <time>2022-02-03T14:19:56Z</time>
      </trkpt>
      <trkpt lat="43.34743" lon="2.7436">
        <ele>265.94</ele>
        <time>2022-02-03T14:19:57Z</time>
      </trkpt>
      <trkpt lat="43.34743" lon="2.74358">
        <ele>264.98</ele>
        <time>2022-02-03T14:19:58Z</time>
      </trkpt>
      <trkpt lat="43.34743" lon="2.74357">
        <ele>264.98</ele>
        <time>2022-02-03T14:19:59Z</time>
      </trkpt>
      <trkpt lat="43.34743" lon="2.74343">
        <ele>262.58</ele>
        <time>2022-02-03T14:20:11Z</time>
      </trkpt>
      <trkpt lat="43.34739" lon="2.74322">
        <ele>260.65</ele>
        <time>2022-02-03T14:20:23Z</time>
      </trkpt>
      <trkpt lat="43.34733" lon="2.74299">
        <ele>258.25</ele>
        <time>2022-02-03T14:20:37Z</time>
      </trkpt>
      <trkpt lat="43.34718" lon="2.74296">
        <ele>257.77</ele>
        <time>2022-02-03T14:20:49Z</time>
      </trkpt>
      <trkpt lat="43.34711" lon="2.74293">
        <ele>257.77</ele>
        <time>2022-02-03T14:20:58Z</time>
      </trkpt>
      <trkpt lat="43.34709" lon="2.74293">
        <ele>257.77</ele>
        <time>2022-02-03T14:20:59Z</time>
      </trkpt>
      <trkpt lat="43.34707" lon="2.74291">
        <ele>257.77</ele>
        <time>2022-02-03T14:21:01Z</time>
      </trkpt>
      <trkpt lat="43.34703" lon="2.74291">
        <ele>257.77</ele>
        <time>2022-02-03T14:21:05Z</time>
      </trkpt>
      <trkpt lat="43.34683" lon="2.74292">
        <ele>257.77</ele>
        <time>2022-02-03T14:21:24Z</time>
      </trkpt>
      <trkpt lat="43.34682" lon="2.74291">
        <ele>257.77</ele>
        <time>2022-02-03T14:21:28Z</time>
      </trkpt>
      <trkpt lat="43.34673" lon="2.74296">
        <ele>257.77</ele>
        <time>2022-02-03T14:21:34Z</time>
      </trkpt>
      <trkpt lat="43.34655" lon="2.74299">
        <ele>257.77</ele>
        <time>2022-02-03T14:21:50Z</time>
      </trkpt>
      <trkpt lat="43.34633" lon="2.74302">
        <ele>257.29</ele>
        <time>2022-02-03T14:22:03Z</time>
      </trkpt>
      <trkpt lat="43.34632" lon="2.74301">
        <ele>257.29</ele>
        <time>2022-02-03T14:22:04Z</time>
      </trkpt>
      <trkpt lat="43.3463" lon="2.74288">
        <ele>255.37</ele>
        <time>2022-02-03T14:22:17Z</time>
      </trkpt>
      <trkpt lat="43.34615" lon="2.74276">
        <ele>255.37</ele>
        <time>2022-02-03T14:22:27Z</time>
      </trkpt>
      <trkpt lat="43.346" lon="2.74284">
        <ele>255.37</ele>
        <time>2022-02-03T14:22:40Z</time>
      </trkpt>
      <trkpt lat="43.34594" lon="2.74299">
        <ele>255.37</ele>
        <time>2022-02-03T14:22:52Z</time>
      </trkpt>
      <trkpt lat="43.34592" lon="2.74307">
        <ele>255.37</ele>
        <time>2022-02-03T14:22:56Z</time>
      </trkpt>
      <trkpt lat="43.34589" lon="2.7431">
        <ele>255.37</ele>
        <time>2022-02-03T14:23:08Z</time>
      </trkpt>
      <trkpt lat="43.34588" lon="2.74309">
        <ele>255.37</ele>
        <time>2022-02-03T14:23:20Z</time>
      </trkpt>
      <trkpt lat="43.34588" lon="2.74308">
        <ele>255.85</ele>
        <time>2022-02-03T14:23:30Z</time>
      </trkpt>
      <trkpt lat="43.34587" lon="2.74308">
        <ele>255.85</ele>
        <time>2022-02-03T14:23:33Z</time>
      </trkpt>
      <trkpt lat="43.34586" lon="2.74307">
        <ele>254.41</ele>
        <time>2022-02-03T14:23:35Z</time>
      </trkpt>
      <trkpt lat="43.34581" lon="2.74306">
        <ele>254.41</ele>
        <time>2022-02-03T14:23:44Z</time>
      </trkpt>
      <trkpt lat="43.34584" lon="2.74305">
        <ele>254.41</ele>
        <time>2022-02-03T14:23:56Z</time>
      </trkpt>
      <trkpt lat="43.34584" lon="2.74303">
        <ele>254.41</ele>
        <time>2022-02-03T14:23:59Z</time>
      </trkpt>
      <trkpt lat="43.34588" lon="2.74297">
        <ele>253.93</ele>
        <time>2022-02-03T14:24:05Z</time>
      </trkpt>
      <trkpt lat="43.34591" lon="2.74295">
        <ele>253.93</ele>
        <time>2022-02-03T14:24:16Z</time>
      </trkpt>
      <trkpt lat="43.34589" lon="2.74297">
        <ele>253.93</ele>
        <time>2022-02-03T14:24:22Z</time>
      </trkpt>
      <trkpt lat="43.34587" lon="2.74306">
        <ele>254.89</ele>
        <time>2022-02-03T14:24:37Z</time>
      </trkpt>
      <trkpt lat="43.34587" lon="2.74307">
        <ele>253.44</ele>
        <time>2022-02-03T14:24:43Z</time>
      </trkpt>
      <trkpt lat="43.34587" lon="2.74307">
        <ele>254.89</ele>
        <time>2022-02-03T14:24:46Z</time>
      </trkpt>
      <trkpt lat="43.34587" lon="2.74307">
        <ele>254.89</ele>
        <time>2022-02-03T14:25:14Z</time>
      </trkpt>
      <trkpt lat="43.34588" lon="2.74307">
        <ele>253.93</ele>
        <time>2022-02-03T14:25:20Z</time>
      </trkpt>
      <trkpt lat="43.34587" lon="2.74308">
        <ele>250.56</ele>
        <time>2022-02-03T14:25:42Z</time>
      </trkpt>
      <trkpt lat="43.34587" lon="2.74308">
        <ele>256.33</ele>
        <time>2022-02-03T14:25:43Z</time>
      </trkpt>
      <trkpt lat="43.34587" lon="2.74307">
        <ele>252.96</ele>
        <time>2022-02-03T14:25:46Z</time>
      </trkpt>
      <trkpt lat="43.34592" lon="2.74291">
        <ele>253.44</ele>
        <time>2022-02-03T14:26:02Z</time>
      </trkpt>
      <trkpt lat="43.34592" lon="2.74287">
        <ele>252</ele>
        <time>2022-02-03T14:26:05Z</time>
      </trkpt>
      <trkpt lat="43.34591" lon="2.74275">
        <ele>250.56</ele>
        <time>2022-02-03T14:26:20Z</time>
      </trkpt>
      <trkpt lat="43.34591" lon="2.74273">
        <ele>252</ele>
        <time>2022-02-03T14:26:23Z</time>
      </trkpt>
      <trkpt lat="43.34592" lon="2.74272">
        <ele>247.68</ele>
        <time>2022-02-03T14:26:32Z</time>
      </trkpt>
      <trkpt lat="43.34592" lon="2.74272">
        <ele>251.52</ele>
        <time>2022-02-03T14:26:33Z</time>
      </trkpt>
      <trkpt lat="43.34592" lon="2.74272">
        <ele>251.52</ele>
        <time>2022-02-03T14:26:34Z</time>
      </trkpt>
      <trkpt lat="43.34592" lon="2.74272">
        <ele>250.56</ele>
        <time>2022-02-03T14:26:36Z</time>
      </trkpt>
      <trkpt lat="43.34592" lon="2.74273">
        <ele>251.04</ele>
        <time>2022-02-03T14:26:40Z</time>
      </trkpt>
      <trkpt lat="43.34594" lon="2.74273">
        <ele>251.04</ele>
        <time>2022-02-03T14:26:59Z</time>
      </trkpt>
      <trkpt lat="43.34588" lon="2.74269">
        <ele>251.52</ele>
        <time>2022-02-03T14:27:13Z</time>
      </trkpt>
      <trkpt lat="43.34585" lon="2.7427">
        <ele>250.08</ele>
        <time>2022-02-03T14:27:15Z</time>
      </trkpt>
      <trkpt lat="43.34578" lon="2.7427">
        <ele>252.48</ele>
        <time>2022-02-03T14:27:21Z</time>
      </trkpt>
      <trkpt lat="43.34576" lon="2.7427">
        <ele>250.56</ele>
        <time>2022-02-03T14:27:23Z</time>
      </trkpt>
      <trkpt lat="43.34572" lon="2.7427">
        <ele>252</ele>
        <time>2022-02-03T14:27:27Z</time>
      </trkpt>
      <trkpt lat="43.34552" lon="2.74271">
        <ele>252</ele>
        <time>2022-02-03T14:27:44Z</time>
      </trkpt>
      <trkpt lat="43.34551" lon="2.7427">
        <ele>252</ele>
        <time>2022-02-03T14:27:46Z</time>
      </trkpt>
      <trkpt lat="43.3454" lon="2.74269">
        <ele>252.48</ele>
        <time>2022-02-03T14:27:55Z</time>
      </trkpt>
      <trkpt lat="43.34535" lon="2.74266">
        <ele>252.48</ele>
        <time>2022-02-03T14:27:58Z</time>
      </trkpt>
      <trkpt lat="43.34532" lon="2.74257">
        <ele>252.48</ele>
        <time>2022-02-03T14:28:03Z</time>
      </trkpt>
      <trkpt lat="43.34523" lon="2.74239">
        <ele>251.04</ele>
        <time>2022-02-03T14:28:17Z</time>
      </trkpt>
      <trkpt lat="43.34523" lon="2.74238">
        <ele>251.04</ele>
        <time>2022-02-03T14:28:18Z</time>
      </trkpt>
      <trkpt lat="43.34517" lon="2.7424">
        <ele>250.56</ele>
        <time>2022-02-03T14:28:25Z</time>
      </trkpt>
      <trkpt lat="43.34508" lon="2.7424">
        <ele>252</ele>
        <time>2022-02-03T14:28:36Z</time>
      </trkpt>
      <trkpt lat="43.34493" lon="2.74251">
        <ele>252.48</ele>
        <time>2022-02-03T14:28:52Z</time>
      </trkpt>
      <trkpt lat="43.34492" lon="2.74252">
        <ele>252.48</ele>
        <time>2022-02-03T14:28:53Z</time>
      </trkpt>
      <trkpt lat="43.34488" lon="2.74253">
        <ele>252.96</ele>
        <time>2022-02-03T14:28:57Z</time>
      </trkpt>
      <trkpt lat="43.34478" lon="2.74262">
        <ele>252.48</ele>
        <time>2022-02-03T14:29:07Z</time>
      </trkpt>
      <trkpt lat="43.34465" lon="2.74266">
        <ele>253.44</ele>
        <time>2022-02-03T14:29:17Z</time>
      </trkpt>
      <trkpt lat="43.34449" lon="2.7427">
        <ele>253.44</ele>
        <time>2022-02-03T14:29:29Z</time>
      </trkpt>
      <trkpt lat="43.34448" lon="2.7427">
        <ele>253.44</ele>
        <time>2022-02-03T14:29:30Z</time>
      </trkpt>
      <trkpt lat="43.34439" lon="2.74274">
        <ele>252.48</ele>
        <time>2022-02-03T14:29:36Z</time>
      </trkpt>
      <trkpt lat="43.34434" lon="2.74272">
        <ele>252.48</ele>
        <time>2022-02-03T14:29:42Z</time>
      </trkpt>
      <trkpt lat="43.34427" lon="2.74264">
        <ele>252.48</ele>
        <time>2022-02-03T14:29:49Z</time>
      </trkpt>
      <trkpt lat="43.34423" lon="2.74247">
        <ele>252</ele>
        <time>2022-02-03T14:30:02Z</time>
      </trkpt>
      <trkpt lat="43.3442" lon="2.74229">
        <ele>250.56</ele>
        <time>2022-02-03T14:30:14Z</time>
      </trkpt>
      <trkpt lat="43.3442" lon="2.74227">
        <ele>250.56</ele>
        <time>2022-02-03T14:30:17Z</time>
      </trkpt>
      <trkpt lat="43.34414" lon="2.74216">
        <ele>250.08</ele>
        <time>2022-02-03T14:30:30Z</time>
      </trkpt>
      <trkpt lat="43.3441" lon="2.74219">
        <ele>250.08</ele>
        <time>2022-02-03T14:30:37Z</time>
      </trkpt>
      <trkpt lat="43.34406" lon="2.74229">
        <ele>250.08</ele>
        <time>2022-02-03T14:30:47Z</time>
      </trkpt>
      <trkpt lat="43.34403" lon="2.74245">
        <ele>251.52</ele>
        <time>2022-02-03T14:30:59Z</time>
      </trkpt>
      <trkpt lat="43.34401" lon="2.74252">
        <ele>251.52</ele>
        <time>2022-02-03T14:31:05Z</time>
      </trkpt>
      <trkpt lat="43.34396" lon="2.74267">
        <ele>253.44</ele>
        <time>2022-02-03T14:31:17Z</time>
      </trkpt>
      <trkpt lat="43.34394" lon="2.74271">
        <ele>253.44</ele>
        <time>2022-02-03T14:31:19Z</time>
      </trkpt>
      <trkpt lat="43.34393" lon="2.74274">
        <ele>253.93</ele>
        <time>2022-02-03T14:31:20Z</time>
      </trkpt>
      <trkpt lat="43.34393" lon="2.74276">
        <ele>253.93</ele>
        <time>2022-02-03T14:31:21Z</time>
      </trkpt>
      <trkpt lat="43.34392" lon="2.74277">
        <ele>253.93</ele>
        <time>2022-02-03T14:31:22Z</time>
      </trkpt>
      <trkpt lat="43.34389" lon="2.74282">
        <ele>254.89</ele>
        <time>2022-02-03T14:31:28Z</time>
      </trkpt>
      <trkpt lat="43.34387" lon="2.74283">
        <ele>254.89</ele>
        <time>2022-02-03T14:31:29Z</time>
      </trkpt>
      <trkpt lat="43.34381" lon="2.74292">
        <ele>256.33</ele>
        <time>2022-02-03T14:31:38Z</time>
      </trkpt>
      <trkpt lat="43.34378" lon="2.74294">
        <ele>256.81</ele>
        <time>2022-02-03T14:31:48Z</time>
      </trkpt>
      <trkpt lat="43.34382" lon="2.74289">
        <ele>256.81</ele>
        <time>2022-02-03T14:31:58Z</time>
      </trkpt>
      <trkpt lat="43.34382" lon="2.74289">
        <ele>255.85</ele>
        <time>2022-02-03T14:32:01Z</time>
      </trkpt>
      <trkpt lat="43.34379" lon="2.74294">
        <ele>255.85</ele>
        <time>2022-02-03T14:32:06Z</time>
      </trkpt>
      <trkpt lat="43.34379" lon="2.74295">
        <ele>255.85</ele>
        <time>2022-02-03T14:32:07Z</time>
      </trkpt>
      <trkpt lat="43.34378" lon="2.74297">
        <ele>255.85</ele>
        <time>2022-02-03T14:32:08Z</time>
      </trkpt>
      <trkpt lat="43.34378" lon="2.74299">
        <ele>256.81</ele>
        <time>2022-02-03T14:32:09Z</time>
      </trkpt>
      <trkpt lat="43.34377" lon="2.74302">
        <ele>256.81</ele>
        <time>2022-02-03T14:32:10Z</time>
      </trkpt>
      <trkpt lat="43.34376" lon="2.74304">
        <ele>256.81</ele>
        <time>2022-02-03T14:32:11Z</time>
      </trkpt>
      <trkpt lat="43.34376" lon="2.74306">
        <ele>257.29</ele>
        <time>2022-02-03T14:32:12Z</time>
      </trkpt>
      <trkpt lat="43.34375" lon="2.74308">
        <ele>257.29</ele>
        <time>2022-02-03T14:32:13Z</time>
      </trkpt>
      <trkpt lat="43.34374" lon="2.7431">
        <ele>257.29</ele>
        <time>2022-02-03T14:32:14Z</time>
      </trkpt>
      <trkpt lat="43.3437" lon="2.74317">
        <ele>258.73</ele>
        <time>2022-02-03T14:32:21Z</time>
      </trkpt>
      <trkpt lat="43.34369" lon="2.74318">
        <ele>258.73</ele>
        <time>2022-02-03T14:32:22Z</time>
      </trkpt>
      <trkpt lat="43.34369" lon="2.74319">
        <ele>258.73</ele>
        <time>2022-02-03T14:32:23Z</time>
      </trkpt>
      <trkpt lat="43.34369" lon="2.74321">
        <ele>258.73</ele>
        <time>2022-02-03T14:32:24Z</time>
      </trkpt>
      <trkpt lat="43.34368" lon="2.74323">
        <ele>258.73</ele>
        <time>2022-02-03T14:32:25Z</time>
      </trkpt>
      <trkpt lat="43.34369" lon="2.74341">
        <ele>262.58</ele>
        <time>2022-02-03T14:32:37Z</time>
      </trkpt>
      <trkpt lat="43.34371" lon="2.74346">
        <ele>259.69</ele>
        <time>2022-02-03T14:32:41Z</time>
      </trkpt>
      <trkpt lat="43.34372" lon="2.74347">
        <ele>262.58</ele>
        <time>2022-02-03T14:32:42Z</time>
      </trkpt>
      <trkpt lat="43.34371" lon="2.74355">
        <ele>264.5</ele>
        <time>2022-02-03T14:32:56Z</time>
      </trkpt>
      <trkpt lat="43.34367" lon="2.74362">
        <ele>265.46</ele>
        <time>2022-02-03T14:33:08Z</time>
      </trkpt>
      <trkpt lat="43.3437" lon="2.74367">
        <ele>265.94</ele>
        <time>2022-02-03T14:33:15Z</time>
      </trkpt>
      <trkpt lat="43.34368" lon="2.7438">
        <ele>267.86</ele>
        <time>2022-02-03T14:33:30Z</time>
      </trkpt>
      <trkpt lat="43.34368" lon="2.7438">
        <ele>267.86</ele>
        <time>2022-02-03T14:33:31Z</time>
      </trkpt>
      <trkpt lat="43.34363" lon="2.74382">
        <ele>266.42</ele>
        <time>2022-02-03T14:33:39Z</time>
      </trkpt>
      <trkpt lat="43.34362" lon="2.74383">
        <ele>266.42</ele>
        <time>2022-02-03T14:33:40Z</time>
      </trkpt>
      <trkpt lat="43.34346" lon="2.74389">
        <ele>267.86</ele>
        <time>2022-02-03T14:33:56Z</time>
      </trkpt>
      <trkpt lat="43.34336" lon="2.74395">
        <ele>267.86</ele>
        <time>2022-02-03T14:34:05Z</time>
      </trkpt>
      <trkpt lat="43.34326" lon="2.74404">
        <ele>268.83</ele>
        <time>2022-02-03T14:34:17Z</time>
      </trkpt>
      <trkpt lat="43.34323" lon="2.74404">
        <ele>268.83</ele>
        <time>2022-02-03T14:34:21Z</time>
      </trkpt>
      <trkpt lat="43.34313" lon="2.744">
        <ele>268.83</ele>
        <time>2022-02-03T14:34:29Z</time>
      </trkpt>
      <trkpt lat="43.34308" lon="2.74404">
        <ele>268.83</ele>
        <time>2022-02-03T14:34:33Z</time>
      </trkpt>
      <trkpt lat="43.34307" lon="2.74404">
        <ele>268.83</ele>
        <time>2022-02-03T14:34:34Z</time>
      </trkpt>
      <trkpt lat="43.34306" lon="2.74404">
        <ele>268.83</ele>
        <time>2022-02-03T14:34:35Z</time>
      </trkpt>
      <trkpt lat="43.34291" lon="2.74406">
        <ele>268.83</ele>
        <time>2022-02-03T14:34:47Z</time>
      </trkpt>
      <trkpt lat="43.34288" lon="2.74406">
        <ele>269.31</ele>
        <time>2022-02-03T14:34:51Z</time>
      </trkpt>
      <trkpt lat="43.34287" lon="2.74405">
        <ele>269.31</ele>
        <time>2022-02-03T14:34:52Z</time>
      </trkpt>
      <trkpt lat="43.34286" lon="2.74404">
        <ele>269.31</ele>
        <time>2022-02-03T14:34:53Z</time>
      </trkpt>
      <trkpt lat="43.34283" lon="2.744">
        <ele>269.31</ele>
        <time>2022-02-03T14:34:56Z</time>
      </trkpt>
      <trkpt lat="43.34282" lon="2.74399">
        <ele>269.31</ele>
        <time>2022-02-03T14:34:57Z</time>
      </trkpt>
      <trkpt lat="43.34278" lon="2.744">
        <ele>269.31</ele>
        <time>2022-02-03T14:35:03Z</time>
      </trkpt>
      <trkpt lat="43.3427" lon="2.74402">
        <ele>270.27</ele>
        <time>2022-02-03T14:35:09Z</time>
      </trkpt>
      <trkpt lat="43.34269" lon="2.74403">
        <ele>270.27</ele>
        <time>2022-02-03T14:35:10Z</time>
      </trkpt>
      <trkpt lat="43.3426" lon="2.74397">
        <ele>270.75</ele>
        <time>2022-02-03T14:35:19Z</time>
      </trkpt>
      <trkpt lat="43.34248" lon="2.74389">
        <ele>268.83</ele>
        <time>2022-02-03T14:35:31Z</time>
      </trkpt>
      <trkpt lat="43.34232" lon="2.74382">
        <ele>267.38</ele>
        <time>2022-02-03T14:35:40Z</time>
      </trkpt>
      <trkpt lat="43.34221" lon="2.74381">
        <ele>267.38</ele>
        <time>2022-02-03T14:35:48Z</time>
      </trkpt>
      <trkpt lat="43.3422" lon="2.74381">
        <ele>267.38</ele>
        <time>2022-02-03T14:35:49Z</time>
      </trkpt>
      <trkpt lat="43.34209" lon="2.74381">
        <ele>267.38</ele>
        <time>2022-02-03T14:36:00Z</time>
      </trkpt>
      <trkpt lat="43.34208" lon="2.74381">
        <ele>267.38</ele>
        <time>2022-02-03T14:36:01Z</time>
      </trkpt>
      <trkpt lat="43.34206" lon="2.74382">
        <ele>266.42</ele>
        <time>2022-02-03T14:36:02Z</time>
      </trkpt>
      <trkpt lat="43.34183" lon="2.74385">
        <ele>267.38</ele>
        <time>2022-02-03T14:36:21Z</time>
      </trkpt>
      <trkpt lat="43.34161" lon="2.74389">
        <ele>267.86</ele>
        <time>2022-02-03T14:36:35Z</time>
      </trkpt>
      <trkpt lat="43.3415" lon="2.74391">
        <ele>267.86</ele>
        <time>2022-02-03T14:36:45Z</time>
      </trkpt>
      <trkpt lat="43.34143" lon="2.74394">
        <ele>266.42</ele>
        <time>2022-02-03T14:36:50Z</time>
      </trkpt>
      <trkpt lat="43.34131" lon="2.74405">
        <ele>265.46</ele>
        <time>2022-02-03T14:37:01Z</time>
      </trkpt>
      <trkpt lat="43.34122" lon="2.74406">
        <ele>265.46</ele>
        <time>2022-02-03T14:37:12Z</time>
      </trkpt>
      <trkpt lat="43.3412" lon="2.74405">
        <ele>265.46</ele>
        <time>2022-02-03T14:37:13Z</time>
      </trkpt>
      <trkpt lat="43.34108" lon="2.744">
        <ele>265.46</ele>
        <time>2022-02-03T14:37:21Z</time>
      </trkpt>
      <trkpt lat="43.34089" lon="2.74393">
        <ele>264.02</ele>
        <time>2022-02-03T14:37:37Z</time>
      </trkpt>
      <trkpt lat="43.34087" lon="2.74392">
        <ele>264.02</ele>
        <time>2022-02-03T14:37:38Z</time>
      </trkpt>
      <trkpt lat="43.34086" lon="2.74392">
        <ele>264.02</ele>
        <time>2022-02-03T14:37:39Z</time>
      </trkpt>
      <trkpt lat="43.34072" lon="2.74397">
        <ele>263.06</ele>
        <time>2022-02-03T14:37:51Z</time>
      </trkpt>
      <trkpt lat="43.3407" lon="2.74399">
        <ele>263.06</ele>
        <time>2022-02-03T14:37:54Z</time>
      </trkpt>
      <trkpt lat="43.34068" lon="2.744">
        <ele>263.06</ele>
        <time>2022-02-03T14:37:55Z</time>
      </trkpt>
      <trkpt lat="43.34061" lon="2.74406">
        <ele>262.58</ele>
        <time>2022-02-03T14:38:01Z</time>
      </trkpt>
      <trkpt lat="43.34047" lon="2.74407">
        <ele>262.1</ele>
        <time>2022-02-03T14:38:14Z</time>
      </trkpt>
      <trkpt lat="43.34032" lon="2.74397">
        <ele>260.17</ele>
        <time>2022-02-03T14:38:27Z</time>
      </trkpt>
      <trkpt lat="43.34027" lon="2.74392">
        <ele>258.25</ele>
        <time>2022-02-03T14:38:36Z</time>
      </trkpt>
      <trkpt lat="43.34027" lon="2.7439">
        <ele>258.25</ele>
        <time>2022-02-03T14:38:37Z</time>
      </trkpt>
      <trkpt lat="43.34027" lon="2.74388">
        <ele>258.25</ele>
        <time>2022-02-03T14:38:38Z</time>
      </trkpt>
      <trkpt lat="43.34031" lon="2.74376">
        <ele>257.77</ele>
        <time>2022-02-03T14:38:45Z</time>
      </trkpt>
      <trkpt lat="43.34032" lon="2.74374">
        <ele>257.77</ele>
        <time>2022-02-03T14:38:46Z</time>
      </trkpt>
      <trkpt lat="43.34033" lon="2.74373">
        <ele>257.29</ele>
        <time>2022-02-03T14:38:47Z</time>
      </trkpt>
      <trkpt lat="43.34041" lon="2.74353">
        <ele>256.33</ele>
        <time>2022-02-03T14:39:02Z</time>
      </trkpt>
      <trkpt lat="43.34041" lon="2.74349">
        <ele>255.85</ele>
        <time>2022-02-03T14:39:04Z</time>
      </trkpt>
      <trkpt lat="43.34041" lon="2.74344">
        <ele>256.33</ele>
        <time>2022-02-03T14:39:08Z</time>
      </trkpt>
      <trkpt lat="43.34042" lon="2.74337">
        <ele>255.37</ele>
        <time>2022-02-03T14:39:15Z</time>
      </trkpt>
      <trkpt lat="43.34042" lon="2.74335">
        <ele>255.37</ele>
        <time>2022-02-03T14:39:16Z</time>
      </trkpt>
      <trkpt lat="43.34041" lon="2.74333">
        <ele>255.37</ele>
        <time>2022-02-03T14:39:17Z</time>
      </trkpt>
      <trkpt lat="43.3404" lon="2.7433">
        <ele>254.89</ele>
        <time>2022-02-03T14:39:18Z</time>
      </trkpt>
      <trkpt lat="43.34039" lon="2.74327">
        <ele>254.89</ele>
        <time>2022-02-03T14:39:19Z</time>
      </trkpt>
      <trkpt lat="43.34039" lon="2.74325">
        <ele>254.89</ele>
        <time>2022-02-03T14:39:20Z</time>
      </trkpt>
      <trkpt lat="43.34035" lon="2.7431">
        <ele>253.93</ele>
        <time>2022-02-03T14:39:30Z</time>
      </trkpt>
      <trkpt lat="43.34034" lon="2.74304">
        <ele>252.96</ele>
        <time>2022-02-03T14:39:35Z</time>
      </trkpt>
      <trkpt lat="43.34032" lon="2.74302">
        <ele>252.48</ele>
        <time>2022-02-03T14:39:36Z</time>
      </trkpt>
      <trkpt lat="43.34031" lon="2.74299">
        <ele>252.48</ele>
        <time>2022-02-03T14:39:37Z</time>
      </trkpt>
      <trkpt lat="43.34031" lon="2.74297">
        <ele>252.48</ele>
        <time>2022-02-03T14:39:38Z</time>
      </trkpt>
      <trkpt lat="43.34031" lon="2.74295">
        <ele>252.48</ele>
        <time>2022-02-03T14:39:39Z</time>
      </trkpt>
      <trkpt lat="43.3403" lon="2.74292">
        <ele>252.48</ele>
        <time>2022-02-03T14:39:40Z</time>
      </trkpt>
      <trkpt lat="43.34029" lon="2.7429">
        <ele>252.48</ele>
        <time>2022-02-03T14:39:41Z</time>
      </trkpt>
      <trkpt lat="43.34025" lon="2.74265">
        <ele>250.56</ele>
        <time>2022-02-03T14:39:55Z</time>
      </trkpt>
      <trkpt lat="43.34023" lon="2.74236">
        <ele>249.6</ele>
        <time>2022-02-03T14:40:10Z</time>
      </trkpt>
      <trkpt lat="43.34023" lon="2.7422">
        <ele>248.64</ele>
        <time>2022-02-03T14:40:22Z</time>
      </trkpt>
      <trkpt lat="43.34022" lon="2.7421">
        <ele>248.64</ele>
        <time>2022-02-03T14:40:26Z</time>
      </trkpt>
      <trkpt lat="43.34022" lon="2.74209">
        <ele>248.64</ele>
        <time>2022-02-03T14:40:27Z</time>
      </trkpt>
      <trkpt lat="43.3402" lon="2.74208">
        <ele>248.16</ele>
        <time>2022-02-03T14:40:29Z</time>
      </trkpt>
      <trkpt lat="43.34019" lon="2.74207">
        <ele>248.16</ele>
        <time>2022-02-03T14:40:30Z</time>
      </trkpt>
      <trkpt lat="43.34015" lon="2.74203">
        <ele>247.68</ele>
        <time>2022-02-03T14:40:37Z</time>
      </trkpt>
      <trkpt lat="43.34013" lon="2.74202">
        <ele>247.68</ele>
        <time>2022-02-03T14:40:38Z</time>
      </trkpt>
      <trkpt lat="43.34004" lon="2.74199">
        <ele>247.68</ele>
        <time>2022-02-03T14:40:43Z</time>
      </trkpt>
      <trkpt lat="43.34002" lon="2.74197">
        <ele>247.68</ele>
        <time>2022-02-03T14:40:45Z</time>
      </trkpt>
      <trkpt lat="43.34001" lon="2.74197">
        <ele>247.68</ele>
        <time>2022-02-03T14:40:46Z</time>
      </trkpt>
      <trkpt lat="43.33999" lon="2.74196">
        <ele>247.68</ele>
        <time>2022-02-03T14:40:47Z</time>
      </trkpt>
      <trkpt lat="43.33987" lon="2.74194">
        <ele>246.72</ele>
        <time>2022-02-03T14:40:59Z</time>
      </trkpt>
      <trkpt lat="43.33975" lon="2.74203">
        <ele>247.2</ele>
        <time>2022-02-03T14:41:07Z</time>
      </trkpt>
      <trkpt lat="43.33974" lon="2.74203">
        <ele>247.2</ele>
        <time>2022-02-03T14:41:08Z</time>
      </trkpt>
      <trkpt lat="43.33973" lon="2.74204">
        <ele>247.2</ele>
        <time>2022-02-03T14:41:09Z</time>
      </trkpt>
      <trkpt lat="43.33972" lon="2.74204">
        <ele>247.2</ele>
        <time>2022-02-03T14:41:10Z</time>
      </trkpt>
      <trkpt lat="43.33971" lon="2.74204">
        <ele>247.2</ele>
        <time>2022-02-03T14:41:11Z</time>
      </trkpt>
      <trkpt lat="43.33969" lon="2.74205">
        <ele>247.2</ele>
        <time>2022-02-03T14:41:14Z</time>
      </trkpt>
      <trkpt lat="43.33967" lon="2.74207">
        <ele>247.2</ele>
        <time>2022-02-03T14:41:16Z</time>
      </trkpt>
      <trkpt lat="43.33966" lon="2.74208">
        <ele>247.2</ele>
        <time>2022-02-03T14:41:17Z</time>
      </trkpt>
      <trkpt lat="43.33962" lon="2.74211">
        <ele>246.72</ele>
        <time>2022-02-03T14:41:20Z</time>
      </trkpt>
      <trkpt lat="43.33962" lon="2.74213">
        <ele>246.72</ele>
        <time>2022-02-03T14:41:23Z</time>
      </trkpt>
      <trkpt lat="43.33961" lon="2.74214">
        <ele>246.72</ele>
        <time>2022-02-03T14:41:24Z</time>
      </trkpt>
      <trkpt lat="43.3396" lon="2.74214">
        <ele>246.72</ele>
        <time>2022-02-03T14:41:25Z</time>
      </trkpt>
      <trkpt lat="43.3396" lon="2.74214">
        <ele>246.72</ele>
        <time>2022-02-03T14:41:26Z</time>
      </trkpt>
      <trkpt lat="43.33949" lon="2.74222">
        <ele>246.72</ele>
        <time>2022-02-03T14:41:36Z</time>
      </trkpt>
      <trkpt lat="43.33937" lon="2.74229">
        <ele>246.72</ele>
        <time>2022-02-03T14:41:49Z</time>
      </trkpt>
      <trkpt lat="43.33917" lon="2.74239">
        <ele>245.27</ele>
        <time>2022-02-03T14:42:02Z</time>
      </trkpt>
      <trkpt lat="43.33903" lon="2.74244">
        <ele>245.27</ele>
        <time>2022-02-03T14:42:16Z</time>
      </trkpt>
      <trkpt lat="43.33883" lon="2.74248">
        <ele>245.27</ele>
        <time>2022-02-03T14:42:28Z</time>
      </trkpt>
      <trkpt lat="43.33869" lon="2.74253">
        <ele>245.27</ele>
        <time>2022-02-03T14:42:41Z</time>
      </trkpt>
      <trkpt lat="43.33851" lon="2.74257">
        <ele>244.31</ele>
        <time>2022-02-03T14:42:52Z</time>
      </trkpt>
      <trkpt lat="43.33832" lon="2.7425">
        <ele>244.79</ele>
        <time>2022-02-03T14:43:08Z</time>
      </trkpt>
      <trkpt lat="43.33809" lon="2.74241">
        <ele>244.79</ele>
        <time>2022-02-03T14:43:21Z</time>
      </trkpt>
      <trkpt lat="43.33797" lon="2.74242">
        <ele>244.79</ele>
        <time>2022-02-03T14:43:36Z</time>
      </trkpt>
      <trkpt lat="43.3378" lon="2.74246">
        <ele>246.23</ele>
        <time>2022-02-03T14:43:48Z</time>
      </trkpt>
      <trkpt lat="43.33772" lon="2.74244">
        <ele>246.72</ele>
        <time>2022-02-03T14:43:57Z</time>
      </trkpt>
      <trkpt lat="43.33761" lon="2.74241">
        <ele>247.2</ele>
        <time>2022-02-03T14:44:04Z</time>
      </trkpt>
      <trkpt lat="43.33745" lon="2.74232">
        <ele>247.2</ele>
        <time>2022-02-03T14:44:17Z</time>
      </trkpt>
      <trkpt lat="43.33728" lon="2.74227">
        <ele>247.2</ele>
        <time>2022-02-03T14:44:30Z</time>
      </trkpt>
      <trkpt lat="43.33723" lon="2.74226">
        <ele>245.75</ele>
        <time>2022-02-03T14:44:32Z</time>
      </trkpt>
      <trkpt lat="43.33704" lon="2.74222">
        <ele>245.27</ele>
        <time>2022-02-03T14:44:42Z</time>
      </trkpt>
      <trkpt lat="43.33694" lon="2.74224">
        <ele>245.27</ele>
        <time>2022-02-03T14:44:53Z</time>
      </trkpt>
      <trkpt lat="43.33693" lon="2.74224">
        <ele>245.27</ele>
        <time>2022-02-03T14:44:54Z</time>
      </trkpt>
      <trkpt lat="43.33669" lon="2.74231">
        <ele>244.79</ele>
        <time>2022-02-03T14:45:10Z</time>
      </trkpt>
      <trkpt lat="43.3366" lon="2.74235">
        <ele>243.83</ele>
        <time>2022-02-03T14:45:21Z</time>
      </trkpt>
      <trkpt lat="43.33645" lon="2.74246">
        <ele>242.87</ele>
        <time>2022-02-03T14:45:33Z</time>
      </trkpt>
      <trkpt lat="43.3363" lon="2.74252">
        <ele>240.95</ele>
        <time>2022-02-03T14:45:46Z</time>
      </trkpt>
      <trkpt lat="43.33624" lon="2.74246">
        <ele>240.47</ele>
        <time>2022-02-03T14:45:58Z</time>
      </trkpt>
      <trkpt lat="43.33624" lon="2.74245">
        <ele>239.51</ele>
        <time>2022-02-03T14:45:59Z</time>
      </trkpt>
      <trkpt lat="43.33623" lon="2.74242">
        <ele>239.51</ele>
        <time>2022-02-03T14:46:00Z</time>
      </trkpt>
      <trkpt lat="43.33622" lon="2.7424">
        <ele>239.02</ele>
        <time>2022-02-03T14:46:01Z</time>
      </trkpt>
      <trkpt lat="43.33622" lon="2.74238">
        <ele>239.02</ele>
        <time>2022-02-03T14:46:02Z</time>
      </trkpt>
      <trkpt lat="43.33622" lon="2.74236">
        <ele>239.02</ele>
        <time>2022-02-03T14:46:03Z</time>
      </trkpt>
      <trkpt lat="43.33622" lon="2.74234">
        <ele>239.02</ele>
        <time>2022-02-03T14:46:04Z</time>
      </trkpt>
      <trkpt lat="43.33621" lon="2.74225">
        <ele>238.54</ele>
        <time>2022-02-03T14:46:10Z</time>
      </trkpt>
      <trkpt lat="43.33621" lon="2.74223">
        <ele>238.54</ele>
        <time>2022-02-03T14:46:11Z</time>
      </trkpt>
      <trkpt lat="43.33621" lon="2.74222">
        <ele>238.54</ele>
        <time>2022-02-03T14:46:12Z</time>
      </trkpt>
      <trkpt lat="43.33621" lon="2.7422">
        <ele>238.54</ele>
        <time>2022-02-03T14:46:13Z</time>
      </trkpt>
      <trkpt lat="43.33621" lon="2.74219">
        <ele>238.54</ele>
        <time>2022-02-03T14:46:14Z</time>
      </trkpt>
      <trkpt lat="43.33621" lon="2.74217">
        <ele>238.54</ele>
        <time>2022-02-03T14:46:15Z</time>
      </trkpt>
      <trkpt lat="43.33621" lon="2.74215">
        <ele>238.54</ele>
        <time>2022-02-03T14:46:16Z</time>
      </trkpt>
      <trkpt lat="43.33621" lon="2.74206">
        <ele>238.54</ele>
        <time>2022-02-03T14:46:27Z</time>
      </trkpt>
      <trkpt lat="43.33622" lon="2.74202">
        <ele>238.54</ele>
        <time>2022-02-03T14:46:30Z</time>
      </trkpt>
      <trkpt lat="43.33622" lon="2.742">
        <ele>238.54</ele>
        <time>2022-02-03T14:46:31Z</time>
      </trkpt>
      <trkpt lat="43.33623" lon="2.74191">
        <ele>238.54</ele>
        <time>2022-02-03T14:46:35Z</time>
      </trkpt>
      <trkpt lat="43.33619" lon="2.74161">
        <ele>237.58</ele>
        <time>2022-02-03T14:46:49Z</time>
      </trkpt>
      <trkpt lat="43.3362" lon="2.74157">
        <ele>237.58</ele>
        <time>2022-02-03T14:46:51Z</time>
      </trkpt>
      <trkpt lat="43.33627" lon="2.74145">
        <ele>237.58</ele>
        <time>2022-02-03T14:47:01Z</time>
      </trkpt>
      <trkpt lat="43.33628" lon="2.74144">
        <ele>237.58</ele>
        <time>2022-02-03T14:47:02Z</time>
      </trkpt>
      <trkpt lat="43.3363" lon="2.74138">
        <ele>239.02</ele>
        <time>2022-02-03T14:47:07Z</time>
      </trkpt>
      <trkpt lat="43.3363" lon="2.74136">
        <ele>239.02</ele>
        <time>2022-02-03T14:47:08Z</time>
      </trkpt>
      <trkpt lat="43.33634" lon="2.74117">
        <ele>239.02</ele>
        <time>2022-02-03T14:47:19Z</time>
      </trkpt>
      <trkpt lat="43.33634" lon="2.74115">
        <ele>239.02</ele>
        <time>2022-02-03T14:47:21Z</time>
      </trkpt>
      <trkpt lat="43.33635" lon="2.74102">
        <ele>239.51</ele>
        <time>2022-02-03T14:47:31Z</time>
      </trkpt>
      <trkpt lat="43.33637" lon="2.74081">
        <ele>239.99</ele>
        <time>2022-02-03T14:47:42Z</time>
      </trkpt>
      <trkpt lat="43.33637" lon="2.74077">
        <ele>240.47</ele>
        <time>2022-02-03T14:47:46Z</time>
      </trkpt>
      <trkpt lat="43.33636" lon="2.74075">
        <ele>240.47</ele>
        <time>2022-02-03T14:47:47Z</time>
      </trkpt>
      <trkpt lat="43.33636" lon="2.74073">
        <ele>240.95</ele>
        <time>2022-02-03T14:47:48Z</time>
      </trkpt>
      <trkpt lat="43.33635" lon="2.74072">
        <ele>240.95</ele>
        <time>2022-02-03T14:47:49Z</time>
      </trkpt>
      <trkpt lat="43.33635" lon="2.7407">
        <ele>240.95</ele>
        <time>2022-02-03T14:47:50Z</time>
      </trkpt>
      <trkpt lat="43.33634" lon="2.74068">
        <ele>240.95</ele>
        <time>2022-02-03T14:47:51Z</time>
      </trkpt>
      <trkpt lat="43.33634" lon="2.74066">
        <ele>240.95</ele>
        <time>2022-02-03T14:47:52Z</time>
      </trkpt>
      <trkpt lat="43.33634" lon="2.74065">
        <ele>240.95</ele>
        <time>2022-02-03T14:47:53Z</time>
      </trkpt>
      <trkpt lat="43.33634" lon="2.74063">
        <ele>240.95</ele>
        <time>2022-02-03T14:47:54Z</time>
      </trkpt>
      <trkpt lat="43.33634" lon="2.7406">
        <ele>240.95</ele>
        <time>2022-02-03T14:47:55Z</time>
      </trkpt>
      <trkpt lat="43.33635" lon="2.74058">
        <ele>240.95</ele>
        <time>2022-02-03T14:47:56Z</time>
      </trkpt>
      <trkpt lat="43.33634" lon="2.74056">
        <ele>241.43</ele>
        <time>2022-02-03T14:47:57Z</time>
      </trkpt>
      <trkpt lat="43.33634" lon="2.74055">
        <ele>241.43</ele>
        <time>2022-02-03T14:47:58Z</time>
      </trkpt>
      <trkpt lat="43.33635" lon="2.74045">
        <ele>241.43</ele>
        <time>2022-02-03T14:48:06Z</time>
      </trkpt>
      <trkpt lat="43.33636" lon="2.74042">
        <ele>241.43</ele>
        <time>2022-02-03T14:48:07Z</time>
      </trkpt>
      <trkpt lat="43.33636" lon="2.7404">
        <ele>241.43</ele>
        <time>2022-02-03T14:48:08Z</time>
      </trkpt>
      <trkpt lat="43.33636" lon="2.74037">
        <ele>241.43</ele>
        <time>2022-02-03T14:48:09Z</time>
      </trkpt>
      <trkpt lat="43.33637" lon="2.74035">
        <ele>241.43</ele>
        <time>2022-02-03T14:48:10Z</time>
      </trkpt>
      <trkpt lat="43.33644" lon="2.74012">
        <ele>241.91</ele>
        <time>2022-02-03T14:48:21Z</time>
      </trkpt>
      <trkpt lat="43.33651" lon="2.73997">
        <ele>242.39</ele>
        <time>2022-02-03T14:48:34Z</time>
      </trkpt>
      <trkpt lat="43.33652" lon="2.73992">
        <ele>242.39</ele>
        <time>2022-02-03T14:48:37Z</time>
      </trkpt>
      <trkpt lat="43.33652" lon="2.7399">
        <ele>242.39</ele>
        <time>2022-02-03T14:48:38Z</time>
      </trkpt>
      <trkpt lat="43.33652" lon="2.73987">
        <ele>242.87</ele>
        <time>2022-02-03T14:48:39Z</time>
      </trkpt>
      <trkpt lat="43.33651" lon="2.73983">
        <ele>242.87</ele>
        <time>2022-02-03T14:48:40Z</time>
      </trkpt>
      <trkpt lat="43.33652" lon="2.7398">
        <ele>242.87</ele>
        <time>2022-02-03T14:48:41Z</time>
      </trkpt>
      <trkpt lat="43.33652" lon="2.73979">
        <ele>242.87</ele>
        <time>2022-02-03T14:48:42Z</time>
      </trkpt>
      <trkpt lat="43.33652" lon="2.73976">
        <ele>242.87</ele>
        <time>2022-02-03T14:48:43Z</time>
      </trkpt>
      <trkpt lat="43.33653" lon="2.73973">
        <ele>242.87</ele>
        <time>2022-02-03T14:48:44Z</time>
      </trkpt>
      <trkpt lat="43.33653" lon="2.73952">
        <ele>242.87</ele>
        <time>2022-02-03T14:48:56Z</time>
      </trkpt>
      <trkpt lat="43.3365" lon="2.73925">
        <ele>240.95</ele>
        <time>2022-02-03T14:49:12Z</time>
      </trkpt>
      <trkpt lat="43.33647" lon="2.73909">
        <ele>240.95</ele>
        <time>2022-02-03T14:49:23Z</time>
      </trkpt>
      <trkpt lat="43.33645" lon="2.73904">
        <ele>240.95</ele>
        <time>2022-02-03T14:49:27Z</time>
      </trkpt>
      <trkpt lat="43.33644" lon="2.73902">
        <ele>240.95</ele>
        <time>2022-02-03T14:49:28Z</time>
      </trkpt>
      <trkpt lat="43.33643" lon="2.739">
        <ele>240.95</ele>
        <time>2022-02-03T14:49:30Z</time>
      </trkpt>
      <trkpt lat="43.33642" lon="2.73899">
        <ele>240.95</ele>
        <time>2022-02-03T14:49:31Z</time>
      </trkpt>
      <trkpt lat="43.33642" lon="2.73896">
        <ele>240.95</ele>
        <time>2022-02-03T14:49:32Z</time>
      </trkpt>
      <trkpt lat="43.33641" lon="2.73894">
        <ele>240.95</ele>
        <time>2022-02-03T14:49:33Z</time>
      </trkpt>
      <trkpt lat="43.33642" lon="2.73891">
        <ele>242.39</ele>
        <time>2022-02-03T14:49:34Z</time>
      </trkpt>
      <trkpt lat="43.33642" lon="2.73889">
        <ele>242.39</ele>
        <time>2022-02-03T14:49:35Z</time>
      </trkpt>
      <trkpt lat="43.33641" lon="2.73878">
        <ele>242.87</ele>
        <time>2022-02-03T14:49:43Z</time>
      </trkpt>
      <trkpt lat="43.33641" lon="2.73875">
        <ele>242.87</ele>
        <time>2022-02-03T14:49:44Z</time>
      </trkpt>
      <trkpt lat="43.33641" lon="2.73874">
        <ele>243.35</ele>
        <time>2022-02-03T14:49:45Z</time>
      </trkpt>
      <trkpt lat="43.33642" lon="2.73872">
        <ele>243.35</ele>
        <time>2022-02-03T14:49:46Z</time>
      </trkpt>
      <trkpt lat="43.33642" lon="2.73869">
        <ele>243.35</ele>
        <time>2022-02-03T14:49:47Z</time>
      </trkpt>
      <trkpt lat="43.33643" lon="2.73868">
        <ele>243.35</ele>
        <time>2022-02-03T14:49:48Z</time>
      </trkpt>
      <trkpt lat="43.33644" lon="2.73866">
        <ele>243.35</ele>
        <time>2022-02-03T14:49:49Z</time>
      </trkpt>
      <trkpt lat="43.33652" lon="2.73854">
        <ele>244.31</ele>
        <time>2022-02-03T14:50:00Z</time>
      </trkpt>
      <trkpt lat="43.3366" lon="2.73846">
        <ele>244.79</ele>
        <time>2022-02-03T14:50:13Z</time>
      </trkpt>
      <trkpt lat="43.3366" lon="2.73846">
        <ele>245.27</ele>
        <time>2022-02-03T14:50:38Z</time>
      </trkpt>
      <trkpt lat="43.33661" lon="2.73845">
        <ele>245.75</ele>
        <time>2022-02-03T14:50:46Z</time>
      </trkpt>
      <trkpt lat="43.33661" lon="2.73843">
        <ele>244.31</ele>
        <time>2022-02-03T14:50:56Z</time>
      </trkpt>
      <trkpt lat="43.3366" lon="2.73845">
        <ele>245.75</ele>
        <time>2022-02-03T14:51:01Z</time>
      </trkpt>
      <trkpt lat="43.33659" lon="2.73846">
        <ele>244.79</ele>
        <time>2022-02-03T14:51:04Z</time>
      </trkpt>
      <trkpt lat="43.33655" lon="2.73846">
        <ele>243.83</ele>
        <time>2022-02-03T14:51:08Z</time>
      </trkpt>
      <trkpt lat="43.33653" lon="2.73845">
        <ele>245.27</ele>
        <time>2022-02-03T14:51:09Z</time>
      </trkpt>
      <trkpt lat="43.33652" lon="2.73844">
        <ele>243.83</ele>
        <time>2022-02-03T14:51:10Z</time>
      </trkpt>
      <trkpt lat="43.33647" lon="2.73836">
        <ele>244.31</ele>
        <time>2022-02-03T14:51:21Z</time>
      </trkpt>
      <trkpt lat="43.33647" lon="2.73834">
        <ele>244.31</ele>
        <time>2022-02-03T14:51:22Z</time>
      </trkpt>
      <trkpt lat="43.33648" lon="2.73817">
        <ele>245.27</ele>
        <time>2022-02-03T14:51:29Z</time>
      </trkpt>
      <trkpt lat="43.3365" lon="2.73812">
        <ele>245.75</ele>
        <time>2022-02-03T14:51:33Z</time>
      </trkpt>
      <trkpt lat="43.33649" lon="2.73814">
        <ele>244.31</ele>
        <time>2022-02-03T14:51:35Z</time>
      </trkpt>
      <trkpt lat="43.33646" lon="2.73833">
        <ele>244.31</ele>
        <time>2022-02-03T14:51:43Z</time>
      </trkpt>
      <trkpt lat="43.33647" lon="2.73835">
        <ele>244.31</ele>
        <time>2022-02-03T14:51:44Z</time>
      </trkpt>
      <trkpt lat="43.33648" lon="2.73837">
        <ele>244.31</ele>
        <time>2022-02-03T14:51:45Z</time>
      </trkpt>
      <trkpt lat="43.33656" lon="2.73844">
        <ele>245.27</ele>
        <time>2022-02-03T14:51:50Z</time>
      </trkpt>
      <trkpt lat="43.33659" lon="2.73844">
        <ele>241.43</ele>
        <time>2022-02-03T14:52:06Z</time>
      </trkpt>
      <trkpt lat="43.33659" lon="2.73845">
        <ele>243.35</ele>
        <time>2022-02-03T14:52:07Z</time>
      </trkpt>
      <trkpt lat="43.33659" lon="2.73845">
        <ele>244.31</ele>
        <time>2022-02-03T14:52:09Z</time>
      </trkpt>
      <trkpt lat="43.33656" lon="2.7384">
        <ele>244.79</ele>
        <time>2022-02-03T14:52:35Z</time>
      </trkpt>
      <trkpt lat="43.33657" lon="2.73838">
        <ele>243.35</ele>
        <time>2022-02-03T14:52:42Z</time>
      </trkpt>
      <trkpt lat="43.33657" lon="2.73839">
        <ele>244.79</ele>
        <time>2022-02-03T14:52:44Z</time>
      </trkpt>
      <trkpt lat="43.33658" lon="2.73845">
        <ele>245.27</ele>
        <time>2022-02-03T14:53:06Z</time>
      </trkpt>
      <trkpt lat="43.33658" lon="2.73844">
        <ele>245.27</ele>
        <time>2022-02-03T14:53:24Z</time>
      </trkpt>
      <trkpt lat="43.33659" lon="2.73844">
        <ele>241.91</ele>
        <time>2022-02-03T14:53:35Z</time>
      </trkpt>
      <trkpt lat="43.33659" lon="2.73844">
        <ele>243.83</ele>
        <time>2022-02-03T14:53:36Z</time>
      </trkpt>
      <trkpt lat="43.33659" lon="2.73845">
        <ele>247.2</ele>
        <time>2022-02-03T14:53:37Z</time>
      </trkpt>
      <trkpt lat="43.33659" lon="2.73844">
        <ele>243.35</ele>
        <time>2022-02-03T14:53:38Z</time>
      </trkpt>
      <trkpt lat="43.33659" lon="2.73844">
        <ele>246.23</ele>
        <time>2022-02-03T14:53:40Z</time>
      </trkpt>
      <trkpt lat="43.33659" lon="2.73844">
        <ele>239.51</ele>
        <time>2022-02-03T14:53:48Z</time>
      </trkpt>
      <trkpt lat="43.33659" lon="2.73844">
        <ele>247.68</ele>
        <time>2022-02-03T14:53:49Z</time>
      </trkpt>
      <trkpt lat="43.33659" lon="2.73844">
        <ele>244.79</ele>
        <time>2022-02-03T14:53:50Z</time>
      </trkpt>
      <trkpt lat="43.33661" lon="2.73845">
        <ele>244.31</ele>
        <time>2022-02-03T14:54:04Z</time>
      </trkpt>
      <trkpt lat="43.33661" lon="2.73843">
        <ele>245.75</ele>
        <time>2022-02-03T14:54:22Z</time>
      </trkpt>
      <trkpt lat="43.3366" lon="2.73844">
        <ele>244.31</ele>
        <time>2022-02-03T14:54:45Z</time>
      </trkpt>
      <trkpt lat="43.33664" lon="2.7384">
        <ele>245.75</ele>
        <time>2022-02-03T14:54:53Z</time>
      </trkpt>
      <trkpt lat="43.33677" lon="2.73818">
        <ele>247.68</ele>
        <time>2022-02-03T14:55:10Z</time>
      </trkpt>
      <trkpt lat="43.33683" lon="2.73798">
        <ele>249.12</ele>
        <time>2022-02-03T14:55:26Z</time>
      </trkpt>
      <trkpt lat="43.33685" lon="2.73789">
        <ele>248.64</ele>
        <time>2022-02-03T14:55:40Z</time>
      </trkpt>
      <trkpt lat="43.33684" lon="2.73784">
        <ele>250.08</ele>
        <time>2022-02-03T14:55:45Z</time>
      </trkpt>
      <trkpt lat="43.33691" lon="2.73757">
        <ele>251.52</ele>
        <time>2022-02-03T14:56:02Z</time>
      </trkpt>
      <trkpt lat="43.33701" lon="2.73724">
        <ele>251.52</ele>
        <time>2022-02-03T14:56:20Z</time>
      </trkpt>
      <trkpt lat="43.33701" lon="2.73725">
        <ele>251.52</ele>
        <time>2022-02-03T14:56:21Z</time>
      </trkpt>
      <trkpt lat="43.33703" lon="2.73732">
        <ele>251.52</ele>
        <time>2022-02-03T14:56:27Z</time>
      </trkpt>
      <trkpt lat="43.33702" lon="2.73728">
        <ele>252</ele>
        <time>2022-02-03T14:56:29Z</time>
      </trkpt>
      <trkpt lat="43.33702" lon="2.73726">
        <ele>252</ele>
        <time>2022-02-03T14:56:30Z</time>
      </trkpt>
      <trkpt lat="43.33703" lon="2.73717">
        <ele>252</ele>
        <time>2022-02-03T14:56:33Z</time>
      </trkpt>
      <trkpt lat="43.33704" lon="2.73714">
        <ele>252</ele>
        <time>2022-02-03T14:56:34Z</time>
      </trkpt>
      <trkpt lat="43.33706" lon="2.73711">
        <ele>252</ele>
        <time>2022-02-03T14:56:35Z</time>
      </trkpt>
      <trkpt lat="43.33711" lon="2.73702">
        <ele>252.96</ele>
        <time>2022-02-03T14:56:38Z</time>
      </trkpt>
      <trkpt lat="43.33712" lon="2.73699">
        <ele>252.96</ele>
        <time>2022-02-03T14:56:39Z</time>
      </trkpt>
      <trkpt lat="43.33714" lon="2.73696">
        <ele>252.96</ele>
        <time>2022-02-03T14:56:40Z</time>
      </trkpt>
      <trkpt lat="43.33716" lon="2.73693">
        <ele>252.96</ele>
        <time>2022-02-03T14:56:41Z</time>
      </trkpt>
      <trkpt lat="43.33717" lon="2.7369">
        <ele>252.96</ele>
        <time>2022-02-03T14:56:42Z</time>
      </trkpt>
      <trkpt lat="43.33718" lon="2.73688">
        <ele>253.44</ele>
        <time>2022-02-03T14:56:43Z</time>
      </trkpt>
      <trkpt lat="43.33722" lon="2.73679">
        <ele>253.93</ele>
        <time>2022-02-03T14:56:52Z</time>
      </trkpt>
      <trkpt lat="43.33723" lon="2.73677">
        <ele>253.93</ele>
        <time>2022-02-03T14:56:53Z</time>
      </trkpt>
      <trkpt lat="43.33724" lon="2.73675">
        <ele>254.41</ele>
        <time>2022-02-03T14:56:54Z</time>
      </trkpt>
      <trkpt lat="43.33741" lon="2.73654">
        <ele>254.41</ele>
        <time>2022-02-03T14:57:07Z</time>
      </trkpt>
      <trkpt lat="43.33742" lon="2.73653">
        <ele>252.96</ele>
        <time>2022-02-03T14:57:11Z</time>
      </trkpt>
      <trkpt lat="43.33744" lon="2.73648">
        <ele>252.96</ele>
        <time>2022-02-03T14:57:16Z</time>
      </trkpt>
      <trkpt lat="43.33756" lon="2.73632">
        <ele>252</ele>
        <time>2022-02-03T14:57:27Z</time>
      </trkpt>
      <trkpt lat="43.3376" lon="2.73627">
        <ele>252</ele>
        <time>2022-02-03T14:57:34Z</time>
      </trkpt>
      <trkpt lat="43.33772" lon="2.73612">
        <ele>250.56</ele>
        <time>2022-02-03T14:57:45Z</time>
      </trkpt>
      <trkpt lat="43.33784" lon="2.73599">
        <ele>249.12</ele>
        <time>2022-02-03T14:57:56Z</time>
      </trkpt>
      <trkpt lat="43.33799" lon="2.73578">
        <ele>247.2</ele>
        <time>2022-02-03T14:58:13Z</time>
      </trkpt>
      <trkpt lat="43.33805" lon="2.73549">
        <ele>246.72</ele>
        <time>2022-02-03T14:58:30Z</time>
      </trkpt>
      <trkpt lat="43.33809" lon="2.73518">
        <ele>245.27</ele>
        <time>2022-02-03T14:58:46Z</time>
      </trkpt>
      <trkpt lat="43.33805" lon="2.735">
        <ele>245.27</ele>
        <time>2022-02-03T14:58:56Z</time>
      </trkpt>
      <trkpt lat="43.33806" lon="2.73498">
        <ele>245.27</ele>
        <time>2022-02-03T14:58:57Z</time>
      </trkpt>
      <trkpt lat="43.33806" lon="2.73496">
        <ele>244.79</ele>
        <time>2022-02-03T14:58:58Z</time>
      </trkpt>
      <trkpt lat="43.33807" lon="2.73494">
        <ele>244.79</ele>
        <time>2022-02-03T14:58:59Z</time>
      </trkpt>
      <trkpt lat="43.33808" lon="2.73491">
        <ele>244.79</ele>
        <time>2022-02-03T14:59:00Z</time>
      </trkpt>
      <trkpt lat="43.33817" lon="2.73477">
        <ele>242.87</ele>
        <time>2022-02-03T14:59:10Z</time>
      </trkpt>
      <trkpt lat="43.33823" lon="2.7346">
        <ele>240.47</ele>
        <time>2022-02-03T14:59:25Z</time>
      </trkpt>
      <trkpt lat="43.33828" lon="2.73442">
        <ele>239.51</ele>
        <time>2022-02-03T14:59:37Z</time>
      </trkpt>
      <trkpt lat="43.33828" lon="2.73436">
        <ele>239.02</ele>
        <time>2022-02-03T14:59:43Z</time>
      </trkpt>
      <trkpt lat="43.33828" lon="2.73433">
        <ele>239.02</ele>
        <time>2022-02-03T14:59:44Z</time>
      </trkpt>
      <trkpt lat="43.33829" lon="2.7343">
        <ele>239.02</ele>
        <time>2022-02-03T14:59:45Z</time>
      </trkpt>
      <trkpt lat="43.33829" lon="2.73426">
        <ele>239.02</ele>
        <time>2022-02-03T14:59:46Z</time>
      </trkpt>
      <trkpt lat="43.33829" lon="2.73422">
        <ele>238.06</ele>
        <time>2022-02-03T14:59:47Z</time>
      </trkpt>
      <trkpt lat="43.33829" lon="2.73419">
        <ele>238.06</ele>
        <time>2022-02-03T14:59:48Z</time>
      </trkpt>
      <trkpt lat="43.33829" lon="2.73416">
        <ele>238.06</ele>
        <time>2022-02-03T14:59:49Z</time>
      </trkpt>
      <trkpt lat="43.33829" lon="2.73413">
        <ele>238.06</ele>
        <time>2022-02-03T14:59:50Z</time>
      </trkpt>
      <trkpt lat="43.33829" lon="2.73411">
        <ele>238.06</ele>
        <time>2022-02-03T14:59:51Z</time>
      </trkpt>
      <trkpt lat="43.3383" lon="2.73409">
        <ele>238.06</ele>
        <time>2022-02-03T14:59:52Z</time>
      </trkpt>
      <trkpt lat="43.3383" lon="2.73407">
        <ele>237.58</ele>
        <time>2022-02-03T14:59:53Z</time>
      </trkpt>
      <trkpt lat="43.3384" lon="2.73378">
        <ele>235.66</ele>
        <time>2022-02-03T15:00:06Z</time>
      </trkpt>
      <trkpt lat="43.3385" lon="2.73358">
        <ele>234.7</ele>
        <time>2022-02-03T15:00:19Z</time>
      </trkpt>
      <trkpt lat="43.33852" lon="2.73353">
        <ele>233.74</ele>
        <time>2022-02-03T15:00:26Z</time>
      </trkpt>
      <trkpt lat="43.33852" lon="2.73352">
        <ele>233.74</ele>
        <time>2022-02-03T15:00:27Z</time>
      </trkpt>
      <trkpt lat="43.33853" lon="2.7335">
        <ele>233.74</ele>
        <time>2022-02-03T15:00:28Z</time>
      </trkpt>
      <trkpt lat="43.33863" lon="2.73332">
        <ele>232.78</ele>
        <time>2022-02-03T15:00:38Z</time>
      </trkpt>
      <trkpt lat="43.33878" lon="2.7333">
        <ele>232.3</ele>
        <time>2022-02-03T15:00:50Z</time>
      </trkpt>
      <trkpt lat="43.33889" lon="2.73335">
        <ele>232.3</ele>
        <time>2022-02-03T15:01:04Z</time>
      </trkpt>
      <trkpt lat="43.33909" lon="2.73352">
        <ele>232.3</ele>
        <time>2022-02-03T15:01:16Z</time>
      </trkpt>
      <trkpt lat="43.33912" lon="2.73355">
        <ele>232.78</ele>
        <time>2022-02-03T15:01:19Z</time>
      </trkpt>
      <trkpt lat="43.33914" lon="2.73355">
        <ele>232.78</ele>
        <time>2022-02-03T15:01:20Z</time>
      </trkpt>
      <trkpt lat="43.33915" lon="2.73356">
        <ele>232.78</ele>
        <time>2022-02-03T15:01:21Z</time>
      </trkpt>
      <trkpt lat="43.33927" lon="2.73355">
        <ele>231.33</ele>
        <time>2022-02-03T15:01:34Z</time>
      </trkpt>
      <trkpt lat="43.33928" lon="2.73348">
        <ele>231.33</ele>
        <time>2022-02-03T15:01:39Z</time>
      </trkpt>
      <trkpt lat="43.33917" lon="2.73314">
        <ele>230.37</ele>
        <time>2022-02-03T15:01:54Z</time>
      </trkpt>
      <trkpt lat="43.33905" lon="2.73291">
        <ele>229.41</ele>
        <time>2022-02-03T15:02:07Z</time>
      </trkpt>
      <trkpt lat="43.33897" lon="2.73285">
        <ele>227.97</ele>
        <time>2022-02-03T15:02:21Z</time>
      </trkpt>
      <trkpt lat="43.33891" lon="2.73286">
        <ele>227.49</ele>
        <time>2022-02-03T15:02:28Z</time>
      </trkpt>
      <trkpt lat="43.33888" lon="2.73286">
        <ele>227.49</ele>
        <time>2022-02-03T15:02:29Z</time>
      </trkpt>
      <trkpt lat="43.33886" lon="2.73287">
        <ele>227.01</ele>
        <time>2022-02-03T15:02:30Z</time>
      </trkpt>
      <trkpt lat="43.33883" lon="2.73287">
        <ele>227.01</ele>
        <time>2022-02-03T15:02:31Z</time>
      </trkpt>
      <trkpt lat="43.33882" lon="2.73287">
        <ele>227.01</ele>
        <time>2022-02-03T15:02:32Z</time>
      </trkpt>
      <trkpt lat="43.3388" lon="2.73287">
        <ele>227.01</ele>
        <time>2022-02-03T15:02:33Z</time>
      </trkpt>
      <trkpt lat="43.33856" lon="2.73289">
        <ele>226.05</ele>
        <time>2022-02-03T15:02:45Z</time>
      </trkpt>
      <trkpt lat="43.33848" lon="2.73288">
        <ele>225.57</ele>
        <time>2022-02-03T15:02:50Z</time>
      </trkpt>
      <trkpt lat="43.33848" lon="2.73286">
        <ele>225.57</ele>
        <time>2022-02-03T15:02:51Z</time>
      </trkpt>
      <trkpt lat="43.33848" lon="2.73283">
        <ele>225.57</ele>
        <time>2022-02-03T15:02:52Z</time>
      </trkpt>
      <trkpt lat="43.33848" lon="2.73281">
        <ele>225.57</ele>
        <time>2022-02-03T15:02:53Z</time>
      </trkpt>
      <trkpt lat="43.33849" lon="2.73279">
        <ele>225.09</ele>
        <time>2022-02-03T15:02:54Z</time>
      </trkpt>
      <trkpt lat="43.3385" lon="2.73277">
        <ele>225.09</ele>
        <time>2022-02-03T15:02:55Z</time>
      </trkpt>
      <trkpt lat="43.33861" lon="2.73267">
        <ele>225.09</ele>
        <time>2022-02-03T15:03:06Z</time>
      </trkpt>
      <trkpt lat="43.33878" lon="2.73255">
        <ele>224.12</ele>
        <time>2022-02-03T15:03:24Z</time>
      </trkpt>
      <trkpt lat="43.33901" lon="2.7324">
        <ele>223.16</ele>
        <time>2022-02-03T15:03:37Z</time>
      </trkpt>
      <trkpt lat="43.33906" lon="2.7323">
        <ele>222.68</ele>
        <time>2022-02-03T15:03:48Z</time>
      </trkpt>
      <trkpt lat="43.33903" lon="2.73216">
        <ele>222.68</ele>
        <time>2022-02-03T15:03:57Z</time>
      </trkpt>
      <trkpt lat="43.33881" lon="2.73185">
        <ele>222.2</ele>
        <time>2022-02-03T15:04:14Z</time>
      </trkpt>
      <trkpt lat="43.33874" lon="2.73172">
        <ele>222.68</ele>
        <time>2022-02-03T15:04:29Z</time>
      </trkpt>
      <trkpt lat="43.33866" lon="2.73159">
        <ele>222.68</ele>
        <time>2022-02-03T15:04:38Z</time>
      </trkpt>
      <trkpt lat="43.3385" lon="2.7314">
        <ele>222.68</ele>
        <time>2022-02-03T15:04:50Z</time>
      </trkpt>
      <trkpt lat="43.33835" lon="2.73132">
        <ele>222.68</ele>
        <time>2022-02-03T15:05:02Z</time>
      </trkpt>
      <trkpt lat="43.33834" lon="2.7313">
        <ele>222.68</ele>
        <time>2022-02-03T15:05:03Z</time>
      </trkpt>
      <trkpt lat="43.33822" lon="2.73125">
        <ele>223.64</ele>
        <time>2022-02-03T15:05:14Z</time>
      </trkpt>
      <trkpt lat="43.33822" lon="2.73127">
        <ele>223.64</ele>
        <time>2022-02-03T15:05:17Z</time>
      </trkpt>
      <trkpt lat="43.3382" lon="2.73126">
        <ele>223.64</ele>
        <time>2022-02-03T15:05:18Z</time>
      </trkpt>
      <trkpt lat="43.33819" lon="2.73125">
        <ele>224.12</ele>
        <time>2022-02-03T15:05:19Z</time>
      </trkpt>
      <trkpt lat="43.33817" lon="2.73125">
        <ele>224.12</ele>
        <time>2022-02-03T15:05:20Z</time>
      </trkpt>
      <trkpt lat="43.33805" lon="2.73121">
        <ele>225.09</ele>
        <time>2022-02-03T15:05:31Z</time>
      </trkpt>
      <trkpt lat="43.33787" lon="2.73115">
        <ele>226.05</ele>
        <time>2022-02-03T15:05:43Z</time>
      </trkpt>
      <trkpt lat="43.33781" lon="2.73106">
        <ele>227.01</ele>
        <time>2022-02-03T15:05:55Z</time>
      </trkpt>
      <trkpt lat="43.3378" lon="2.73103">
        <ele>227.01</ele>
        <time>2022-02-03T15:05:56Z</time>
      </trkpt>
      <trkpt lat="43.3378" lon="2.731">
        <ele>227.01</ele>
        <time>2022-02-03T15:05:57Z</time>
      </trkpt>
      <trkpt lat="43.33779" lon="2.73097">
        <ele>227.01</ele>
        <time>2022-02-03T15:05:58Z</time>
      </trkpt>
      <trkpt lat="43.33779" lon="2.73094">
        <ele>227.01</ele>
        <time>2022-02-03T15:05:59Z</time>
      </trkpt>
      <trkpt lat="43.33779" lon="2.73074">
        <ele>227.01</ele>
        <time>2022-02-03T15:06:09Z</time>
      </trkpt>
      <trkpt lat="43.33782" lon="2.73057">
        <ele>227.01</ele>
        <time>2022-02-03T15:06:23Z</time>
      </trkpt>
      <trkpt lat="43.33782" lon="2.73055">
        <ele>227.01</ele>
        <time>2022-02-03T15:06:24Z</time>
      </trkpt>
      <trkpt lat="43.33783" lon="2.73054">
        <ele>227.01</ele>
        <time>2022-02-03T15:06:25Z</time>
      </trkpt>
      <trkpt lat="43.33784" lon="2.73051">
        <ele>227.01</ele>
        <time>2022-02-03T15:06:26Z</time>
      </trkpt>
      <trkpt lat="43.33784" lon="2.73049">
        <ele>227.01</ele>
        <time>2022-02-03T15:06:27Z</time>
      </trkpt>
      <trkpt lat="43.33784" lon="2.73046">
        <ele>227.01</ele>
        <time>2022-02-03T15:06:28Z</time>
      </trkpt>
      <trkpt lat="43.33785" lon="2.73043">
        <ele>227.01</ele>
        <time>2022-02-03T15:06:29Z</time>
      </trkpt>
      <trkpt lat="43.33788" lon="2.73011">
        <ele>227.49</ele>
        <time>2022-02-03T15:06:42Z</time>
      </trkpt>
      <trkpt lat="43.33794" lon="2.72996">
        <ele>227.97</ele>
        <time>2022-02-03T15:06:56Z</time>
      </trkpt>
      <trkpt lat="43.33799" lon="2.72988">
        <ele>228.93</ele>
        <time>2022-02-03T15:07:02Z</time>
      </trkpt>
      <trkpt lat="43.338" lon="2.72986">
        <ele>228.93</ele>
        <time>2022-02-03T15:07:03Z</time>
      </trkpt>
      <trkpt lat="43.33798" lon="2.72981">
        <ele>228.93</ele>
        <time>2022-02-03T15:07:10Z</time>
      </trkpt>
      <trkpt lat="43.33797" lon="2.7298">
        <ele>228.93</ele>
        <time>2022-02-03T15:07:11Z</time>
      </trkpt>
      <trkpt lat="43.33794" lon="2.72975">
        <ele>226.53</ele>
        <time>2022-02-03T15:07:18Z</time>
      </trkpt>
      <trkpt lat="43.33792" lon="2.72975">
        <ele>226.53</ele>
        <time>2022-02-03T15:07:19Z</time>
      </trkpt>
      <trkpt lat="43.33791" lon="2.72975">
        <ele>226.53</ele>
        <time>2022-02-03T15:07:20Z</time>
      </trkpt>
      <trkpt lat="43.33776" lon="2.72984">
        <ele>224.61</ele>
        <time>2022-02-03T15:07:36Z</time>
      </trkpt>
      <trkpt lat="43.33762" lon="2.73007">
        <ele>222.68</ele>
        <time>2022-02-03T15:07:50Z</time>
      </trkpt>
      <trkpt lat="43.33751" lon="2.73022">
        <ele>221.24</ele>
        <time>2022-02-03T15:08:02Z</time>
      </trkpt>
      <trkpt lat="43.33748" lon="2.73027">
        <ele>220.76</ele>
        <time>2022-02-03T15:08:08Z</time>
      </trkpt>
      <trkpt lat="43.33747" lon="2.73028">
        <ele>220.76</ele>
        <time>2022-02-03T15:08:09Z</time>
      </trkpt>
      <trkpt lat="43.33745" lon="2.73029">
        <ele>220.76</ele>
        <time>2022-02-03T15:08:10Z</time>
      </trkpt>
      <trkpt lat="43.33744" lon="2.7303">
        <ele>220.76</ele>
        <time>2022-02-03T15:08:11Z</time>
      </trkpt>
      <trkpt lat="43.33743" lon="2.73032">
        <ele>220.28</ele>
        <time>2022-02-03T15:08:12Z</time>
      </trkpt>
      <trkpt lat="43.33737" lon="2.73048">
        <ele>219.8</ele>
        <time>2022-02-03T15:08:23Z</time>
      </trkpt>
      <trkpt lat="43.33728" lon="2.7306">
        <ele>218.84</ele>
        <time>2022-02-03T15:08:35Z</time>
      </trkpt>
      <trkpt lat="43.33727" lon="2.73063">
        <ele>218.84</ele>
        <time>2022-02-03T15:08:36Z</time>
      </trkpt>
      <trkpt lat="43.33726" lon="2.73065">
        <ele>218.84</ele>
        <time>2022-02-03T15:08:37Z</time>
      </trkpt>
      <trkpt lat="43.33716" lon="2.7308">
        <ele>217.88</ele>
        <time>2022-02-03T15:08:45Z</time>
      </trkpt>
      <trkpt lat="43.33708" lon="2.7309">
        <ele>215.47</ele>
        <time>2022-02-03T15:08:58Z</time>
      </trkpt>
      <trkpt lat="43.33696" lon="2.73107">
        <ele>214.03</ele>
        <time>2022-02-03T15:09:08Z</time>
      </trkpt>
      <trkpt lat="43.33679" lon="2.7312">
        <ele>212.59</ele>
        <time>2022-02-03T15:09:22Z</time>
      </trkpt>
      <trkpt lat="43.33678" lon="2.7312">
        <ele>212.59</ele>
        <time>2022-02-03T15:09:23Z</time>
      </trkpt>
      <trkpt lat="43.33676" lon="2.7312">
        <ele>212.11</ele>
        <time>2022-02-03T15:09:24Z</time>
      </trkpt>
      <trkpt lat="43.33674" lon="2.73123">
        <ele>212.11</ele>
        <time>2022-02-03T15:09:30Z</time>
      </trkpt>
      <trkpt lat="43.3367" lon="2.73126">
        <ele>211.63</ele>
        <time>2022-02-03T15:09:35Z</time>
      </trkpt>
      <trkpt lat="43.33661" lon="2.73131">
        <ele>210.67</ele>
        <time>2022-02-03T15:09:46Z</time>
      </trkpt>
      <trkpt lat="43.3366" lon="2.73132">
        <ele>210.67</ele>
        <time>2022-02-03T15:09:47Z</time>
      </trkpt>
      <trkpt lat="43.33659" lon="2.73133">
        <ele>210.67</ele>
        <time>2022-02-03T15:09:48Z</time>
      </trkpt>
      <trkpt lat="43.33657" lon="2.73134">
        <ele>210.67</ele>
        <time>2022-02-03T15:09:49Z</time>
      </trkpt>
      <trkpt lat="43.33656" lon="2.73134">
        <ele>210.67</ele>
        <time>2022-02-03T15:09:50Z</time>
      </trkpt>
      <trkpt lat="43.33655" lon="2.73134">
        <ele>210.67</ele>
        <time>2022-02-03T15:09:51Z</time>
      </trkpt>
      <trkpt lat="43.33654" lon="2.73134">
        <ele>210.67</ele>
        <time>2022-02-03T15:09:52Z</time>
      </trkpt>
      <trkpt lat="43.33653" lon="2.73135">
        <ele>210.67</ele>
        <time>2022-02-03T15:09:53Z</time>
      </trkpt>
      <trkpt lat="43.33643" lon="2.73141">
        <ele>210.19</ele>
        <time>2022-02-03T15:10:05Z</time>
      </trkpt>
      <trkpt lat="43.33632" lon="2.73147">
        <ele>209.22</ele>
        <time>2022-02-03T15:10:13Z</time>
      </trkpt>
      <trkpt lat="43.3363" lon="2.73147">
        <ele>208.26</ele>
        <time>2022-02-03T15:10:14Z</time>
      </trkpt>
      <trkpt lat="43.3361" lon="2.73144">
        <ele>207.3</ele>
        <time>2022-02-03T15:10:25Z</time>
      </trkpt>
      <trkpt lat="43.33598" lon="2.73138">
        <ele>207.3</ele>
        <time>2022-02-03T15:10:36Z</time>
      </trkpt>
      <trkpt lat="43.33596" lon="2.73139">
        <ele>207.3</ele>
        <time>2022-02-03T15:10:37Z</time>
      </trkpt>
      <trkpt lat="43.33595" lon="2.73139">
        <ele>207.3</ele>
        <time>2022-02-03T15:10:38Z</time>
      </trkpt>
      <trkpt lat="43.33594" lon="2.7314">
        <ele>207.3</ele>
        <time>2022-02-03T15:10:39Z</time>
      </trkpt>
      <trkpt lat="43.33592" lon="2.7314">
        <ele>207.3</ele>
        <time>2022-02-03T15:10:40Z</time>
      </trkpt>
      <trkpt lat="43.33582" lon="2.7315">
        <ele>207.3</ele>
        <time>2022-02-03T15:10:50Z</time>
      </trkpt>
      <trkpt lat="43.33581" lon="2.7315">
        <ele>207.3</ele>
        <time>2022-02-03T15:10:51Z</time>
      </trkpt>
      <trkpt lat="43.3358" lon="2.73152">
        <ele>207.3</ele>
        <time>2022-02-03T15:10:52Z</time>
      </trkpt>
      <trkpt lat="43.33578" lon="2.73154">
        <ele>207.3</ele>
        <time>2022-02-03T15:10:53Z</time>
      </trkpt>
      <trkpt lat="43.33576" lon="2.73156">
        <ele>207.3</ele>
        <time>2022-02-03T15:10:54Z</time>
      </trkpt>
      <trkpt lat="43.33575" lon="2.73157">
        <ele>206.82</ele>
        <time>2022-02-03T15:10:55Z</time>
      </trkpt>
      <trkpt lat="43.33573" lon="2.73159">
        <ele>206.82</ele>
        <time>2022-02-03T15:10:56Z</time>
      </trkpt>
      <trkpt lat="43.33567" lon="2.73165">
        <ele>206.34</ele>
        <time>2022-02-03T15:11:06Z</time>
      </trkpt>
      <trkpt lat="43.33566" lon="2.73166">
        <ele>205.86</ele>
        <time>2022-02-03T15:11:07Z</time>
      </trkpt>
      <trkpt lat="43.33548" lon="2.73188">
        <ele>204.9</ele>
        <time>2022-02-03T15:11:20Z</time>
      </trkpt>
      <trkpt lat="43.33542" lon="2.73194">
        <ele>202.98</ele>
        <time>2022-02-03T15:11:30Z</time>
      </trkpt>
      <trkpt lat="43.33542" lon="2.73195">
        <ele>202.49</ele>
        <time>2022-02-03T15:11:31Z</time>
      </trkpt>
      <trkpt lat="43.33541" lon="2.73196">
        <ele>202.49</ele>
        <time>2022-02-03T15:11:32Z</time>
      </trkpt>
      <trkpt lat="43.33538" lon="2.73209">
        <ele>201.05</ele>
        <time>2022-02-03T15:11:39Z</time>
      </trkpt>
      <trkpt lat="43.33537" lon="2.7321">
        <ele>201.05</ele>
        <time>2022-02-03T15:11:40Z</time>
      </trkpt>
      <trkpt lat="43.33534" lon="2.73212">
        <ele>200.09</ele>
        <time>2022-02-03T15:11:51Z</time>
      </trkpt>
      <trkpt lat="43.33532" lon="2.73213">
        <ele>199.61</ele>
        <time>2022-02-03T15:12:05Z</time>
      </trkpt>
      <trkpt lat="43.3353" lon="2.73214">
        <ele>199.61</ele>
        <time>2022-02-03T15:12:07Z</time>
      </trkpt>
      <trkpt lat="43.33529" lon="2.73215">
        <ele>199.61</ele>
        <time>2022-02-03T15:12:08Z</time>
      </trkpt>
      <trkpt lat="43.33508" lon="2.73222">
        <ele>197.69</ele>
        <time>2022-02-03T15:12:24Z</time>
      </trkpt>
      <trkpt lat="43.33498" lon="2.7322">
        <ele>196.25</ele>
        <time>2022-02-03T15:12:34Z</time>
      </trkpt>
      <trkpt lat="43.33493" lon="2.73206">
        <ele>195.77</ele>
        <time>2022-02-03T15:12:44Z</time>
      </trkpt>
      <trkpt lat="43.33489" lon="2.73189">
        <ele>194.8</ele>
        <time>2022-02-03T15:12:57Z</time>
      </trkpt>
      <trkpt lat="43.33471" lon="2.7317">
        <ele>195.28</ele>
        <time>2022-02-03T15:13:09Z</time>
      </trkpt>
      <trkpt lat="43.33462" lon="2.73171">
        <ele>195.28</ele>
        <time>2022-02-03T15:13:21Z</time>
      </trkpt>
      <trkpt lat="43.3344" lon="2.73177">
        <ele>196.25</ele>
        <time>2022-02-03T15:13:34Z</time>
      </trkpt>
      <trkpt lat="43.33431" lon="2.73179">
        <ele>197.69</ele>
        <time>2022-02-03T15:13:44Z</time>
      </trkpt>
      <trkpt lat="43.33416" lon="2.73182">
        <ele>198.17</ele>
        <time>2022-02-03T15:13:55Z</time>
      </trkpt>
      <trkpt lat="43.3341" lon="2.73185">
        <ele>199.13</ele>
        <time>2022-02-03T15:14:02Z</time>
      </trkpt>
      <trkpt lat="43.33408" lon="2.73185">
        <ele>199.13</ele>
        <time>2022-02-03T15:14:03Z</time>
      </trkpt>
      <trkpt lat="43.33406" lon="2.73186">
        <ele>199.13</ele>
        <time>2022-02-03T15:14:04Z</time>
      </trkpt>
      <trkpt lat="43.33404" lon="2.73186">
        <ele>199.13</ele>
        <time>2022-02-03T15:14:05Z</time>
      </trkpt>
      <trkpt lat="43.33402" lon="2.73186">
        <ele>199.13</ele>
        <time>2022-02-03T15:14:06Z</time>
      </trkpt>
      <trkpt lat="43.334" lon="2.73186">
        <ele>199.13</ele>
        <time>2022-02-03T15:14:07Z</time>
      </trkpt>
      <trkpt lat="43.33398" lon="2.73186">
        <ele>199.61</ele>
        <time>2022-02-03T15:14:08Z</time>
      </trkpt>
      <trkpt lat="43.33381" lon="2.73187">
        <ele>201.05</ele>
        <time>2022-02-03T15:14:20Z</time>
      </trkpt>
      <trkpt lat="43.33378" lon="2.73187">
        <ele>201.05</ele>
        <time>2022-02-03T15:14:22Z</time>
      </trkpt>
      <trkpt lat="43.33374" lon="2.7319">
        <ele>201.53</ele>
        <time>2022-02-03T15:14:27Z</time>
      </trkpt>
      <trkpt lat="43.33373" lon="2.73191">
        <ele>202.01</ele>
        <time>2022-02-03T15:14:28Z</time>
      </trkpt>
      <trkpt lat="43.33361" lon="2.73191">
        <ele>202.98</ele>
        <time>2022-02-03T15:14:39Z</time>
      </trkpt>
      <trkpt lat="43.33345" lon="2.73193">
        <ele>203.46</ele>
        <time>2022-02-03T15:14:51Z</time>
      </trkpt>
      <trkpt lat="43.33344" lon="2.73194">
        <ele>203.46</ele>
        <time>2022-02-03T15:14:52Z</time>
      </trkpt>
      <trkpt lat="43.33321" lon="2.73198">
        <ele>203.46</ele>
        <time>2022-02-03T15:15:06Z</time>
      </trkpt>
      <trkpt lat="43.33318" lon="2.732">
        <ele>203.94</ele>
        <time>2022-02-03T15:15:13Z</time>
      </trkpt>
      <trkpt lat="43.33317" lon="2.73201">
        <ele>203.94</ele>
        <time>2022-02-03T15:15:14Z</time>
      </trkpt>
      <trkpt lat="43.333" lon="2.73208">
        <ele>204.42</ele>
        <time>2022-02-03T15:15:27Z</time>
      </trkpt>
      <trkpt lat="43.3329" lon="2.73211">
        <ele>204.42</ele>
        <time>2022-02-03T15:15:40Z</time>
      </trkpt>
      <trkpt lat="43.33278" lon="2.73221">
        <ele>204.42</ele>
        <time>2022-02-03T15:15:53Z</time>
      </trkpt>
      <trkpt lat="43.33274" lon="2.73224">
        <ele>202.98</ele>
        <time>2022-02-03T15:15:56Z</time>
      </trkpt>
      <trkpt lat="43.33253" lon="2.73229">
        <ele>201.53</ele>
        <time>2022-02-03T15:16:08Z</time>
      </trkpt>
      <trkpt lat="43.33237" lon="2.73219">
        <ele>199.61</ele>
        <time>2022-02-03T15:16:20Z</time>
      </trkpt>
      <trkpt lat="43.3323" lon="2.73206">
        <ele>198.65</ele>
        <time>2022-02-03T15:16:29Z</time>
      </trkpt>
      <trkpt lat="43.33219" lon="2.73175">
        <ele>196.73</ele>
        <time>2022-02-03T15:16:42Z</time>
      </trkpt>
      <trkpt lat="43.33219" lon="2.73173">
        <ele>194.32</ele>
        <time>2022-02-03T15:16:52Z</time>
      </trkpt>
      <trkpt lat="43.33218" lon="2.73171">
        <ele>193.84</ele>
        <time>2022-02-03T15:16:53Z</time>
      </trkpt>
      <trkpt lat="43.33218" lon="2.73169">
        <ele>193.84</ele>
        <time>2022-02-03T15:16:54Z</time>
      </trkpt>
      <trkpt lat="43.33216" lon="2.73167">
        <ele>193.84</ele>
        <time>2022-02-03T15:16:55Z</time>
      </trkpt>
      <trkpt lat="43.33215" lon="2.73165">
        <ele>193.36</ele>
        <time>2022-02-03T15:16:56Z</time>
      </trkpt>
      <trkpt lat="43.33203" lon="2.73136">
        <ele>191.92</ele>
        <time>2022-02-03T15:17:11Z</time>
      </trkpt>
      <trkpt lat="43.3319" lon="2.7311">
        <ele>189.52</ele>
        <time>2022-02-03T15:17:22Z</time>
      </trkpt>
      <trkpt lat="43.33186" lon="2.73088">
        <ele>189.04</ele>
        <time>2022-02-03T15:17:34Z</time>
      </trkpt>
      <trkpt lat="43.33178" lon="2.73073">
        <ele>188.08</ele>
        <time>2022-02-03T15:17:47Z</time>
      </trkpt>
      <trkpt lat="43.33175" lon="2.73064">
        <ele>187.59</ele>
        <time>2022-02-03T15:18:00Z</time>
      </trkpt>
      <trkpt lat="43.33175" lon="2.73062">
        <ele>187.59</ele>
        <time>2022-02-03T15:18:01Z</time>
      </trkpt>
      <trkpt lat="43.33174" lon="2.73049">
        <ele>187.11</ele>
        <time>2022-02-03T15:18:10Z</time>
      </trkpt>
      <trkpt lat="43.33173" lon="2.73046">
        <ele>187.11</ele>
        <time>2022-02-03T15:18:11Z</time>
      </trkpt>
      <trkpt lat="43.33172" lon="2.73043">
        <ele>187.11</ele>
        <time>2022-02-03T15:18:12Z</time>
      </trkpt>
      <trkpt lat="43.33171" lon="2.73041">
        <ele>186.15</ele>
        <time>2022-02-03T15:18:13Z</time>
      </trkpt>
      <trkpt lat="43.33169" lon="2.73038">
        <ele>186.15</ele>
        <time>2022-02-03T15:18:14Z</time>
      </trkpt>
      <trkpt lat="43.33168" lon="2.73036">
        <ele>186.15</ele>
        <time>2022-02-03T15:18:15Z</time>
      </trkpt>
      <trkpt lat="43.33165" lon="2.73033">
        <ele>186.15</ele>
        <time>2022-02-03T15:18:16Z</time>
      </trkpt>
      <trkpt lat="43.33163" lon="2.73032">
        <ele>186.15</ele>
        <time>2022-02-03T15:18:17Z</time>
      </trkpt>
      <trkpt lat="43.33161" lon="2.7303">
        <ele>186.15</ele>
        <time>2022-02-03T15:18:18Z</time>
      </trkpt>
      <trkpt lat="43.33159" lon="2.73029">
        <ele>185.67</ele>
        <time>2022-02-03T15:18:19Z</time>
      </trkpt>
      <trkpt lat="43.3315" lon="2.73028">
        <ele>185.19</ele>
        <time>2022-02-03T15:18:24Z</time>
      </trkpt>
      <trkpt lat="43.3315" lon="2.73031">
        <ele>184.23</ele>
        <time>2022-02-03T15:18:34Z</time>
      </trkpt>
      <trkpt lat="43.33149" lon="2.73033">
        <ele>184.23</ele>
        <time>2022-02-03T15:18:48Z</time>
      </trkpt>
      <trkpt lat="43.33148" lon="2.73034">
        <ele>184.23</ele>
        <time>2022-02-03T15:19:07Z</time>
      </trkpt>
      <trkpt lat="43.33149" lon="2.73038">
        <ele>183.75</ele>
        <time>2022-02-03T15:19:10Z</time>
      </trkpt>
      <trkpt lat="43.33148" lon="2.73041">
        <ele>183.75</ele>
        <time>2022-02-03T15:19:12Z</time>
      </trkpt>
      <trkpt lat="43.33149" lon="2.73054">
        <ele>183.27</ele>
        <time>2022-02-03T15:19:19Z</time>
      </trkpt>
      <trkpt lat="43.33149" lon="2.73056">
        <ele>183.27</ele>
        <time>2022-02-03T15:19:20Z</time>
      </trkpt>
      <trkpt lat="43.33149" lon="2.73059">
        <ele>183.27</ele>
        <time>2022-02-03T15:19:21Z</time>
      </trkpt>
      <trkpt lat="43.33148" lon="2.73061">
        <ele>183.27</ele>
        <time>2022-02-03T15:19:22Z</time>
      </trkpt>
      <trkpt lat="43.33148" lon="2.73064">
        <ele>183.27</ele>
        <time>2022-02-03T15:19:23Z</time>
      </trkpt>
      <trkpt lat="43.33148" lon="2.73067">
        <ele>183.27</ele>
        <time>2022-02-03T15:19:24Z</time>
      </trkpt>
      <trkpt lat="43.33147" lon="2.7307">
        <ele>183.27</ele>
        <time>2022-02-03T15:19:25Z</time>
      </trkpt>
      <trkpt lat="43.33146" lon="2.73073">
        <ele>182.79</ele>
        <time>2022-02-03T15:19:26Z</time>
      </trkpt>
      <trkpt lat="43.33143" lon="2.73103">
        <ele>182.79</ele>
        <time>2022-02-03T15:19:40Z</time>
      </trkpt>
      <trkpt lat="43.33136" lon="2.7311">
        <ele>181.83</ele>
        <time>2022-02-03T15:19:53Z</time>
      </trkpt>
      <trkpt lat="43.33117" lon="2.73105">
        <ele>181.35</ele>
        <time>2022-02-03T15:20:07Z</time>
      </trkpt>
      <trkpt lat="43.33097" lon="2.73104">
        <ele>180.38</ele>
        <time>2022-02-03T15:20:23Z</time>
      </trkpt>
      <trkpt lat="43.33077" lon="2.73106">
        <ele>179.9</ele>
        <time>2022-02-03T15:20:38Z</time>
      </trkpt>
      <trkpt lat="43.33076" lon="2.73111">
        <ele>179.9</ele>
        <time>2022-02-03T15:20:41Z</time>
      </trkpt>
      <trkpt lat="43.33076" lon="2.73112">
        <ele>179.9</ele>
        <time>2022-02-03T15:20:42Z</time>
      </trkpt>
      <trkpt lat="43.33073" lon="2.73121">
        <ele>179.42</ele>
        <time>2022-02-03T15:20:58Z</time>
      </trkpt>
      <trkpt lat="43.33075" lon="2.73114">
        <ele>178.94</ele>
        <time>2022-02-03T15:21:13Z</time>
      </trkpt>
      <trkpt lat="43.33075" lon="2.73112">
        <ele>178.94</ele>
        <time>2022-02-03T15:21:14Z</time>
      </trkpt>
      <trkpt lat="43.33075" lon="2.73111">
        <ele>178.94</ele>
        <time>2022-02-03T15:21:15Z</time>
      </trkpt>
      <trkpt lat="43.33075" lon="2.73109">
        <ele>178.94</ele>
        <time>2022-02-03T15:21:16Z</time>
      </trkpt>
      <trkpt lat="43.33076" lon="2.73104">
        <ele>178.94</ele>
        <time>2022-02-03T15:21:19Z</time>
      </trkpt>
      <trkpt lat="43.33077" lon="2.73103">
        <ele>178.94</ele>
        <time>2022-02-03T15:21:20Z</time>
      </trkpt>
      <trkpt lat="43.33078" lon="2.73102">
        <ele>178.94</ele>
        <time>2022-02-03T15:21:21Z</time>
      </trkpt>
      <trkpt lat="43.33081" lon="2.73098">
        <ele>178.94</ele>
        <time>2022-02-03T15:21:24Z</time>
      </trkpt>
      <trkpt lat="43.33077" lon="2.73095">
        <ele>178.94</ele>
        <time>2022-02-03T15:21:28Z</time>
      </trkpt>
      <trkpt lat="43.33072" lon="2.73094">
        <ele>178.46</ele>
        <time>2022-02-03T15:21:33Z</time>
      </trkpt>
      <trkpt lat="43.33064" lon="2.73092">
        <ele>178.46</ele>
        <time>2022-02-03T15:21:48Z</time>
      </trkpt>
      <trkpt lat="43.33066" lon="2.73079">
        <ele>176.54</ele>
        <time>2022-02-03T15:22:01Z</time>
      </trkpt>
      <trkpt lat="43.33066" lon="2.73067">
        <ele>176.06</ele>
        <time>2022-02-03T15:22:07Z</time>
      </trkpt>
      <trkpt lat="43.33067" lon="2.73058">
        <ele>174.14</ele>
        <time>2022-02-03T15:22:11Z</time>
      </trkpt>
      <trkpt lat="43.33066" lon="2.73055">
        <ele>174.14</ele>
        <time>2022-02-03T15:22:12Z</time>
      </trkpt>
      <trkpt lat="43.33065" lon="2.73052">
        <ele>173.66</ele>
        <time>2022-02-03T15:22:13Z</time>
      </trkpt>
      <trkpt lat="43.33064" lon="2.7303">
        <ele>170.29</ele>
        <time>2022-02-03T15:22:24Z</time>
      </trkpt>
      <trkpt lat="43.33065" lon="2.73028">
        <ele>169.81</ele>
        <time>2022-02-03T15:22:26Z</time>
      </trkpt>
      <trkpt lat="43.33065" lon="2.73026">
        <ele>169.33</ele>
        <time>2022-02-03T15:22:27Z</time>
      </trkpt>
      <trkpt lat="43.33065" lon="2.73021">
        <ele>169.33</ele>
        <time>2022-02-03T15:22:29Z</time>
      </trkpt>
      <trkpt lat="43.33065" lon="2.7302">
        <ele>168.37</ele>
        <time>2022-02-03T15:22:30Z</time>
      </trkpt>
      <trkpt lat="43.33065" lon="2.73018">
        <ele>168.37</ele>
        <time>2022-02-03T15:22:31Z</time>
      </trkpt>
      <trkpt lat="43.33062" lon="2.73002">
        <ele>166.45</ele>
        <time>2022-02-03T15:22:40Z</time>
      </trkpt>
      <trkpt lat="43.33054" lon="2.72977">
        <ele>164.52</ele>
        <time>2022-02-03T15:22:55Z</time>
      </trkpt>
      <trkpt lat="43.33055" lon="2.72958">
        <ele>164.04</ele>
        <time>2022-02-03T15:23:08Z</time>
      </trkpt>
      <trkpt lat="43.33055" lon="2.72929">
        <ele>161.64</ele>
        <time>2022-02-03T15:23:23Z</time>
      </trkpt>
      <trkpt lat="43.33053" lon="2.72902">
        <ele>159.72</ele>
        <time>2022-02-03T15:23:36Z</time>
      </trkpt>
      <trkpt lat="43.33054" lon="2.72889">
        <ele>157.79</ele>
        <time>2022-02-03T15:23:45Z</time>
      </trkpt>
      <trkpt lat="43.33054" lon="2.72887">
        <ele>157.79</ele>
        <time>2022-02-03T15:23:46Z</time>
      </trkpt>
      <trkpt lat="43.33055" lon="2.7288">
        <ele>156.35</ele>
        <time>2022-02-03T15:23:52Z</time>
      </trkpt>
      <trkpt lat="43.33054" lon="2.72848">
        <ele>154.91</ele>
        <time>2022-02-03T15:24:05Z</time>
      </trkpt>
      <trkpt lat="43.33054" lon="2.72845">
        <ele>154.91</ele>
        <time>2022-02-03T15:24:08Z</time>
      </trkpt>
      <trkpt lat="43.33055" lon="2.72842">
        <ele>154.91</ele>
        <time>2022-02-03T15:24:09Z</time>
      </trkpt>
      <trkpt lat="43.33055" lon="2.72841">
        <ele>154.91</ele>
        <time>2022-02-03T15:24:10Z</time>
      </trkpt>
      <trkpt lat="43.33055" lon="2.72839">
        <ele>154.91</ele>
        <time>2022-02-03T15:24:11Z</time>
      </trkpt>
      <trkpt lat="43.33056" lon="2.72837">
        <ele>154.43</ele>
        <time>2022-02-03T15:24:12Z</time>
      </trkpt>
      <trkpt lat="43.33056" lon="2.72835">
        <ele>154.43</ele>
        <time>2022-02-03T15:24:13Z</time>
      </trkpt>
      <trkpt lat="43.33054" lon="2.72817">
        <ele>153.95</ele>
        <time>2022-02-03T15:24:25Z</time>
      </trkpt>
      <trkpt lat="43.33052" lon="2.72803">
        <ele>153.95</ele>
        <time>2022-02-03T15:24:34Z</time>
      </trkpt>
      <trkpt lat="43.33051" lon="2.72802">
        <ele>153.95</ele>
        <time>2022-02-03T15:24:35Z</time>
      </trkpt>
      <trkpt lat="43.3305" lon="2.72795">
        <ele>152.51</ele>
        <time>2022-02-03T15:24:39Z</time>
      </trkpt>
      <trkpt lat="43.33049" lon="2.72789">
        <ele>152.51</ele>
        <time>2022-02-03T15:24:51Z</time>
      </trkpt>
      <trkpt lat="43.33049" lon="2.72789">
        <ele>151.06</ele>
        <time>2022-02-03T15:24:53Z</time>
      </trkpt>
      <trkpt lat="43.33031" lon="2.7279">
        <ele>149.14</ele>
        <time>2022-02-03T15:25:10Z</time>
      </trkpt>
      <trkpt lat="43.33021" lon="2.72788">
        <ele>148.18</ele>
        <time>2022-02-03T15:25:19Z</time>
      </trkpt>
      <trkpt lat="43.33019" lon="2.72788">
        <ele>148.18</ele>
        <time>2022-02-03T15:25:20Z</time>
      </trkpt>
      <trkpt lat="43.33014" lon="2.72788">
        <ele>146.26</ele>
        <time>2022-02-03T15:25:24Z</time>
      </trkpt>
      <trkpt lat="43.32999" lon="2.7279">
        <ele>144.82</ele>
        <time>2022-02-03T15:25:39Z</time>
      </trkpt>
      <trkpt lat="43.32998" lon="2.72791">
        <ele>144.34</ele>
        <time>2022-02-03T15:25:40Z</time>
      </trkpt>
      <trkpt lat="43.32996" lon="2.72792">
        <ele>144.34</ele>
        <time>2022-02-03T15:25:41Z</time>
      </trkpt>
      <trkpt lat="43.32995" lon="2.72793">
        <ele>144.34</ele>
        <time>2022-02-03T15:25:42Z</time>
      </trkpt>
      <trkpt lat="43.32993" lon="2.72794">
        <ele>144.34</ele>
        <time>2022-02-03T15:25:43Z</time>
      </trkpt>
      <trkpt lat="43.32976" lon="2.72813">
        <ele>144.34</ele>
        <time>2022-02-03T15:25:59Z</time>
      </trkpt>
      <trkpt lat="43.32975" lon="2.72814">
        <ele>144.34</ele>
        <time>2022-02-03T15:26:00Z</time>
      </trkpt>
      <trkpt lat="43.32974" lon="2.72815">
        <ele>143.85</ele>
        <time>2022-02-03T15:26:01Z</time>
      </trkpt>
      <trkpt lat="43.32974" lon="2.72817">
        <ele>143.85</ele>
        <time>2022-02-03T15:26:02Z</time>
      </trkpt>
      <trkpt lat="43.32974" lon="2.72818">
        <ele>143.85</ele>
        <time>2022-02-03T15:26:03Z</time>
      </trkpt>
      <trkpt lat="43.32973" lon="2.7282">
        <ele>143.85</ele>
        <time>2022-02-03T15:26:04Z</time>
      </trkpt>
      <trkpt lat="43.32972" lon="2.72821">
        <ele>143.37</ele>
        <time>2022-02-03T15:26:05Z</time>
      </trkpt>
      <trkpt lat="43.32971" lon="2.72821">
        <ele>143.37</ele>
        <time>2022-02-03T15:26:06Z</time>
      </trkpt>
      <trkpt lat="43.32967" lon="2.72822">
        <ele>141.93</ele>
        <time>2022-02-03T15:26:11Z</time>
      </trkpt>
      <trkpt lat="43.3296" lon="2.72829">
        <ele>140.49</ele>
        <time>2022-02-03T15:26:17Z</time>
      </trkpt>
      <trkpt lat="43.32958" lon="2.72832">
        <ele>140.49</ele>
        <time>2022-02-03T15:26:19Z</time>
      </trkpt>
      <trkpt lat="43.32955" lon="2.72834">
        <ele>139.53</ele>
        <time>2022-02-03T15:26:22Z</time>
      </trkpt>
      <trkpt lat="43.32953" lon="2.72835">
        <ele>139.53</ele>
        <time>2022-02-03T15:26:23Z</time>
      </trkpt>
      <trkpt lat="43.32952" lon="2.72841">
        <ele>139.53</ele>
        <time>2022-02-03T15:26:28Z</time>
      </trkpt>
      <trkpt lat="43.32951" lon="2.72842">
        <ele>139.05</ele>
        <time>2022-02-03T15:26:29Z</time>
      </trkpt>
      <trkpt lat="43.3295" lon="2.72844">
        <ele>138.57</ele>
        <time>2022-02-03T15:26:30Z</time>
      </trkpt>
      <trkpt lat="43.32948" lon="2.72845">
        <ele>138.57</ele>
        <time>2022-02-03T15:26:32Z</time>
      </trkpt>
      <trkpt lat="43.32948" lon="2.72847">
        <ele>138.57</ele>
        <time>2022-02-03T15:26:33Z</time>
      </trkpt>
      <trkpt lat="43.32947" lon="2.72849">
        <ele>138.57</ele>
        <time>2022-02-03T15:26:34Z</time>
      </trkpt>
      <trkpt lat="43.3294" lon="2.7286">
        <ele>138.57</ele>
        <time>2022-02-03T15:26:46Z</time>
      </trkpt>
      <trkpt lat="43.32936" lon="2.72865">
        <ele>138.09</ele>
        <time>2022-02-03T15:26:55Z</time>
      </trkpt>
      <trkpt lat="43.3293" lon="2.72874">
        <ele>137.13</ele>
        <time>2022-02-03T15:27:07Z</time>
      </trkpt>
      <trkpt lat="43.32927" lon="2.72877">
        <ele>137.13</ele>
        <time>2022-02-03T15:27:10Z</time>
      </trkpt>
      <trkpt lat="43.32926" lon="2.72878">
        <ele>137.13</ele>
        <time>2022-02-03T15:27:11Z</time>
      </trkpt>
      <trkpt lat="43.32925" lon="2.72879">
        <ele>137.13</ele>
        <time>2022-02-03T15:27:12Z</time>
      </trkpt>
      <trkpt lat="43.32908" lon="2.72894">
        <ele>137.13</ele>
        <time>2022-02-03T15:27:24Z</time>
      </trkpt>
      <trkpt lat="43.32895" lon="2.72907">
        <ele>138.57</ele>
        <time>2022-02-03T15:27:35Z</time>
      </trkpt>
      <trkpt lat="43.32879" lon="2.72919">
        <ele>134.72</ele>
        <time>2022-02-03T15:27:47Z</time>
      </trkpt>
      <trkpt lat="43.32872" lon="2.72922">
        <ele>134.24</ele>
        <time>2022-02-03T15:27:52Z</time>
      </trkpt>
      <trkpt lat="43.3287" lon="2.72924">
        <ele>134.24</ele>
        <time>2022-02-03T15:27:53Z</time>
      </trkpt>
      <trkpt lat="43.32869" lon="2.72925">
        <ele>134.24</ele>
        <time>2022-02-03T15:27:54Z</time>
      </trkpt>
      <trkpt lat="43.32862" lon="2.72931">
        <ele>134.24</ele>
        <time>2022-02-03T15:28:07Z</time>
      </trkpt>
      <trkpt lat="43.32861" lon="2.72933">
        <ele>134.24</ele>
        <time>2022-02-03T15:28:08Z</time>
      </trkpt>
      <trkpt lat="43.3286" lon="2.72935">
        <ele>134.72</ele>
        <time>2022-02-03T15:28:09Z</time>
      </trkpt>
      <trkpt lat="43.32859" lon="2.72937">
        <ele>134.72</ele>
        <time>2022-02-03T15:28:10Z</time>
      </trkpt>
      <trkpt lat="43.32858" lon="2.72938">
        <ele>134.24</ele>
        <time>2022-02-03T15:28:11Z</time>
      </trkpt>
      <trkpt lat="43.32857" lon="2.7294">
        <ele>134.24</ele>
        <time>2022-02-03T15:28:12Z</time>
      </trkpt>
      <trkpt lat="43.32856" lon="2.72941">
        <ele>134.24</ele>
        <time>2022-02-03T15:28:13Z</time>
      </trkpt>
      <trkpt lat="43.32851" lon="2.72951">
        <ele>134.24</ele>
        <time>2022-02-03T15:28:24Z</time>
      </trkpt>
      <trkpt lat="43.3285" lon="2.72953">
        <ele>134.24</ele>
        <time>2022-02-03T15:28:25Z</time>
      </trkpt>
      <trkpt lat="43.32849" lon="2.72955">
        <ele>134.24</ele>
        <time>2022-02-03T15:28:26Z</time>
      </trkpt>
      <trkpt lat="43.32832" lon="2.72976">
        <ele>134.24</ele>
        <time>2022-02-03T15:28:39Z</time>
      </trkpt>
      <trkpt lat="43.32827" lon="2.72982">
        <ele>135.68</ele>
        <time>2022-02-03T15:28:45Z</time>
      </trkpt>
      <trkpt lat="43.3282" lon="2.72992">
        <ele>136.16</ele>
        <time>2022-02-03T15:28:58Z</time>
      </trkpt>
      <trkpt lat="43.32818" lon="2.72995">
        <ele>136.64</ele>
        <time>2022-02-03T15:29:00Z</time>
      </trkpt>
      <trkpt lat="43.32814" lon="2.73007">
        <ele>136.64</ele>
        <time>2022-02-03T15:29:13Z</time>
      </trkpt>
      <trkpt lat="43.32806" lon="2.73035">
        <ele>136.64</ele>
        <time>2022-02-03T15:29:25Z</time>
      </trkpt>
      <trkpt lat="43.32802" lon="2.7305">
        <ele>135.2</ele>
        <time>2022-02-03T15:29:36Z</time>
      </trkpt>
      <trkpt lat="43.32801" lon="2.73057">
        <ele>135.2</ele>
        <time>2022-02-03T15:29:43Z</time>
      </trkpt>
      <trkpt lat="43.32799" lon="2.73062">
        <ele>135.2</ele>
        <time>2022-02-03T15:29:46Z</time>
      </trkpt>
      <trkpt lat="43.32797" lon="2.73066">
        <ele>135.2</ele>
        <time>2022-02-03T15:29:48Z</time>
      </trkpt>
      <trkpt lat="43.32788" lon="2.73091">
        <ele>134.72</ele>
        <time>2022-02-03T15:29:59Z</time>
      </trkpt>
      <trkpt lat="43.32785" lon="2.73107">
        <ele>133.76</ele>
        <time>2022-02-03T15:30:07Z</time>
      </trkpt>
      <trkpt lat="43.32778" lon="2.73123">
        <ele>132.8</ele>
        <time>2022-02-03T15:30:21Z</time>
      </trkpt>
      <trkpt lat="43.32768" lon="2.73142">
        <ele>131.36</ele>
        <time>2022-02-03T15:30:32Z</time>
      </trkpt>
      <trkpt lat="43.32753" lon="2.73152">
        <ele>129.92</ele>
        <time>2022-02-03T15:30:44Z</time>
      </trkpt>
      <trkpt lat="43.32747" lon="2.73156">
        <ele>129.43</ele>
        <time>2022-02-03T15:30:53Z</time>
      </trkpt>
      <trkpt lat="43.32736" lon="2.73166">
        <ele>128.95</ele>
        <time>2022-02-03T15:31:02Z</time>
      </trkpt>
      <trkpt lat="43.32723" lon="2.73182">
        <ele>127.99</ele>
        <time>2022-02-03T15:31:14Z</time>
      </trkpt>
      <trkpt lat="43.32721" lon="2.73182">
        <ele>127.99</ele>
        <time>2022-02-03T15:31:15Z</time>
      </trkpt>
      <trkpt lat="43.3272" lon="2.73183">
        <ele>127.99</ele>
        <time>2022-02-03T15:31:16Z</time>
      </trkpt>
      <trkpt lat="43.32719" lon="2.73184">
        <ele>127.99</ele>
        <time>2022-02-03T15:31:17Z</time>
      </trkpt>
      <trkpt lat="43.32715" lon="2.73189">
        <ele>127.51</ele>
        <time>2022-02-03T15:31:24Z</time>
      </trkpt>
      <trkpt lat="43.32714" lon="2.7319">
        <ele>127.03</ele>
        <time>2022-02-03T15:31:25Z</time>
      </trkpt>
      <trkpt lat="43.32714" lon="2.73192">
        <ele>127.03</ele>
        <time>2022-02-03T15:31:26Z</time>
      </trkpt>
      <trkpt lat="43.32705" lon="2.73214">
        <ele>126.07</ele>
        <time>2022-02-03T15:31:37Z</time>
      </trkpt>
      <trkpt lat="43.32704" lon="2.73216">
        <ele>126.07</ele>
        <time>2022-02-03T15:31:38Z</time>
      </trkpt>
      <trkpt lat="43.32697" lon="2.7322">
        <ele>124.15</ele>
        <time>2022-02-03T15:31:49Z</time>
      </trkpt>
      <trkpt lat="43.32693" lon="2.73224">
        <ele>123.19</ele>
        <time>2022-02-03T15:31:52Z</time>
      </trkpt>
      <trkpt lat="43.3268" lon="2.73241">
        <ele>121.74</ele>
        <time>2022-02-03T15:32:05Z</time>
      </trkpt>
      <trkpt lat="43.32678" lon="2.73242">
        <ele>121.74</ele>
        <time>2022-02-03T15:32:07Z</time>
      </trkpt>
      <trkpt lat="43.32676" lon="2.73242">
        <ele>121.74</ele>
        <time>2022-02-03T15:32:08Z</time>
      </trkpt>
      <trkpt lat="43.32662" lon="2.73251">
        <ele>120.3</ele>
        <time>2022-02-03T15:32:22Z</time>
      </trkpt>
      <trkpt lat="43.3265" lon="2.7326">
        <ele>119.82</ele>
        <time>2022-02-03T15:32:33Z</time>
      </trkpt>
      <trkpt lat="43.32646" lon="2.73262">
        <ele>118.86</ele>
        <time>2022-02-03T15:32:35Z</time>
      </trkpt>
      <trkpt lat="43.32625" lon="2.73265">
        <ele>117.42</ele>
        <time>2022-02-03T15:32:49Z</time>
      </trkpt>
      <trkpt lat="43.32617" lon="2.73268">
        <ele>115.5</ele>
        <time>2022-02-03T15:33:02Z</time>
      </trkpt>
      <trkpt lat="43.32611" lon="2.73268">
        <ele>115.01</ele>
        <time>2022-02-03T15:33:17Z</time>
      </trkpt>
      <trkpt lat="43.32609" lon="2.73269">
        <ele>115.01</ele>
        <time>2022-02-03T15:33:18Z</time>
      </trkpt>
      <trkpt lat="43.32608" lon="2.73269">
        <ele>115.01</ele>
        <time>2022-02-03T15:33:19Z</time>
      </trkpt>
      <trkpt lat="43.32607" lon="2.73269">
        <ele>115.01</ele>
        <time>2022-02-03T15:33:20Z</time>
      </trkpt>
      <trkpt lat="43.3259" lon="2.73277">
        <ele>112.13</ele>
        <time>2022-02-03T15:33:33Z</time>
      </trkpt>
      <trkpt lat="43.32589" lon="2.73277">
        <ele>113.09</ele>
        <time>2022-02-03T15:33:37Z</time>
      </trkpt>
      <trkpt lat="43.32587" lon="2.73283">
        <ele>113.09</ele>
        <time>2022-02-03T15:33:43Z</time>
      </trkpt>
      <trkpt lat="43.32579" lon="2.73302">
        <ele>112.61</ele>
        <time>2022-02-03T15:33:54Z</time>
      </trkpt>
      <trkpt lat="43.32572" lon="2.73311">
        <ele>111.65</ele>
        <time>2022-02-03T15:34:06Z</time>
      </trkpt>
      <trkpt lat="43.32571" lon="2.73312">
        <ele>111.65</ele>
        <time>2022-02-03T15:34:09Z</time>
      </trkpt>
      <trkpt lat="43.3257" lon="2.73313">
        <ele>111.65</ele>
        <time>2022-02-03T15:34:10Z</time>
      </trkpt>
      <trkpt lat="43.32569" lon="2.73314">
        <ele>111.65</ele>
        <time>2022-02-03T15:34:11Z</time>
      </trkpt>
      <trkpt lat="43.32562" lon="2.73324">
        <ele>111.17</ele>
        <time>2022-02-03T15:34:20Z</time>
      </trkpt>
      <trkpt lat="43.32561" lon="2.73326">
        <ele>111.17</ele>
        <time>2022-02-03T15:34:22Z</time>
      </trkpt>
      <trkpt lat="43.3256" lon="2.73327">
        <ele>111.17</ele>
        <time>2022-02-03T15:34:23Z</time>
      </trkpt>
      <trkpt lat="43.32552" lon="2.73335">
        <ele>111.17</ele>
        <time>2022-02-03T15:34:31Z</time>
      </trkpt>
      <trkpt lat="43.32537" lon="2.73352">
        <ele>111.17</ele>
        <time>2022-02-03T15:34:45Z</time>
      </trkpt>
      <trkpt lat="43.32533" lon="2.73359">
        <ele>110.69</ele>
        <time>2022-02-03T15:34:54Z</time>
      </trkpt>
      <trkpt lat="43.32532" lon="2.7336">
        <ele>110.21</ele>
        <time>2022-02-03T15:35:04Z</time>
      </trkpt>
      <trkpt lat="43.32531" lon="2.73362">
        <ele>110.21</ele>
        <time>2022-02-03T15:35:05Z</time>
      </trkpt>
      <trkpt lat="43.3253" lon="2.73363">
        <ele>110.21</ele>
        <time>2022-02-03T15:35:06Z</time>
      </trkpt>
      <trkpt lat="43.32529" lon="2.73365">
        <ele>110.21</ele>
        <time>2022-02-03T15:35:07Z</time>
      </trkpt>
      <trkpt lat="43.32528" lon="2.73366">
        <ele>110.21</ele>
        <time>2022-02-03T15:35:08Z</time>
      </trkpt>
      <trkpt lat="43.32521" lon="2.73375">
        <ele>108.77</ele>
        <time>2022-02-03T15:35:21Z</time>
      </trkpt>
      <trkpt lat="43.32518" lon="2.73381">
        <ele>108.77</ele>
        <time>2022-02-03T15:35:25Z</time>
      </trkpt>
      <trkpt lat="43.32517" lon="2.73383">
        <ele>108.29</ele>
        <time>2022-02-03T15:35:26Z</time>
      </trkpt>
      <trkpt lat="43.32515" lon="2.73385">
        <ele>108.29</ele>
        <time>2022-02-03T15:35:27Z</time>
      </trkpt>
      <trkpt lat="43.32514" lon="2.73387">
        <ele>108.29</ele>
        <time>2022-02-03T15:35:28Z</time>
      </trkpt>
      <trkpt lat="43.32513" lon="2.73388">
        <ele>107.81</ele>
        <time>2022-02-03T15:35:29Z</time>
      </trkpt>
      <trkpt lat="43.32511" lon="2.7339">
        <ele>107.81</ele>
        <time>2022-02-03T15:35:30Z</time>
      </trkpt>
      <trkpt lat="43.3251" lon="2.73392">
        <ele>107.32</ele>
        <time>2022-02-03T15:35:31Z</time>
      </trkpt>
      <trkpt lat="43.32509" lon="2.73395">
        <ele>107.32</ele>
        <time>2022-02-03T15:35:32Z</time>
      </trkpt>
      <trkpt lat="43.32497" lon="2.7341">
        <ele>106.36</ele>
        <time>2022-02-03T15:35:42Z</time>
      </trkpt>
      <trkpt lat="43.32493" lon="2.73426">
        <ele>104.44</ele>
        <time>2022-02-03T15:35:56Z</time>
      </trkpt>
      <trkpt lat="43.32493" lon="2.73429">
        <ele>103.96</ele>
        <time>2022-02-03T15:35:58Z</time>
      </trkpt>
      <trkpt lat="43.32492" lon="2.73431">
        <ele>103.96</ele>
        <time>2022-02-03T15:35:59Z</time>
      </trkpt>
      <trkpt lat="43.32491" lon="2.73432">
        <ele>103.96</ele>
        <time>2022-02-03T15:36:00Z</time>
      </trkpt>
      <trkpt lat="43.3249" lon="2.73434">
        <ele>103.48</ele>
        <time>2022-02-03T15:36:01Z</time>
      </trkpt>
      <trkpt lat="43.32489" lon="2.73439">
        <ele>103.48</ele>
        <time>2022-02-03T15:36:04Z</time>
      </trkpt>
      <trkpt lat="43.32486" lon="2.73453">
        <ele>102.52</ele>
        <time>2022-02-03T15:36:15Z</time>
      </trkpt>
      <trkpt lat="43.32484" lon="2.73459">
        <ele>102.04</ele>
        <time>2022-02-03T15:36:18Z</time>
      </trkpt>
      <trkpt lat="43.32483" lon="2.73466">
        <ele>102.04</ele>
        <time>2022-02-03T15:36:22Z</time>
      </trkpt>
      <trkpt lat="43.32482" lon="2.7347">
        <ele>101.56</ele>
        <time>2022-02-03T15:36:24Z</time>
      </trkpt>
      <trkpt lat="43.32485" lon="2.73492">
        <ele>100.6</ele>
        <time>2022-02-03T15:36:38Z</time>
      </trkpt>
      <trkpt lat="43.32485" lon="2.735">
        <ele>100.6</ele>
        <time>2022-02-03T15:36:45Z</time>
      </trkpt>
      <trkpt lat="43.3248" lon="2.73526">
        <ele>100.6</ele>
        <time>2022-02-03T15:36:58Z</time>
      </trkpt>
      <trkpt lat="43.32477" lon="2.73538">
        <ele>101.56</ele>
        <time>2022-02-03T15:37:03Z</time>
      </trkpt>
      <trkpt lat="43.32474" lon="2.73545">
        <ele>103</ele>
        <time>2022-02-03T15:37:12Z</time>
      </trkpt>
      <trkpt lat="43.32473" lon="2.73549">
        <ele>103.48</ele>
        <time>2022-02-03T15:37:15Z</time>
      </trkpt>
      <trkpt lat="43.32472" lon="2.7355">
        <ele>103.96</ele>
        <time>2022-02-03T15:37:16Z</time>
      </trkpt>
      <trkpt lat="43.32472" lon="2.73552">
        <ele>103.96</ele>
        <time>2022-02-03T15:37:17Z</time>
      </trkpt>
      <trkpt lat="43.32464" lon="2.73575">
        <ele>105.4</ele>
        <time>2022-02-03T15:37:30Z</time>
      </trkpt>
      <trkpt lat="43.32467" lon="2.73591">
        <ele>105.4</ele>
        <time>2022-02-03T15:37:42Z</time>
      </trkpt>
      <trkpt lat="43.32469" lon="2.73602">
        <ele>103.96</ele>
        <time>2022-02-03T15:37:48Z</time>
      </trkpt>
      <trkpt lat="43.32469" lon="2.73605">
        <ele>103.96</ele>
        <time>2022-02-03T15:37:49Z</time>
      </trkpt>
      <trkpt lat="43.3247" lon="2.73611">
        <ele>103.96</ele>
        <time>2022-02-03T15:37:52Z</time>
      </trkpt>
      <trkpt lat="43.32465" lon="2.73614">
        <ele>103.48</ele>
        <time>2022-02-03T15:37:59Z</time>
      </trkpt>
      <trkpt lat="43.32464" lon="2.73614">
        <ele>103.48</ele>
        <time>2022-02-03T15:38:00Z</time>
      </trkpt>
      <trkpt lat="43.32448" lon="2.73606">
        <ele>101.08</ele>
        <time>2022-02-03T15:38:17Z</time>
      </trkpt>
      <trkpt lat="43.32444" lon="2.73605">
        <ele>101.08</ele>
        <time>2022-02-03T15:38:20Z</time>
      </trkpt>
      <trkpt lat="43.32442" lon="2.73606">
        <ele>100.6</ele>
        <time>2022-02-03T15:38:21Z</time>
      </trkpt>
      <trkpt lat="43.32442" lon="2.73607">
        <ele>100.6</ele>
        <time>2022-02-03T15:38:22Z</time>
      </trkpt>
      <trkpt lat="43.32441" lon="2.73608">
        <ele>100.6</ele>
        <time>2022-02-03T15:38:23Z</time>
      </trkpt>
      <trkpt lat="43.3244" lon="2.7361">
        <ele>100.6</ele>
        <time>2022-02-03T15:38:24Z</time>
      </trkpt>
      <trkpt lat="43.32422" lon="2.73635">
        <ele>99.15</ele>
        <time>2022-02-03T15:38:38Z</time>
      </trkpt>
      <trkpt lat="43.32419" lon="2.73641">
        <ele>98.19</ele>
        <time>2022-02-03T15:38:50Z</time>
      </trkpt>
      <trkpt lat="43.3242" lon="2.73641">
        <ele>98.19</ele>
        <time>2022-02-03T15:38:59Z</time>
      </trkpt>
      <trkpt lat="43.32418" lon="2.7364">
        <ele>98.19</ele>
        <time>2022-02-03T15:39:02Z</time>
      </trkpt>
      <trkpt lat="43.32417" lon="2.73641">
        <ele>98.19</ele>
        <time>2022-02-03T15:39:03Z</time>
      </trkpt>
      <trkpt lat="43.32417" lon="2.73647">
        <ele>98.19</ele>
        <time>2022-02-03T15:39:06Z</time>
      </trkpt>
      <trkpt lat="43.32417" lon="2.73655">
        <ele>97.71</ele>
        <time>2022-02-03T15:39:19Z</time>
      </trkpt>
      <trkpt lat="43.32417" lon="2.73657">
        <ele>97.71</ele>
        <time>2022-02-03T15:39:38Z</time>
      </trkpt>
      <trkpt lat="43.32419" lon="2.73658">
        <ele>97.71</ele>
        <time>2022-02-03T15:39:42Z</time>
      </trkpt>
      <trkpt lat="43.3242" lon="2.73658">
        <ele>97.71</ele>
        <time>2022-02-03T15:39:43Z</time>
      </trkpt>
      <trkpt lat="43.32421" lon="2.73658">
        <ele>97.71</ele>
        <time>2022-02-03T15:39:44Z</time>
      </trkpt>
      <trkpt lat="43.32422" lon="2.73657">
        <ele>97.71</ele>
        <time>2022-02-03T15:39:45Z</time>
      </trkpt>
      <trkpt lat="43.32423" lon="2.73657">
        <ele>97.71</ele>
        <time>2022-02-03T15:39:46Z</time>
      </trkpt>
      <trkpt lat="43.32424" lon="2.73657">
        <ele>97.71</ele>
        <time>2022-02-03T15:39:47Z</time>
      </trkpt>
      <trkpt lat="43.32434" lon="2.73657">
        <ele>97.71</ele>
        <time>2022-02-03T15:39:54Z</time>
      </trkpt>
      <trkpt lat="43.32436" lon="2.73657">
        <ele>97.71</ele>
        <time>2022-02-03T15:39:55Z</time>
      </trkpt>
      <trkpt lat="43.32437" lon="2.73658">
        <ele>97.71</ele>
        <time>2022-02-03T15:39:56Z</time>
      </trkpt>
      <trkpt lat="43.32438" lon="2.73659">
        <ele>99.15</ele>
        <time>2022-02-03T15:39:57Z</time>
      </trkpt>
      <trkpt lat="43.32439" lon="2.7366">
        <ele>99.15</ele>
        <time>2022-02-03T15:39:58Z</time>
      </trkpt>
      <trkpt lat="43.32441" lon="2.7366">
        <ele>99.15</ele>
        <time>2022-02-03T15:39:59Z</time>
      </trkpt>
      <trkpt lat="43.32447" lon="2.7366">
        <ele>99.63</ele>
        <time>2022-02-03T15:40:07Z</time>
      </trkpt>
      <trkpt lat="43.32461" lon="2.73667">
        <ele>101.56</ele>
        <time>2022-02-03T15:40:24Z</time>
      </trkpt>
      <trkpt lat="43.32462" lon="2.73667">
        <ele>101.56</ele>
        <time>2022-02-03T15:40:25Z</time>
      </trkpt>
      <trkpt lat="43.32473" lon="2.73672">
        <ele>103</ele>
        <time>2022-02-03T15:40:38Z</time>
      </trkpt>
      <trkpt lat="43.32489" lon="2.73693">
        <ele>103.96</ele>
        <time>2022-02-03T15:40:51Z</time>
      </trkpt>
      <trkpt lat="43.32503" lon="2.73714">
        <ele>103.96</ele>
        <time>2022-02-03T15:41:05Z</time>
      </trkpt>
      <trkpt lat="43.32503" lon="2.73716">
        <ele>103.96</ele>
        <time>2022-02-03T15:41:06Z</time>
      </trkpt>
      <trkpt lat="43.32509" lon="2.73731">
        <ele>104.44</ele>
        <time>2022-02-03T15:41:17Z</time>
      </trkpt>
      <trkpt lat="43.32511" lon="2.73748">
        <ele>105.4</ele>
        <time>2022-02-03T15:41:34Z</time>
      </trkpt>
      <trkpt lat="43.32509" lon="2.73759">
        <ele>107.81</ele>
        <time>2022-02-03T15:41:41Z</time>
      </trkpt>
      <trkpt lat="43.32508" lon="2.73763">
        <ele>105.88</ele>
        <time>2022-02-03T15:41:43Z</time>
      </trkpt>
      <trkpt lat="43.32505" lon="2.73773">
        <ele>107.81</ele>
        <time>2022-02-03T15:41:47Z</time>
      </trkpt>
      <trkpt lat="43.32498" lon="2.73778">
        <ele>107.81</ele>
        <time>2022-02-03T15:41:52Z</time>
      </trkpt>
      <trkpt lat="43.32493" lon="2.73767">
        <ele>107.32</ele>
        <time>2022-02-03T15:42:00Z</time>
      </trkpt>
      <trkpt lat="43.32484" lon="2.73757">
        <ele>108.29</ele>
        <time>2022-02-03T15:42:13Z</time>
      </trkpt>
      <trkpt lat="43.32477" lon="2.73753">
        <ele>108.29</ele>
        <time>2022-02-03T15:42:30Z</time>
      </trkpt>
    </trkseg>
  </trk>
</gpx>